[[{"header":{"parameterUnit":"m.s-1","parameterCategory":1,"la1":30.6,"la2":29.2853,"lo1":-89.7004,"lo2":-87.6739,"dy":0.0162,"dx":0.0183,"nx":112,"ny":82,"refTime":"2023-03-27T18:00:00:Z","depth":0,"parameterNumber":2,"parameterNumberName":"U-component_of_WINDS"},"data":[0.0,0.0,0.0,0.0,0.0,0.0,0.0,0.0,0.0,0.0,0.0,0.0,0.0,0.0,0.0,0.0,0.0,0.0,0.0,0.0,0.0,0.0,0.0,0.0,0.0,0.0,0.0,0.0,0.0,0.0,0.0,0.0,0.0,0.0,0.0,0.0,0.0,0.0,0.0,0.0,0.0,0.0,0.0,0.0,0.0,0.0,0.0,0.0,0.0,0.0,0.0,0.0,0.0,0.0,0.0,0.0,0.0,0.0,0.0,0.0,0.0,0.0,0.0,0.0,0.0,0.0,0.0,0.0,0.0,0.0,0.0,0.0,0.0,0.0,0.0,0.0,0.0,0.0,0.0,0.0,0.0,0.0,0.0,0.0,0.0,0.0,0.0,0.0,0.0,0.0,1.0715,1.1186,1.2373,1.359,1.4727,1.4076,1.3986,1.493,0.0,0.0,0.0,0.0,0.0,0.0,0.0,0.0,0.0,0.0,0.0,0.0,0.0,0.0,0.0,0.0,0.0,0.0,0.0,0.0,0.0,0.0,0.0,0.0,0.0,0.0,0.0,0.0,0.0,0.0,0.0,0.0,0.0,0.0,0.0,0.0,0.0,0.0,0.0,0.0,0.0,0.0,0.0,0.0,0.0,0.0,0.0,0.0,0.0,0.0,0.0,0.0,0.0,0.0,0.0,0.0,0.0,0.0,0.0,0.0,0.0,0.0,0.0,0.0,0.0,0.0,0.0,0.0,0.0,0.0,0.0,0.0,0.0,0.0,0.0,0.0,0.0,0.0,0.0,0.0,0.0,0.0,0.0,0.0,0.0,0.0,0.0,0.0,0.0,0.0,0.0,0.0,0.0,0.0,0.0,0.0,0.0,0.0,0.0,0.0,0.0,0.0,0.0,0.0,0.9981,0.9341,0.966,0.9976,1.0168,1.028,1.0583,1.1165,0.0,0.0,0.0,0.0,0.0,0.0,0.0,0.0,0.0,0.0,0.0,0.0,0.0,0.0,0.0,0.0,0.0,0.0,0.0,0.0,0.0,0.0,0.0,0.0,0.0,0.0,0.0,0.0,0.0,0.0,0.0,0.0,0.0,0.0,0.0,0.0,0.0,0.0,0.0,0.0,0.0,0.0,0.0,0.0,0.0,0.0,0.0,0.0,0.0,0.0,0.0,0.0,0.0,0.0,0.0,0.0,0.0,0.0,0.0,0.0,0.0,0.0,0.0,0.0,0.0,0.0,0.0,0.0,0.0,0.0,0.0,0.0,0.0,0.0,0.0,0.0,0.0,0.0,0.0,0.0,0.0,0.0,0.0,0.0,0.0,0.0,0.0,0.0,0.0,0.0,0.0,0.0,0.0,0.0,0.0,0.0,0.0,0.0,0.0,0.0,0.0,0.0,0.0,0.8556,0.8203,0.7859,0.851,0.9,0.9197,0.93,0.9698,1.0391,1.109,0.0,0.0,0.0,0.0,0.0,0.0,0.0,0.0,0.0,0.0,0.0,0.0,0.0,0.0,0.0,0.0,0.0,0.0,0.0,0.0,0.0,0.0,0.0,0.0,0.0,0.0,0.0,0.0,0.0,0.0,0.0,0.0,0.0,0.0,0.0,0.0,0.0,0.0,0.0,0.0,0.0,0.0,0.0,0.0,0.0,0.0,0.0,0.0,0.0,0.0,0.0,0.0,0.0,0.0,0.0,0.0,0.0,0.0,0.0,0.0,0.0,0.0,0.0,0.0,0.0,0.0,0.0,0.0,0.0,0.0,0.0,0.0,0.0,0.0,0.0,0.0,0.0,0.0,0.0,0.0,0.0,0.0,0.0,0.0,0.0,0.0,0.0,0.0,0.0,0.0,0.0,0.0,0.0,0.0,0.0,0.0,0.0,0.0,0.0,0.0,0.0,0.0,0.6482,0.6222,0.6563,0.7356,0.8014,0.8209,0.8308,0.8704,0.9402,0.9501,0.0,0.0,0.0,0.0,0.0,0.0,0.0,0.0,0.0,0.0,0.0,0.0,0.0,0.0,0.0,0.0,0.0,0.0,0.0,0.0,0.0,0.0,0.0,0.0,0.0,0.0,0.0,0.0,0.0,0.0,0.0,0.0,0.0,0.0,0.0,0.0,0.0,0.0,0.0,0.0,0.0,0.0,0.0,0.0,0.0,0.0,0.0,0.0,0.0,0.0,0.0,0.0,0.0,0.0,0.0,0.0,0.0,0.0,0.0,0.0,0.0,0.0,0.0,0.0,0.0,0.0,0.0,0.0,0.0,0.0,0.0,0.0,0.0,0.0,0.0,0.0,0.0,0.0,0.0,0.0,0.0,0.0,0.0,0.0,0.0,0.0,0.0,0.0,0.0,0.0,0.0,0.0,0.0,0.0,0.0,0.0,0.0,0.0,0.0,0.0,0.0,0.0,0.54,0.4148,0.5209,0.5434,0.5438,0.5438,0.5737,0.6134,0.6634,0.6634,0.0,0.0,0.0,0.0,0.0,0.0,0.0,0.0,0.0,0.0,0.0,0.0,0.0,0.0,0.0,0.0,0.0,0.0,0.0,0.0,0.0,0.0,0.0,0.0,0.0,0.0,0.0,0.0,0.0,0.0,0.0,0.0,0.0,0.0,0.0,0.0,0.0,0.0,0.0,0.0,0.0,0.0,0.0,0.0,0.0,0.0,0.0,0.0,0.0,0.0,0.0,0.0,0.0,0.0,0.0,0.0,0.0,0.0,0.0,0.0,0.0,0.0,0.0,0.0,0.0,0.0,0.0,0.0,0.0,0.0,0.0,0.0,0.0,0.0,0.0,0.0,0.0,0.0,0.0,0.0,0.0,0.0,0.0,0.0,0.0,0.0,0.0,0.0,0.0,0.0,0.0,0.0,0.0,0.0,0.0,0.0,0.0,0.0,0.0,0.0,0.0,0.0,0.374,0.2642,0.3817,0.3929,0.4332,0.514,0.534,0.5639,0.6337,0.0,0.0,0.0,0.0,0.0,0.0,0.0,0.0,0.0,0.0,0.0,0.0,0.0,0.0,0.0,0.0,0.0,0.0,0.0,0.0,0.0,0.0,0.0,0.0,0.0,0.0,0.0,0.0,0.0,0.0,0.0,0.0,0.0,0.0,0.0,0.0,0.0,0.0,0.0,0.0,0.0,0.0,0.0,0.0,0.0,0.0,0.0,0.0,0.0,0.0,0.0,0.0,0.0,0.0,0.0,0.0,0.0,0.0,0.0,0.0,0.0,0.0,0.0,0.0,0.0,0.0,0.0,0.0,0.0,0.0,0.0,0.0,0.0,0.0,0.0,0.0,0.0,0.0,0.0,0.0,0.0,0.0,0.0,0.0,0.0,0.0,0.0,0.0,0.0,0.0,0.0,0.0,0.0,0.0,0.0,0.0,0.0,0.0,0.0,0.0,0.0,0.0,0.444,0.2415,0.148,0.2614,0.272,0.3022,0.393,0.4029,0.4431,0.5331,0.0,0.0,0.0,0.0,0.0,0.0,0.0,0.0,0.0,0.0,0.0,0.0,0.0,0.0,0.0,0.0,0.0,0.0,0.0,0.0,0.0,0.0,0.0,0.0,0.0,0.0,0.0,0.0,0.0,0.0,0.0,0.0,0.0,0.0,0.0,0.0,0.0,0.0,0.0,0.0,0.0,0.0,0.0,0.0,0.0,0.0,0.0,0.0,0.0,0.0,0.0,0.0,0.0,0.0,0.0,0.0,0.0,0.0,0.0,0.0,0.0,0.0,0.0,0.0,0.0,0.0,0.0,0.0,0.0,0.0,0.0,0.0,0.0,0.0,0.0,0.0,0.0,0.0,0.0,0.0,0.0,0.0,0.0,0.0,0.0,0.0,0.0,0.0,0.0,0.0,0.0,0.0,0.0,0.0,0.0,0.0,0.0,0.0,0.0,0.0,0.0,0.0,0.3789,0.1643,0.0395,0.1509,0.1613,0.1613,0.1613,0.1613,0.2016,0.0,0.0,0.0,0.0,0.0,0.0,0.0,0.0,0.0,0.0,0.0,0.0,0.0,0.0,0.0,0.0,0.0,0.0,0.0,0.0,0.0,0.0,0.0,0.0,0.0,0.0,0.0,0.0,0.0,0.0,0.0,0.0,0.0,0.0,0.0,0.0,0.0,0.0,0.0,0.0,0.0,0.0,0.0,0.0,0.0,0.0,0.0,0.0,0.0,0.0,0.0,0.0,0.0,0.0,0.0,0.0,0.0,0.0,0.0,0.0,0.0,0.0,0.0,0.0,0.0,0.0,0.0,0.0,0.0,0.0,0.0,0.0,0.0,0.0,0.0,0.0,0.0,0.0,0.0,0.0,0.0,0.0,0.0,0.0,0.0,0.0,0.0,0.0,0.0,0.0,0.0,0.0,0.0,0.0,0.0,0.0,0.0,0.0,0.0,0.0,0.0,0.0,0.0,0.1995,0.0196,-0.0702,0.0403,0.0504,0.0806,0.1513,0.1613,0.2016,0.3123,0.0,0.0,0.0,0.0,0.0,0.0,0.0,0.0,0.0,0.0,0.0,0.0,0.0,0.0,0.0,0.0,0.0,0.0,0.0,0.0,0.0,0.0,0.0,0.0,0.0,0.0,0.0,0.0,0.0,0.0,0.0,0.0,0.0,0.0,0.0,0.0,0.0,0.0,0.0,0.0,0.0,0.0,0.0,0.0,0.0,0.0,0.0,0.0,0.0,0.0,0.0,0.0,0.0,0.0,0.0,0.0,0.0,0.0,0.0,0.0,0.0,0.0,0.0,0.0,0.0,0.0,0.0,0.0,0.0,0.0,0.0,0.0,0.0,0.0,0.0,0.0,0.0,0.0,0.0,0.0,0.0,0.0,0.0,0.0,0.0,0.0,0.0,0.0,0.0,0.0,0.0,0.0,0.0,0.0,0.0,0.0,0.0,0.0,0.0,0.0,0.0,0.0,0.1346,-0.0396,-0.1313,-0.0706,-0.0605,-0.0404,0.0303,0.0303,0.0806,0.1813,0.0,0.0,0.0,0.0,0.0,0.0,0.0,0.0,0.0,0.0,0.0,0.0,0.0,0.0,0.0,0.0,0.0,0.0,0.0,0.0,0.0,0.0,0.0,0.0,0.0,0.0,0.0,0.0,0.0,0.0,0.0,0.0,0.0,0.0,0.0,0.0,0.0,0.0,0.0,0.0,0.0,0.0,0.0,0.0,0.0,0.0,0.0,0.0,0.0,0.0,0.0,0.0,0.0,0.0,0.0,0.0,0.0,0.0,0.0,0.0,0.0,0.0,0.0,0.0,0.0,0.0,0.0,0.0,0.0,0.0,0.0,0.0,0.0,0.0,0.0,0.0,0.0,0.0,0.0,0.0,0.0,0.0,0.0,0.0,0.0,0.0,0.0,0.0,0.0,0.0,0.0,0.0,0.0,0.0,0.0,0.0,0.0,0.0,0.0,0.0,0.0,0.0,0.1467,-0.0299,-0.1617,-0.1617,-0.1617,-0.1617,-0.1617,-0.1617,-0.1111,-0.0101,0.0,0.0,0.0,0.0,0.0,0.0,0.0,0.0,0.0,0.0,0.0,0.0,0.0,0.0,0.0,0.0,0.0,0.0,0.0,0.0,0.0,0.0,0.0,0.0,0.0,0.0,0.0,0.0,0.0,0.0,0.0,0.0,0.0,0.0,0.0,0.0,0.0,0.0,0.0,0.0,0.0,0.0,0.0,0.0,0.0,0.0,0.0,0.0,0.0,0.0,0.0,0.0,0.0,0.0,0.0,0.0,0.0,0.0,0.0,0.0,1.1069,1.1935,0.0,0.0,0.0,0.0,0.0,0.0,0.0,0.0,0.0,0.0,0.0,0.0,0.0,0.0,0.0,0.0,0.0,0.0,0.0,0.0,0.0,0.0,0.0,0.0,0.0,0.0,0.0,0.0,0.0,0.0,0.0,0.0,0.0,0.0,0.0,0.0,0.0,0.0,0.0,0.0,0.1469,-0.0299,-0.1617,-0.1617,-0.1617,-0.1617,-0.1617,-0.1617,-0.1111,-0.0101,0.0202,0.0,0.0,0.0,0.0,0.0,0.0,0.0,0.0,0.0,0.0,0.0,0.0,0.0,0.0,0.0,0.0,0.0,0.0,0.0,0.0,0.0,0.0,0.0,0.0,0.0,0.0,0.0,0.0,0.0,0.0,0.0,0.0,0.0,0.0,0.0,0.0,0.0,0.0,0.0,0.0,0.0,0.0,0.0,0.0,0.0,0.0,0.0,0.0,0.0,0.0,0.0,0.0,0.0,0.0,0.0,0.0,0.0,0.0,0.0,0.9415,0.9716,0.0,0.0,0.0,0.0,0.0,0.0,0.0,0.0,0.0,0.0,0.0,0.0,0.0,0.0,0.0,0.0,0.0,0.0,0.0,0.0,0.0,0.0,0.0,0.0,0.0,0.0,0.0,0.0,0.0,0.0,0.0,0.0,0.0,0.0,0.0,0.0,0.0,0.0,0.0,0.0,0.1588,-0.0301,-0.1617,-0.1617,-0.1617,-0.1617,-0.1617,-0.1617,-0.1313,-0.0807,-0.0303,0.0,0.0,0.0,0.0,0.0,0.0,0.0,0.0,0.0,0.0,0.0,0.0,0.0,0.0,0.0,0.0,0.0,0.0,0.0,0.0,0.0,0.0,0.0,0.0,0.0,0.0,0.0,0.0,0.0,0.0,0.0,0.0,0.0,0.0,0.0,0.0,0.0,0.0,0.0,0.0,0.0,0.0,0.0,0.0,0.0,0.0,0.0,0.0,0.0,0.0,0.0,0.0,0.0,1.0552,1.055,1.0835,0.9824,0.8481,0.7105,0.7809,0.7553,0.668,0.8656,0.0,0.0,0.0,0.0,0.0,0.0,0.0,0.0,0.0,0.0,0.0,0.0,0.0,0.0,0.0,0.0,0.0,0.0,0.0,0.0,0.0,0.0,0.1009,0.1009,0.0403,-0.01,0.0678,0.0,0.0,0.0,0.0,0.0,0.0,0.0,0.0,0.0,0.0,0.0,0.1308,-0.0404,-0.1617,-0.1617,-0.1617,-0.1617,-0.1617,-0.1617,-0.1617,-0.1617,-0.0807,-0.0202,0.0,0.0,0.0,0.0,0.0,0.0,0.0,0.0,0.0,0.0,0.0,0.0,0.0,0.0,0.0,0.0,0.0,0.0,0.0,0.0,0.0,0.0,0.0,0.0,0.0,0.0,0.0,0.0,0.0,0.0,0.0,0.0,2.0461,2.044,0.0,0.0,0.0,0.0,0.0,0.0,0.0,0.0,0.0,0.0,0.0,0.0,0.0,1.256,1.1467,0.9814,0.8683,0.8104,0.6421,0.562,0.5817,0.5625,0.5429,0.5131,0.5231,0.0,0.6119,0.6921,0.0,0.0,0.0,0.0,0.0,0.0,0.0,0.0,0.0,0.0,0.0,0.0,0.0,0.0,0.0,0.0,0.0,0.0,0.0,0.0,0.0,0.0,-0.1212,-0.1212,-0.1313,-0.1311,-0.1205,0.02,0.1594,0.1664,0.1659,0.2049,0.0,0.0,0.0,0.0,0.0,0.0,0.0302,-0.0808,-0.1617,-0.1617,-0.1617,-0.1617,-0.1617,-0.1617,-0.1617,-0.1617,-0.1515,-0.1009,-0.0,0.0101,0.0,0.0,0.0,0.0,0.0,0.0,0.0,0.0,0.0,0.0,0.0,0.0,0.0,0.0,0.0,0.0,0.0,0.0,0.0,0.0,0.0,0.0,0.0,0.0,0.0,0.0,0.0,0.0,0.0,2.0866,2.0822,2.04,2.0294,2.0294,0.0,0.0,0.0,0.0,0.0,0.0,0.0,0.0,0.0,1.0142,0.9812,0.9138,0.8009,0.6916,0.6219,0.5955,0.5145,0.48,0.4834,0.4834,0.4834,0.4834,0.4834,0.5035,0.5338,0.6037,0.6637,0.7138,0.0,0.0,0.0,0.0,0.4718,0.3521,0.1811,0.1007,0.0706,0.0706,0.0,0.0,0.0,0.0,0.0,0.0,0.0,0.131,0.0302,-0.0303,-0.0807,-0.1414,-0.1617,-0.1617,-0.1617,-0.0909,-0.0,0.0499,0.0697,0.0995,0.209,0.2289,0.0,0.0,0.0,0.0504,0.0101,-0.0908,-0.1617,-0.1617,-0.1617,-0.1617,-0.1617,-0.1617,-0.1617,-0.1617,-0.1617,-0.1414,-0.0908,-0.0303,-0.03,0.0,0.0,0.0,0.0,0.0,0.0,0.0,0.0,0.0,0.0,0.0,0.0,0.0,0.0,0.0,0.0,0.0,0.0,0.0,0.0,0.0,0.0,0.0,0.0,0.0,0.0,0.0,0.0,2.0496,2.0062,1.9797,1.8329,1.7721,0.0,0.0,0.0,0.0,0.0,0.0,1.0464,1.0223,0.9156,0.7252,0.6728,0.609,0.5339,0.4927,0.4718,0.4741,0.4804,0.4834,0.4834,0.4834,0.4834,0.4834,0.4834,0.4834,0.4834,0.5438,0.5842,0.6042,0.6639,0.6539,0.5839,0.4522,0.3519,0.2519,0.0302,-0.0403,-0.0403,-0.0403,-0.0202,0.0101,0.0907,0.0,0.0,0.0,0.0,0.0907,-0.0101,-0.0403,-0.0605,-0.1414,-0.1617,-0.1617,-0.1617,-0.1617,-0.1414,-0.0605,-0.0403,-0.0101,0.1008,0.121,0.0,0.121,0.0504,-0.0101,-0.0403,-0.1111,-0.1617,-0.1617,-0.1617,-0.1617,-0.1617,-0.1617,-0.1617,-0.1617,-0.1617,-0.1617,-0.1617,-0.0807,-0.0802,-0.1583,0.0,0.0,0.0,0.0,0.0,0.0,0.0,0.0,0.0,0.0,0.0,0.0,0.0,0.0,0.0,0.0,0.0,0.0,0.0,0.0,0.0,0.0,0.0,0.0,0.0,0.0,0.0,0.0,0.0,1.7293,1.5076,0.0,0.0,0.0,0.0,1.1488,1.0595,0.9243,0.7432,0.7344,0.6453,0.4606,0.4522,0.4612,0.4692,0.4704,0.4749,0.4828,0.4832,0.4834,0.4834,0.4834,0.4834,0.4834,0.4834,0.4834,0.4834,0.4834,0.5338,0.6042,0.6042,0.6042,0.5739,0.3618,0.2414,0.1411,-0.0808,-0.1515,-0.1515,-0.1515,-0.0807,-0.0,0.0101,0.0806,0.0,0.0,0.0101,-0.0202,-0.1212,-0.1515,-0.1516,-0.1617,-0.1617,-0.1617,-0.1617,-0.1617,-0.1617,-0.1516,-0.1515,-0.1212,-0.0101,0.0,0.0101,0.0101,-0.0,-0.0403,-0.1414,-0.1617,-0.1617,-0.1617,-0.1617,-0.1617,-0.1617,-0.1617,-0.1617,-0.1617,-0.1617,-0.1617,-0.1617,-0.1516,-0.1515,-0.1615,-0.1586,0.0,0.0,0.0,0.0,0.0,0.0,0.0,0.0,0.0,0.0,0.0,0.0,0.0,0.0,0.0,0.0,0.0,0.0,0.0,0.0,0.0,0.0,0.0,0.0,0.0,0.0,0.0,0.0,1.6098,1.3432,0.0,1.3117,1.0484,0.862,0.8537,0.7169,0.6048,0.5351,0.533,0.5029,0.4432,0.4551,0.4643,0.4708,0.4367,0.4407,0.4834,0.4433,0.4332,0.4334,0.4634,0.4634,0.4334,0.4634,0.4834,0.4834,0.4834,0.4935,0.5236,0.5236,0.4834,0.4028,0.2517,0.141,0.0403,-0.1111,-0.1617,-0.1617,-0.1617,-0.1313,-0.1009,-0.1009,-0.0808,-0.0505,-0.0908,-0.1009,-0.1111,-0.1515,-0.1617,-0.1617,-0.1617,-0.1617,-0.1617,-0.1617,-0.1617,-0.1617,-0.1617,-0.1617,-0.1515,-0.1111,-0.1009,-0.1009,-0.1009,-0.1009,-0.1212,-0.1516,-0.1617,-0.1617,-0.1617,-0.1617,-0.1617,-0.1617,-0.1617,-0.1617,-0.1617,-0.1617,-0.1617,-0.1617,-0.1617,-0.1617,-0.1617,-0.1606,-0.1591,0.0,0.0,0.0,0.0,0.0,0.0,0.0,0.0,0.0,0.0,0.0,0.0,0.0,0.0,0.0,0.0,0.0,0.0,0.0,0.0,0.0,0.0,0.0,0.0,0.0,1.5531,1.4122,1.5061,1.2003,1.0062,1.083,0.8289,0.6401,0.6133,0.5001,0.4312,0.4342,0.4402,0.4463,0.4526,0.4452,0.4328,0.4157,0.3606,0.3425,0.3623,0.3425,0.3324,0.3325,0.393,0.4133,0.4033,0.4031,0.413,0.423,0.3828,0.3726,0.3728,0.413,0.3626,0.2519,0.1411,0.0605,-0.0202,-0.1212,-0.1617,-0.1617,-0.1617,-0.1617,-0.1617,-0.1617,-0.1617,-0.1617,-0.1617,-0.1617,-0.1617,-0.1617,-0.1617,-0.1617,-0.1617,-0.1617,-0.1617,-0.1617,-0.1617,-0.1617,-0.1617,-0.1617,-0.1617,-0.1617,-0.1617,-0.1617,-0.1617,-0.1617,-0.1617,-0.1617,-0.1617,-0.1617,-0.1617,-0.1617,-0.1617,-0.1617,-0.1313,-0.1212,-0.1617,-0.1212,-0.1212,-0.1617,-0.1617,-0.1617,-0.1617,-0.1919,-0.2107,-0.218,0.0,0.0,0.0,0.0,0.0,0.0,0.0,0.0,0.0,0.0,0.0,0.0,0.0,0.0,0.0,0.0,0.0,0.0,0.0,0.0,0.0,0.0,0.0,1.5853,1.4448,1.3432,1.3937,1.0545,0.8253,0.8344,0.6571,0.5104,0.4389,0.4302,0.4342,0.443,0.444,0.4526,0.4704,0.4217,0.366,0.3224,0.2415,0.1711,0.1207,0.1711,0.1912,0.2013,0.2723,0.343,0.3831,0.2823,0.2621,0.3022,0.2016,0.1613,0.1613,0.272,0.2519,0.1412,0.0403,-0.0,-0.0202,-0.1212,-0.1617,-0.1617,-0.1617,-0.1617,-0.1617,-0.1617,-0.1617,-0.1617,-0.1617,-0.1617,-0.1617,-0.1617,-0.1617,-0.1617,-0.1617,-0.1617,-0.1617,-0.1617,-0.1617,-0.1617,-0.1617,-0.1617,-0.1617,-0.1617,-0.1617,-0.1617,-0.1617,-0.1617,0.0,-0.1617,-0.1617,-0.1617,-0.1516,-0.1516,-0.1516,-0.1516,-0.0605,-0.0504,-0.1516,-0.0605,-0.0504,-0.1516,-0.1617,-0.1617,-0.1617,-0.2622,-0.3123,-0.3224,0.0,0.0,0.0,0.0,0.0,0.0,0.0,0.0,0.0,0.0,0.0,0.0,0.0,0.0,0.0,0.0,0.0,0.0,0.0,0.0,0.0,1.2987,1.2064,1.2987,1.1861,1.0605,0.9971,0.8873,0.8101,0.7811,0.6334,0.5282,0.5104,0.4632,0.441,0.4434,0.4561,0.4461,0.4114,0.4072,0.3712,0.3229,0.2016,0.1511,0.1811,0.0906,0.0504,0.0604,0.1208,0.1309,0.1108,0.1409,0.1611,0.1711,0.1612,0.1109,0.0504,0.1613,0.1411,0.0403,0.0101,-0.0504,-0.1212,-0.1515,-0.1617,-0.1617,-0.1617,-0.1617,-0.1617,-0.1617,-0.1617,-0.1617,-0.1617,-0.1617,-0.1617,-0.1617,-0.1617,-0.1617,-0.1617,-0.1617,-0.1617,-0.1617,-0.1617,-0.1617,-0.1617,-0.1617,-0.1617,-0.1617,-0.1617,-0.1617,-0.1617,-0.1617,-0.1617,-0.1617,-0.1617,-0.1313,-0.0504,-0.0403,-0.0403,-0.0403,-0.0202,-0.0504,-0.1516,-0.1313,-0.1313,-0.1617,-0.1617,-0.1617,-0.1617,-0.1918,-0.2422,0.0,0.0,0.0,0.0,0.0,0.0,0.0,0.0,0.0,0.0,0.0,0.0,0.0,0.0,0.0,0.0,0.0,0.0,0.0,0.0,0.0,0.0,1.0711,0.9602,1.0038,0.9566,0.899,0.8285,0.8021,0.7577,0.6694,0.5902,0.5282,0.4924,0.4567,0.4453,0.4491,0.463,0.4526,0.4261,0.391,0.343,0.2826,0.1513,0.0706,0.0503,-0.0101,-0.0504,-0.0806,-0.0201,0.0101,-0.0,0.0101,0.0302,0.0503,0.0302,-0.0101,-0.0605,0.0,0.0,0.0,0.0,-0.1111,-0.1617,-0.1617,-0.1617,-0.1617,-0.1617,-0.1617,-0.1617,-0.1617,-0.1617,-0.1617,-0.1617,-0.1617,-0.1617,-0.1617,-0.1617,-0.1617,-0.1617,-0.1617,-0.1617,-0.1617,-0.1617,-0.1617,-0.1617,-0.1617,0.0,-0.1617,-0.1617,-0.1617,-0.1617,-0.1617,-0.1617,-0.1617,-0.1617,-0.1313,-0.0706,-0.0706,-0.0706,-0.0706,-0.0303,0.0,0.0,0.0,-0.1111,-0.1617,-0.1617,0.0,0.0,0.0,-0.2622,-0.3224,-0.4128,0.0,0.0,-0.6401,-0.6895,0.0,0.0,0.0,0.0,0.0,0.0,0.0,0.0,0.0,0.0,0.0,0.0,0.0,0.0,0.0,0.0,0.8757,0.7037,0.7309,0.7665,0.7933,0.8025,0.7665,0.6959,0.5636,0.546,0.5107,0.4491,0.44,0.4491,0.4583,0.4673,0.0,0.0,0.0,0.2927,0.2321,0.0908,-0.0303,-0.1513,-0.121,-0.1412,-0.2118,-0.1412,-0.0806,-0.0403,-0.1009,-0.1009,-0.0605,-0.1313,-0.1617,-0.1515,-0.0504,-0.0807,-0.1617,-0.1617,-0.1617,-0.1617,-0.1617,0.0,0.0,-0.1617,-0.1617,-0.1617,-0.1617,-0.1617,-0.1617,-0.1617,-0.1617,-0.1617,-0.1617,-0.1617,-0.1617,-0.1617,-0.1617,-0.1617,-0.1617,-0.1617,-0.1617,-0.1617,-0.1617,-0.1617,-0.1617,-0.1617,-0.1617,-0.1617,-0.1617,-0.1617,-0.1617,-0.1617,-0.1516,-0.1414,-0.1414,0.0,-0.1414,-0.0504,-0.0504,-0.1516,-0.0706,-0.0605,-0.1516,-0.1617,-0.1617,-0.1617,-0.2521,-0.3124,-0.3224,-0.5131,-0.6134,-0.6437,-0.6537,-0.7135,0.0,0.0,0.0,0.0,0.0,0.0,0.0,0.0,0.0,0.0,0.0,0.0,0.0,0.0,0.0,0.8384,0.6672,0.5899,0.6517,0.6254,0.6166,0.6694,0.7224,0.7136,0.6254,0.5725,0.5407,0.5309,0.4864,0.4585,0.4677,0.4763,0.4418,0.3531,0.3331,0.2726,0.1717,0.0202,-0.0706,-0.1008,-0.2118,0.0,-0.2927,-0.2826,-0.2522,-0.2219,-0.222,-0.2019,-0.1717,-0.1617,-0.1617,-0.1617,-0.1414,-0.1414,-0.1617,-0.1617,-0.1617,-0.1617,-0.1617,-0.1617,-0.1617,-0.1617,-0.1617,-0.1617,-0.1617,-0.1617,0.0,-0.1617,-0.1617,-0.1617,-0.1617,-0.1617,-0.1617,-0.1617,-0.1617,-0.1617,-0.1617,-0.1617,-0.1617,-0.1617,-0.1617,-0.1617,-0.1617,-0.1617,-0.1617,-0.1617,-0.1617,-0.1617,-0.1617,-0.1617,-0.1313,-0.0403,-0.0303,-0.0303,-0.0303,-0.0101,-0.0504,-0.1516,-0.1414,-0.1414,-0.1617,-0.1617,-0.1617,-0.1617,-0.1818,-0.2321,-0.3224,-0.3626,-0.4728,-0.6437,-0.7238,-0.7839,0.0,0.0,0.0,0.0,0.0,0.0,0.0,0.0,0.0,0.0,0.0,1.5659,1.351,0.0,0.9871,0.7632,0.6245,0.5547,0.5985,0.5636,0.5813,0.6871,0.6694,0.6343,0.5899,0.533,0.4931,0.4979,0.475,0.4661,0.4706,0.4787,0.4533,0.4033,0.3432,0.2725,0.1815,0.0504,-0.0605,-0.1412,-0.2219,-0.2826,-0.323,-0.3029,-0.2927,-0.2826,-0.2424,-0.2122,-0.2022,-0.1718,-0.1617,-0.1617,-0.1617,-0.1617,-0.1617,-0.1617,-0.1617,-0.1617,-0.1617,-0.1617,-0.1617,-0.1617,-0.1617,-0.1617,-0.1617,-0.1617,-0.1617,-0.1617,-0.1617,-0.1617,-0.1617,-0.1617,-0.1617,-0.1617,-0.1617,-0.1617,-0.1617,-0.1617,-0.1617,-0.1617,-0.1617,-0.1617,-0.1617,-0.1617,-0.1617,-0.1617,-0.1617,-0.1617,-0.1617,-0.1617,-0.1414,-0.0908,-0.0807,-0.0807,-0.0807,-0.0807,-0.1009,-0.1516,-0.1617,-0.1617,-0.1617,-0.1617,-0.1617,-0.1617,-0.1617,-0.1818,-0.2422,-0.2923,-0.4026,-0.5629,-0.6734,-0.7437,0.0,0.0,0.0,0.0,0.0,0.0,0.0,2.2264,2.0681,1.885,1.6756,1.4859,1.3471,1.1262,0.9213,0.7658,0.6254,0.5458,0.5808,0.5458,0.5633,0.6959,0.608,0.5371,0.5193,0.4747,0.4442,0.4461,0.4616,0.4716,0.4732,0.4798,0.4734,0.4533,0.353,0.2521,0.1712,0.0504,-0.0706,-0.2017,-0.2118,-0.2522,-0.313,-0.2927,-0.2725,-0.2624,-0.2122,-0.1921,-0.1921,-0.1718,-0.1617,-0.1617,-0.1617,-0.1617,-0.1617,-0.1617,-0.1617,-0.1617,-0.1617,-0.1617,-0.1617,-0.1617,-0.1617,-0.1617,-0.1617,-0.1617,-0.1617,-0.1617,-0.1617,-0.1617,-0.1617,-0.1617,-0.1617,-0.1617,-0.1617,-0.1617,-0.1617,-0.1617,-0.1617,-0.1617,-0.1617,-0.1617,-0.1617,-0.1617,-0.1617,-0.1617,-0.1617,-0.1617,-0.1617,-0.1617,-0.1617,-0.1617,-0.1617,-0.1617,-0.1617,-0.1617,-0.1617,-0.1617,-0.1617,-0.1617,-0.1617,-0.1617,-0.1617,-0.1617,-0.1617,-0.1617,-0.1617,-0.2723,-0.3725,-0.4824,-0.5932,-0.6936,3.2431,3.0228,2.8166,2.7301,2.5644,2.3661,0.0,2.0149,1.8708,1.6062,1.4531,1.2942,1.0758,0.9653,0.8619,0.7386,0.6163,0.5638,0.6254,0.5188,0.4746,0.5549,0.546,0.5104,0.4478,0.4381,0.4469,0.4551,0.4651,0.4741,0.4816,0.4828,0.4332,0.343,0.262,0.1612,0.0606,-0.0908,-0.1816,-0.2017,-0.2725,-0.3027,-0.2826,-0.2826,-0.2524,-0.2122,-0.1819,-0.1617,-0.1617,-0.1617,-0.1617,-0.1617,-0.1617,-0.1617,-0.1617,-0.1617,-0.1617,-0.1617,-0.1617,-0.1617,-0.1617,-0.1617,-0.1617,-0.1617,-0.1617,-0.1617,-0.1617,-0.1617,-0.1617,-0.1617,-0.1617,-0.1617,-0.1617,-0.1617,-0.1617,-0.1617,-0.1617,-0.1617,-0.1617,-0.1617,-0.1617,-0.1617,-0.1617,-0.1617,-0.1617,-0.1617,-0.1617,-0.1617,-0.1617,-0.1617,-0.1617,-0.1617,-0.1617,-0.1617,-0.1617,-0.1617,-0.1617,-0.1617,-0.1617,-0.1617,-0.1617,-0.1617,-0.1617,-0.1617,-0.1617,-0.1617,-0.1617,-0.2723,-0.3725,-0.4824,-0.5932,-0.6936,3.1198,2.9392,2.7919,2.6925,2.5356,2.3806,2.2796,2.1207,1.9367,1.7228,1.5696,1.4203,1.2242,1.0966,0.9671,0.8356,0.6956,0.5899,0.5813,0.4921,0.4389,0.4746,0.4746,0.4678,0.4373,0.4461,0.4553,0.4645,0.4732,0.4798,0.4832,0.4535,0.4031,0.3226,0.2116,0.0907,-0.0303,-0.1412,-0.2219,-0.2724,-0.2927,-0.3027,-0.3027,-0.2725,-0.2323,-0.2022,-0.1718,-0.1617,-0.1617,-0.1617,-0.1617,-0.1617,-0.1617,-0.1617,-0.1617,-0.1617,-0.1617,-0.1617,-0.1617,-0.1617,-0.1617,-0.1617,-0.1617,-0.1617,-0.1617,-0.1617,-0.1617,-0.1617,-0.1617,-0.1617,-0.1617,-0.1617,-0.1617,-0.1617,-0.1617,-0.1617,-0.1617,-0.1617,-0.1617,-0.1617,-0.1617,-0.1617,-0.1617,-0.1617,-0.1617,-0.1617,-0.1617,-0.1617,-0.1617,-0.1617,-0.1617,-0.1617,-0.1617,-0.1617,-0.1617,-0.1617,-0.1617,-0.1617,-0.1617,-0.1617,-0.1617,-0.1617,-0.1617,-0.1617,-0.1617,-0.1617,-0.1617,-0.2723,-0.3725,-0.4824,-0.5932,-0.6936,3.0676,2.933,2.8373,2.695,2.5286,2.394,2.3481,2.1683,1.9728,1.8318,1.6764,1.5206,1.3548,1.2015,1.0463,0.8978,0.7397,0.6166,0.546,0.4746,0.43,0.43,0.43,0.4344,0.4461,0.4532,0.461,0.4702,0.4487,0.4331,0.4331,0.3728,0.3024,0.2417,0.131,0.0101,-0.1109,-0.1917,-0.2623,-0.323,-0.3027,-0.2927,-0.3029,-0.2523,-0.2121,-0.1921,-0.1718,-0.1617,-0.1617,-0.1617,-0.1617,-0.1617,-0.1617,-0.1617,-0.1617,-0.1617,-0.1617,-0.1617,-0.1617,-0.1617,-0.1617,-0.1617,-0.1617,-0.1617,-0.1617,-0.1617,-0.1617,-0.1617,-0.1617,-0.1617,-0.1617,-0.1617,-0.1617,-0.1617,-0.1617,-0.1617,-0.1617,-0.1617,-0.1617,-0.1617,-0.1617,-0.1617,-0.1617,-0.1617,-0.1617,-0.1617,-0.1617,-0.1617,-0.1617,-0.1617,-0.1617,-0.1617,-0.1617,-0.1617,-0.1617,-0.1617,-0.1617,-0.1617,-0.1617,-0.1617,-0.1617,-0.1617,-0.1617,-0.1617,-0.1617,-0.1717,-0.2019,-0.3123,-0.4225,-0.5227,-0.6331,-0.7238,3.1853,3.0778,2.9482,2.7473,2.5456,2.3604,2.2188,2.0527,1.9054,1.8158,1.6764,1.5108,1.3093,1.1746,1.0376,0.8548,0.7228,0.6166,0.546,0.4746,0.43,0.43,0.43,0.4369,0.4551,0.4571,0.461,0.4702,0.3789,0.3224,0.3224,0.2217,0.131,0.0504,-0.0302,-0.1109,-0.1917,-0.2725,-0.313,-0.323,-0.323,-0.3029,-0.2826,-0.2223,-0.1819,-0.1617,-0.1617,-0.1617,-0.1617,-0.1617,-0.1617,-0.1617,-0.1617,-0.1617,-0.1617,-0.1617,-0.1617,-0.1617,-0.1617,-0.1617,-0.1617,-0.1617,-0.1617,-0.1617,-0.1617,-0.1617,-0.1617,-0.1617,-0.1617,-0.1617,-0.1617,-0.1617,-0.1617,-0.1617,-0.1617,-0.1617,-0.1617,-0.1617,-0.1617,-0.1617,-0.1617,-0.1617,-0.1617,-0.1617,-0.1617,-0.1617,-0.1617,-0.1617,-0.1617,-0.1617,-0.1617,-0.1617,-0.1617,-0.1617,-0.1617,-0.1617,-0.1617,-0.1617,-0.1617,-0.1617,-0.1617,-0.1617,-0.1617,-0.1617,-0.1617,-0.212,-0.3123,-0.4225,-0.5327,-0.6337,-0.7437,-0.7939,3.1057,3.0271,2.9448,2.7193,2.5693,2.4565,2.3514,2.2113,2.0672,1.9875,1.885,1.7407,1.5101,1.3497,1.1787,0.9648,0.765,0.6166,0.546,0.4746,0.43,0.43,0.43,0.4371,0.4555,0.4573,0.4632,0.4781,0.3815,0.3224,0.3224,0.1813,0.0806,0.0202,-0.0806,-0.1613,-0.2219,-0.2927,-0.323,-0.323,-0.3027,-0.2726,-0.2223,-0.2122,-0.1921,-0.1819,-0.1718,-0.1617,-0.1617,-0.1617,-0.1617,-0.1617,-0.1617,-0.1617,-0.1617,-0.1617,-0.1617,-0.1617,-0.1617,-0.1617,-0.1617,-0.1617,-0.1617,-0.1617,-0.1617,-0.1617,-0.1617,-0.1617,-0.1617,-0.1617,-0.1617,-0.1617,-0.1617,-0.1617,-0.1617,-0.1617,-0.1617,-0.1617,-0.1617,-0.1617,-0.1617,-0.1617,-0.1617,-0.1617,-0.1617,-0.1617,-0.1617,-0.1617,-0.1617,-0.1617,-0.1617,-0.1617,-0.1617,-0.1617,-0.1617,-0.1617,-0.1617,-0.1617,-0.1617,-0.1617,-0.1617,-0.1617,-0.1919,-0.2622,-0.2622,-0.3224,-0.4225,-0.5329,-0.6032,-0.6437,-0.7537,-0.8038,3.0822,3.036,2.9846,2.771,2.6339,2.5414,2.4672,2.3305,2.1897,2.073,2.0129,1.8859,1.6011,1.4239,1.2529,1.0067,0.8086,0.6428,0.5549,0.5015,0.4567,0.43,0.43,0.4371,0.4555,0.4284,0.4062,0.4218,0.3224,0.2418,0.2116,0.0706,-0.0303,-0.0806,-0.1412,-0.2018,-0.2724,-0.2927,-0.3029,-0.3029,-0.2826,-0.2624,-0.2524,-0.2524,-0.2725,-0.3025,-0.2823,-0.2723,-0.2722,-0.2321,-0.2221,-0.2221,-0.2221,-0.1919,-0.1617,-0.2019,-0.1919,-0.1617,-0.1617,-0.1617,-0.1617,-0.1617,-0.1617,-0.1617,-0.1617,-0.1617,-0.1617,-0.1617,-0.1617,-0.1617,-0.1617,-0.1617,-0.1617,-0.1617,-0.1617,-0.1617,-0.1617,-0.1617,-0.1617,-0.1617,-0.1617,-0.1617,-0.1617,-0.1617,-0.1617,-0.1617,-0.1617,-0.1617,-0.1617,-0.1617,-0.1617,-0.1617,-0.1617,-0.1617,-0.1617,-0.1617,-0.1617,-0.1617,-0.1617,-0.1818,-0.212,-0.2221,-0.2723,-0.3725,-0.3725,-0.4325,-0.5327,-0.6032,-0.6637,-0.7039,-0.764,-0.8038,3.1306,3.1029,3.0584,2.8939,2.7459,2.6221,2.5426,2.4169,2.2638,2.0951,2.0575,1.9446,1.5816,1.4142,1.2439,0.9721,0.8265,0.6959,0.5549,0.5371,0.5104,0.4389,0.43,0.4371,0.4458,0.3615,0.2995,0.3013,0.2116,0.1109,0.0101,-0.1009,-0.1818,-0.2321,-0.2122,-0.2324,-0.313,-0.2927,-0.2825,-0.2825,-0.2623,-0.2924,-0.3627,-0.3627,-0.4126,-0.4824,-0.4824,-0.4824,-0.4724,-0.3725,-0.3324,-0.3324,-0.3324,-0.2622,-0.1918,-0.2923,-0.2622,-0.1717,-0.1717,-0.1718,-0.1617,-0.1617,-0.1617,-0.1617,-0.1617,-0.1617,-0.1617,-0.1617,-0.1617,-0.1617,-0.1718,-0.1617,-0.1617,-0.1617,-0.1617,-0.1617,-0.1617,-0.1617,-0.1718,-0.1718,-0.1717,-0.1717,-0.1717,-0.1717,-0.1717,-0.1717,-0.1717,-0.1717,-0.1617,-0.1617,-0.1617,-0.1617,-0.1617,-0.1617,-0.1718,-0.1718,-0.1718,-0.1717,-0.1717,-0.222,-0.3224,-0.3324,-0.3825,-0.4824,-0.4924,-0.5427,-0.6437,-0.6437,-0.7036,-0.8038,-0.8038,-0.8038,3.1766,3.1263,3.0703,2.9352,2.8451,2.7617,2.6377,2.5322,2.423,2.2702,2.1897,2.0566,1.7721,1.5606,1.3233,1.0201,0.7983,0.6163,0.4743,0.4567,0.4478,0.43,0.0,0.4095,0.3506,0.3137,0.2415,0.0904,0.0605,0.0302,-0.0,-0.1009,-0.1617,-0.1818,-0.192,-0.2122,-0.2324,-0.3229,-0.363,-0.3428,-0.4128,-0.4528,-0.4526,-0.4526,-0.4624,-0.4824,-0.4824,-0.4824,-0.4824,-0.4524,-0.4423,-0.4423,-0.4423,-0.4225,-0.4024,-0.4323,-0.4225,-0.4024,-0.4024,-0.2923,-0.1617,-0.1617,-0.1617,-0.1617,-0.1617,-0.1617,-0.1717,-0.2521,-0.222,-0.1818,-0.2622,-0.2221,-0.1617,-0.1617,-0.1617,-0.1617,-0.1617,-0.222,-0.2822,-0.2822,-0.3423,-0.4024,-0.4024,-0.4024,-0.4024,-0.4024,-0.4024,-0.3423,-0.1818,-0.1617,-0.1617,-0.1617,-0.1617,-0.1919,-0.2723,-0.2822,-0.3123,-0.3924,-0.4024,-0.4124,-0.4423,-0.4423,-0.4926,-0.5932,-0.6032,-0.6534,-0.7637,-0.7637,-0.7739,-0.8038,-0.8038,-0.8432,3.1364,3.0911,3.0478,2.9594,2.8684,2.7776,2.6625,2.5521,2.4302,2.2798,2.1821,2.0575,1.839,1.5584,1.28,1.0716,0.8158,0.5985,0.4924,0.4746,0.4656,0.43,0.3941,0.3549,0.303,0.2188,0.116,0.0101,-0.0,-0.0202,-0.0706,-0.1313,-0.1617,-0.1819,-0.1819,-0.2121,-0.2725,-0.3429,-0.4031,-0.4329,-0.4828,-0.5227,-0.5529,-0.5529,-0.5727,-0.6229,-0.6229,-0.6229,-0.6129,-0.5729,-0.5529,-0.5529,-0.5529,-0.5227,-0.4824,-0.5327,-0.5227,-0.4824,-0.4824,-0.4024,-0.3022,-0.3022,-0.3022,-0.2923,-0.2421,-0.2622,-0.3022,-0.3123,-0.3123,-0.3123,-0.3725,-0.3423,-0.3022,-0.3022,-0.3022,-0.3022,-0.3022,-0.3524,-0.3924,-0.3924,-0.4423,-0.4824,-0.4824,-0.4824,-0.4824,-0.4824,-0.4824,-0.4323,-0.3123,-0.3022,-0.3022,-0.3022,-0.3022,-0.3224,-0.3823,-0.3924,-0.4124,-0.4724,-0.4824,-0.5027,-0.5529,-0.5529,-0.6032,-0.7036,-0.7135,-0.7437,-0.8038,-0.8038,-0.8237,-0.8726,-0.8726,-0.9312,3.0613,3.0312,3.0054,2.9651,2.8532,2.7258,2.637,2.5133,2.3818,2.2124,2.1125,1.9953,1.8221,1.4835,1.1974,1.0828,0.8249,0.6166,0.5369,0.5104,0.4835,0.421,0.3314,0.2636,0.2642,0.0951,-0.0097,-0.02,-0.0201,-0.0605,-0.1516,-0.1617,-0.1819,-0.2122,-0.1919,-0.2422,-0.3728,-0.3929,-0.4429,-0.5331,-0.5227,-0.5729,-0.6637,-0.6637,-0.7138,-0.8038,-0.8038,-0.8038,-0.7939,-0.7039,-0.6637,-0.6637,-0.6637,-0.6032,-0.5325,-0.6232,-0.6032,-0.5225,-0.5225,-0.5225,-0.5225,-0.4924,-0.4824,-0.4624,-0.3725,-0.4024,-0.4624,-0.3825,-0.4225,-0.4824,-0.4924,-0.4924,-0.4824,-0.4824,-0.4824,-0.4824,-0.4824,-0.4924,-0.5024,-0.5225,-0.5225,-0.5225,-0.5225,-0.5225,-0.5225,-0.5225,-0.5225,-0.5225,-0.5225,-0.5024,-0.4824,-0.4824,-0.4824,-0.4824,-0.5024,-0.5027,-0.5024,-0.5225,-0.5225,-0.5627,-0.6537,-0.6637,-0.7039,-0.7939,-0.8038,-0.8038,-0.8038,-0.8137,-0.8726,-0.9608,-0.9702,-1.0391,3.0911,3.0133,2.9352,2.9289,2.8363,2.7124,2.5706,2.5216,2.4362,2.2274,2.1125,1.9778,1.756,1.4961,1.2257,0.9616,0.7643,0.5985,0.4656,0.3851,0.3314,0.3135,0.2238,0.1356,0.0556,0.0189,-0.0481,-0.1281,-0.1302,-0.1414,-0.1617,-0.1617,-0.2019,-0.2923,-0.2923,-0.3423,-0.4626,-0.5432,-0.6034,-0.6234,-0.7033,-0.7537,-0.7736,-0.7736,-0.7839,-0.8038,-0.8038,-0.8038,-0.7939,-0.7839,-0.7736,-0.7736,-0.7736,-0.7637,-0.7434,-0.7637,-0.7637,-0.7434,-0.7434,-0.7434,-0.7132,-0.5327,-0.4824,-0.4724,-0.4624,-0.4624,-0.4924,-0.5632,-0.5329,-0.5024,-0.5932,-0.5429,-0.4824,-0.4824,-0.4824,-0.4824,-0.4824,-0.5529,-0.6434,-0.7235,-0.7434,-0.7434,-0.7434,-0.7434,-0.7434,-0.7434,-0.7434,-0.7434,-0.7434,-0.5927,-0.4824,-0.4824,-0.4824,-0.5127,-0.6032,-0.6134,-0.6534,-0.7434,-0.7434,-0.7537,-0.7739,-0.7736,-0.7839,-0.8038,-0.8038,-0.8038,-0.8038,-0.8924,-0.941,-0.9608,-1.0489,-1.1463,2.9766,2.9052,2.8349,2.8349,2.7272,2.5995,2.4838,2.3593,2.235,2.0827,1.9149,1.7624,1.6511,1.3717,1.1086,0.963,0.6926,0.4823,0.42,0.2953,0.2149,0.2149,0.1254,0.0452,-0.0,-0.0467,-0.1046,-0.1568,-0.1585,-0.16,-0.1616,-0.2119,-0.2923,-0.4024,-0.4024,-0.4526,-0.5629,-0.6134,-0.6637,-0.7238,-0.7739,-0.8038,-0.8038,-0.8038,-0.8038,-0.8038,-0.8038,-0.8038,-0.8038,-0.8038,-0.8038,-0.8038,-0.8038,-0.8038,-0.8038,-0.8038,-0.8038,-0.8038,-0.8038,-0.8038,-0.7839,-0.683,-0.6429,-0.6329,-0.5829,-0.6029,-0.6431,-0.6434,-0.6431,-0.6631,-0.7135,-0.6833,-0.6429,-0.6429,-0.6429,-0.6429,-0.6429,-0.6833,-0.7338,-0.7939,-0.8038,-0.8038,-0.8038,-0.8038,-0.8038,-0.8038,-0.8038,-0.8038,-0.8038,-0.7132,-0.6429,-0.6429,-0.6429,-0.6631,-0.7238,-0.7238,-0.7437,-0.7939,-0.8038,-0.8038,-0.8038,-0.8038,-0.8038,-0.8038,-0.8528,-0.8825,-0.8825,-0.9899,-1.0681,-1.1268,-1.1755,-1.2538,2.8427,2.7644,2.6989,2.6989,2.5857,2.4494,2.3447,2.1824,2.0187,1.9036,1.7172,1.5523,1.5011,1.2196,0.9726,0.92,0.6398,0.4109,0.3753,0.2324,0.1343,0.1164,0.0269,-0.0361,-0.0642,-0.1291,-0.1878,-0.2236,-0.2259,-0.2185,-0.1917,-0.2923,-0.4024,-0.5127,-0.5127,-0.5629,-0.6736,-0.6736,-0.7135,-0.8038,-0.8038,-0.8038,-0.8038,-0.8233,-0.8237,-0.8038,-0.8237,-0.8237,-0.8038,-0.8038,-0.8038,-0.8038,-0.8038,-0.8038,-0.8038,-0.8038,-0.8038,-0.8038,-0.8038,-0.8038,-0.8038,-0.8038,-0.8038,-0.7839,-0.7039,-0.7338,-0.7839,-0.6936,-0.7338,-0.8038,-0.8038,-0.8038,-0.8038,-0.8038,-0.8038,-0.8038,-0.8038,-0.8038,-0.8038,-0.8336,-0.8137,-0.8137,-0.8627,-0.8333,-0.8038,-0.8333,-0.8137,-0.8038,-0.8038,-0.8038,-0.8038,-0.8038,-0.8038,-0.8038,-0.8038,-0.8038,-0.8038,-0.8038,-0.8038,-0.8038,-0.8038,-0.8233,-0.8333,-0.8333,-0.941,-0.9899,-0.9899,-1.0974,-1.195,-1.2732,-1.2926,-1.3511,2.7604,2.6544,2.5426,2.5426,2.4302,2.2787,2.1171,2.0643,1.9856,1.7641,1.6437,1.5011,1.2946,1.1086,0.9205,0.7024,0.0,0.4743,0.3224,0.2058,0.1074,0.0269,-0.0718,-0.1615,-0.2516,-0.2743,-0.317,-0.4282,-0.4428,-0.4117,-0.3123,-0.4024,-0.5127,-0.6234,-0.6234,-0.6736,-0.7839,-0.7839,-0.7939,-0.8038,-0.8038,-0.8038,-0.8038,-0.9019,-0.892,-0.8038,-0.9019,-0.892,-0.8038,-0.8038,-0.8038,-0.8038,-0.8038,-0.8038,-0.8038,-0.8038,-0.8038,-0.8038,-0.8038,-0.8038,-0.8038,-0.8038,-0.8038,-0.7939,-0.7839,-0.7939,-0.7939,-0.7839,-0.7939,-0.8038,-0.8038,-0.8038,-0.8038,-0.8038,-0.8038,-0.8038,-0.8038,-0.8038,-0.8333,-0.9312,-0.8627,-0.863,-1.0587,-0.9316,-0.8333,-0.9312,-0.8627,-0.8038,-0.8038,-0.8038,-0.8038,-0.8038,-0.8038,-0.8038,-0.8038,-0.8038,-0.8038,-0.8038,-0.8038,-0.8038,-0.8038,-0.8924,-0.941,-0.941,-1.0489,-1.1072,-1.1077,-1.2047,-1.263,-1.2727,-1.3709,-1.4196,2.6133,2.5004,2.3879,2.3879,2.2691,2.1171,2.012,1.8717,1.7212,1.5913,1.4162,1.2565,1.1445,0.973,0.8086,0.0,0.0,0.0,0.2862,0.1432,-0.0,-0.1523,-0.2061,-0.2688,-0.3667,-0.3785,-0.3946,-0.4551,-0.5259,-0.5464,-0.5127,-0.5532,-0.6232,-0.7338,-0.7338,-0.7537,-0.8038,-0.8038,-0.8333,-0.892,-0.892,-0.9312,-0.9899,-1.0391,-1.0293,-0.9998,-1.0391,-1.0293,-0.9899,-0.9899,-0.9899,-0.9899,-0.9899,-0.9899,-0.9805,-0.9217,-0.892,-0.8821,-0.8233,-0.8038,-0.8038,-0.8038,-0.8038,-0.8038,-0.8038,-0.8038,-0.8038,-0.8038,-0.8038,-0.8038,-0.8038,-0.8432,-0.9118,-0.9805,-0.9899,-0.9899,-0.9899,-0.9899,-1.0096,-1.0489,-0.9706,-0.941,-1.0974,-0.9998,-0.9316,-1.0391,-1.0194,-0.9899,-0.9899,-0.9899,-0.9899,-0.9899,-0.9312,-0.892,-0.892,-0.9509,-0.9899,-0.9899,-0.9899,-0.9899,-0.9899,-1.0293,-1.0587,-1.0587,-1.156,-1.2145,-1.2145,-1.3119,-1.3709,-1.3709,-1.41,-1.4389,2.4577,2.3588,2.266,2.266,2.1257,1.969,1.8937,1.6758,1.4664,1.3736,1.1963,1.0346,0.9474,0.7903,0.6593,0.0,0.0,0.2858,0.1878,0.0717,-0.0717,-0.2688,-0.2867,-0.3401,-0.4559,-0.5029,-0.5292,-0.5447,-0.6165,-0.6875,-0.726,-0.7307,-0.7531,-0.7939,-0.8333,-0.8432,-0.8432,-0.8825,-0.9312,-1.0096,-1.0096,-1.0489,-1.117,-1.1463,-1.1463,-1.1175,-1.1463,-1.1463,-1.117,-1.117,-1.117,-1.117,-1.117,-1.117,-1.1072,-1.0391,-1.0096,-0.9998,-0.9217,-0.892,-0.892,-0.892,-0.889,-0.8849,-0.8849,-0.8689,-0.8531,-0.8825,-0.892,-0.892,-0.892,-0.9509,-1.0293,-1.0974,-1.117,-1.117,-1.117,-1.117,-1.1268,-1.156,-1.0779,-1.0489,-1.1853,-1.0974,-1.0391,-1.1463,-1.1365,-1.117,-1.117,-1.117,-1.117,-1.117,-1.0779,-1.0391,-1.0096,-1.0783,-1.117,-1.117,-1.117,-1.117,-1.117,-1.1463,-1.1658,-1.1658,-1.2635,-1.3216,-1.3216,-1.3902,-1.4298,-1.4298,-1.4383,-1.4612,2.3021,2.2435,2.1832,2.1832,2.0081,1.8106,1.7236,1.5119,1.2849,1.1026,1.0082,0.8948,0.6851,0.5697,0.4632,0.3395,0.2236,0.0,0.0179,-0.0,-0.0717,-0.2688,-0.2867,-0.3669,-0.5542,-0.6734,-0.737,-0.7373,-0.7645,-0.829,-0.9336,-0.951,-0.9118,-0.8038,-0.9019,-0.9608,-0.9608,-1.0685,-1.117,-1.117,-1.117,-1.117,-1.1268,-1.2242,-1.2145,-1.1272,-1.2242,-1.2145,-1.117,-1.117,-1.117,-1.117,-1.117,-1.117,-1.117,-1.117,-1.117,-1.117,-1.117,-1.117,-1.117,-1.117,-1.1033,-1.0772,-1.0772,-1.0241,-0.9805,-1.0877,-1.117,-1.117,-1.117,-1.1175,-1.117,-1.117,-1.117,-1.117,-1.117,-1.117,-1.1463,-1.2533,-1.1853,-1.1853,-1.3908,-1.2538,-1.156,-1.2533,-1.1853,-1.117,-1.117,-1.117,-1.117,-1.117,-1.2047,-1.2242,-1.1268,-1.117,-1.117,-1.117,-1.117,-1.117,-1.117,-1.2145,-1.2727,-1.2727,-1.3709,-1.4292,-1.4292,-1.4298,-1.4298,-1.4304,-1.4582,-1.4992,1.9743,1.8822,1.7814,1.7814,1.6327,1.4677,1.3858,1.265,1.0885,0.8412,0.7011,0.5866,0.4448,0.3477,0.2591,0.2057,0.1072,0.0089,-0.0805,-0.1519,-0.2679,-0.4559,-0.5359,-0.6245,-0.7485,-0.7978,-0.8504,-0.9251,-0.9366,-0.9582,-1.009,-1.0283,-1.0351,-1.019,-1.0489,-1.0685,-1.0685,-1.1072,-1.156,-1.2242,-1.2242,-1.2635,-1.3318,-1.3613,-1.3613,-1.3318,-1.3709,-1.3607,-1.3318,-1.3318,-1.3318,-1.3318,-1.3318,-1.3318,-1.3221,-1.2538,-1.2242,-1.2145,-1.1463,-1.117,-1.117,-1.117,-1.1033,-1.0963,-1.1622,-1.1196,-1.0509,-1.1035,-1.117,-1.1365,-1.2047,-1.2242,-1.2436,-1.3125,-1.3318,-1.3318,-1.3318,-1.3318,-1.3414,-1.3709,-1.2926,-1.2635,-1.41,-1.3119,-1.2538,-1.3613,-1.3516,-1.3318,-1.3318,-1.3318,-1.3318,-1.3318,-1.3613,-1.3414,-1.2339,-1.2926,-1.3318,-1.3318,-1.3318,-1.3318,-1.3318,-1.3613,-1.3806,-1.3806,-1.41,-1.4298,-1.4298,-1.4491,-1.4678,-1.4859,-1.5125,-1.5645,0.0,1.6141,1.5427,1.4993,1.3948,1.2905,1.2395,1.0438,0.8097,0.586,0.4539,0.3477,0.2675,0.1517,0.0625,0.0357,-0.0803,-0.1961,-0.285,-0.3561,-0.4628,-0.6498,-0.7566,-0.836,-0.8973,-0.9061,-0.9284,-1.0023,-1.0197,-1.0391,-1.0889,-1.1101,-1.1472,-1.2083,-1.1864,-1.1755,-1.1755,-1.215,-1.2635,-1.3318,-1.3318,-1.3613,-1.4298,-1.4298,-1.4298,-1.4298,-1.4298,-1.4298,0.0,-1.4298,-1.4298,-1.4298,-1.4298,-1.4298,-1.4202,-1.3516,-1.3318,-1.3216,-1.2635,-1.2344,-1.2344,-1.2344,-1.213,-1.1957,-1.2428,-1.2335,-1.2031,-1.2172,-1.2276,-1.2538,-1.3119,-1.3318,-1.3511,-1.41,-1.4298,-1.4298,-1.4298,-1.4298,-1.4298,-1.4298,-1.3806,-1.3516,-1.4196,-1.3709,-1.3511,-1.4202,-1.4298,-1.4298,-1.4298,-1.4298,-1.4298,-1.4298,-1.4298,-1.4004,-1.3318,-1.3908,-1.4298,-1.4298,-1.4298,-1.4298,-1.4298,-1.4298,-1.4298,-1.4298,-1.4298,-1.4346,-1.4455,-1.4733,-1.5199,-1.5763,-1.5931,-1.6477,0.0,1.4144,1.3964,1.3098,1.2541,1.2135,1.186,0.8249,0.0,0.3383,0.2408,0.1697,0.1163,-0.0179,-0.1339,-0.1606,-0.3213,-0.473,-0.5692,-0.5957,-0.6659,-0.8416,-0.9387,-0.9923,-1.0009,-1.0009,-1.0009,-1.0096,-1.0284,-1.0756,-1.1739,-1.1876,-1.2467,-1.3393,-1.3019,-1.2785,-1.2802,-1.38,-1.4298,-1.4298,-1.4298,-1.4298,-1.4298,-1.4298,-1.4298,-1.4298,-1.4298,-1.4298,-1.4298,-1.4298,-1.4298,-1.4202,-1.4202,-1.4202,-1.4202,-1.4202,-1.4202,-1.4202,-1.4202,-1.4202,-1.4196,-1.416,-1.39,-1.3435,-1.3175,-1.3447,-1.3857,-1.3894,-1.4081,-1.4274,-1.4292,-1.4298,-1.4298,-1.4298,-1.4298,-1.4298,-1.4298,-1.4298,-1.4298,-1.4298,-1.4298,-1.4298,-1.4298,-1.4298,-1.4298,-1.4298,-1.4298,-1.4298,-1.4298,-1.4298,-1.4298,-1.4298,-1.4298,-1.4298,-1.4298,-1.4298,-1.4298,-1.4298,-1.4298,-1.4298,-1.4298,-1.4298,-1.4298,-1.4298,-1.4316,-1.4473,-1.4775,-1.5117,-1.5775,-1.6859,-1.6859,-1.7522,0.9231,0.0,0.9986,1.0289,0.9524,0.8201,0.0,0.0,0.0,0.0,0.0,-0.0806,-0.1701,-0.2238,-0.2684,-0.3484,-0.4645,-0.5711,-0.6665,-0.7983,-0.9039,-0.9479,-0.9744,-1.0183,-1.0885,-1.0971,-1.1235,-1.2009,-1.2066,-1.2187,-1.2451,-1.2704,-1.2945,-1.3218,-1.3253,-1.3414,-1.3614,-1.41,-1.4298,-1.4298,-1.4298,-1.4298,-1.4298,-1.4298,-1.4298,-1.4298,-1.4298,-1.4298,-1.4298,-1.4298,-1.401,-1.3732,-1.3732,-1.3437,-1.3147,-1.3147,-1.3147,-1.3244,-1.3539,-1.3437,-1.3177,-1.3077,-1.3115,-1.3163,-1.2886,-1.3043,-1.3393,-1.3791,-1.3954,-1.4045,-1.4244,-1.4298,-1.4298,-1.4298,-1.4298,-1.4298,-1.4298,-1.4298,-1.4298,-1.4298,-1.4298,-1.4298,-1.4298,-1.4298,-1.4298,-1.4298,-1.4298,-1.4298,-1.4298,-1.4298,-1.4298,-1.4298,-1.4298,-1.4298,-1.4298,-1.4298,-1.4298,-1.4298,-1.4298,-1.4298,-1.4298,-1.4298,-1.4298,-1.4298,-1.4509,-1.4847,-1.5318,-1.6087,-1.6672,-1.7154,-1.7789,-1.8561,0.7701,0.7871,0.804,0.7797,0.7272,0.6287,0.4748,0.0,0.0,0.0,0.0,-0.2419,-0.3401,-0.4285,-0.4819,-0.4914,-0.6413,-0.7994,-0.8865,-1.026,-1.1139,-1.1139,-1.1139,-1.1402,-1.1929,-1.1929,-1.2186,-1.2619,-1.296,-1.313,-1.313,-1.3623,-1.3793,-1.3793,-1.4063,-1.4257,-1.4178,-1.4322,-1.4577,-1.4849,-1.4849,-1.467,-1.4403,-1.4528,-1.4395,-1.4123,-1.4244,-1.4298,-1.4298,-1.401,-1.3727,-1.3443,-1.3249,-1.3055,-1.2764,-1.2764,-1.2764,-1.2845,-1.2918,-1.2903,-1.2847,-1.2831,-1.2969,-1.3073,-1.2789,-1.2813,-1.3043,-1.358,-1.3815,-1.3966,-1.4226,-1.4298,-1.4298,-1.4298,-1.4298,-1.4298,-1.4298,-1.4298,-1.4298,-1.4298,-1.4298,-1.4298,-1.4298,-1.4298,-1.4298,-1.4298,-1.4298,-1.4298,-1.4298,-1.4298,-1.4298,-1.4298,-1.4298,-1.4298,-1.4298,-1.4298,-1.4298,-1.4298,-1.4298,-1.4298,-1.4298,-1.458,-1.4827,-1.4952,-1.5463,-1.5815,-1.611,-1.7067,-1.7832,-1.8408,-1.884,-1.9465,0.7354,0.6713,0.608,0.5754,0.5679,0.5412,0.4499,0.0,0.0,0.0,0.0,0.0,-0.4552,-0.586,-0.6728,-0.6304,-0.8396,-1.0408,-1.1311,-1.218,-1.2705,-1.2705,-1.2705,-1.2705,-1.2875,-1.2875,-1.2875,-1.296,-1.3561,-1.3815,-1.3815,-1.4398,-1.4734,-1.4734,-1.49,-1.4897,-1.4708,-1.4622,-1.493,-1.5466,-1.5466,-1.5109,-1.4495,-1.4741,-1.4482,-1.3857,-1.3986,0.0,-1.3987,-1.3515,-1.3233,-1.3137,-1.2748,-1.2555,-1.2459,-1.2459,-1.2459,-1.2427,-1.222,-1.2374,-1.2688,-1.275,-1.2827,-1.2925,-1.2685,-1.2619,-1.2819,-1.3363,-1.3676,-1.3906,-1.4171,-1.4268,-1.4298,-1.4298,-1.4298,-1.4298,-1.4298,-1.4298,-1.4298,-1.4298,-1.4298,-1.4298,-1.4298,-1.4298,-1.4298,-1.4298,-1.4298,-1.4298,-1.4298,-1.4298,-1.4298,-1.4298,-1.4388,-1.4394,-1.4298,-1.4388,-1.4394,-1.4298,-1.4394,-1.4502,-1.4731,-1.5306,-1.5846,-1.6176,-1.6671,-1.6949,-1.7098,-1.8081,-1.8945,-1.968,-1.9783,-2.03,0.6037,0.2768,0.0445,0.4674,0.5684,0.4318,-0.0985,0.0,0.0,0.0,0.0,0.0,0.0,-0.6144,-0.6417,-0.8556,-0.9921,-1.109,-1.2043,-1.2437,-1.2705,-1.2705,-1.2705,-1.296,-1.3476,-1.3568,-1.3815,-1.4314,-1.4482,-1.4566,-1.4566,-1.465,-1.4734,-1.4734,-1.4783,-1.4993,-1.5548,-1.5385,-1.5377,-1.5466,-1.5466,-1.5109,-1.4488,-1.4533,-1.4198,-1.358,0.0,-1.2986,-1.2986,-1.2525,-1.2063,-1.1693,-1.16,-1.1321,-1.0949,-1.0949,-1.0949,-1.0944,-1.091,-1.1308,-1.1836,-1.1442,-1.1734,-1.2152,-1.2112,-1.2357,-1.2819,-1.3363,-1.3544,-1.3634,-1.39,-1.4129,-1.4298,-1.4298,-1.4298,-1.4298,-1.4298,-1.4298,-1.4298,-1.4298,-1.4298,-1.4298,-1.4298,-1.4298,-1.4298,-1.4298,-1.4298,-1.4298,-1.4298,-1.4298,-1.4298,-1.4298,-1.4867,-1.4962,-1.4394,-1.4867,-1.4962,-1.4298,-1.4867,-1.5639,-1.6649,-1.6753,-1.7114,-1.7684,-1.7789,-1.797,-1.8144,-1.9027,-1.9576,-1.968,-2.0403,-2.0814,0.2597,0.0089,-0.259,-0.2769,-0.1426,-0.0712,0.0,0.0,0.0,0.0,0.0,0.0,0.0,0.0,-0.9541,-1.146,-1.1989,-1.2361,-1.3014,-1.3457,-1.3802,-1.3802,-1.3802,-1.3893,-1.4237,-1.4237,-1.4398,-1.465,-1.5068,-1.5235,-1.5235,-1.5567,-1.5816,-1.5816,-1.5816,-1.5899,-1.6237,-1.6201,-1.6182,-1.6182,-1.6182,-1.5747,-1.4981,-1.4616,-1.3989,-1.3207,0.0,-1.2415,-1.2415,-1.1957,-1.1589,-1.1405,-1.1037,-1.0852,-1.0575,-1.0575,-1.0504,-1.05,-1.0773,-1.0895,-1.1144,-1.1412,-1.1766,-1.2015,-1.2272,-1.2534,-1.2789,-1.3188,-1.3405,-1.361,-1.4014,-1.4208,-1.4298,-1.4298,-1.4298,-1.4298,-1.4298,-1.4298,-1.4298,-1.4298,-1.4298,-1.4298,-1.4298,-1.4298,-1.4298,-1.4298,-1.4298,-1.4298,-1.4298,-1.4298,-1.4484,-1.4867,-1.5242,-1.5146,-1.4573,-1.486,-1.4956,-1.4783,-1.521,-1.6022,-1.7209,-1.7344,-1.7652,-1.8354,-1.873,-1.9,-1.9049,-1.9983,-2.03,-2.0403,-2.0712,-2.0925,-0.1785,-0.3124,-0.5458,-0.9097,-0.7801,0.0,0.0,0.0,0.0,0.0,0.0,0.0,0.0,-1.1029,-1.2331,-1.322,-1.3309,-1.3494,-1.3848,-1.4331,-1.4545,-1.4545,-1.4608,-1.4734,-1.4901,-1.4901,-1.4985,-1.5151,-1.565,-1.5899,-1.5899,-1.6402,-1.673,-1.673,-1.673,-1.673,-1.673,-1.673,-1.673,-1.673,-1.6648,-1.6229,-1.5401,-1.4617,-1.3777,-1.2925,-1.2154,-1.1786,-1.1695,-1.1247,-1.1066,-1.1066,-1.0611,-1.0428,-1.0428,-1.0428,-1.0329,-1.0286,-1.0642,-1.0612,-1.0549,-1.1327,-1.1671,-1.1929,-1.2272,-1.2534,-1.2777,-1.3121,-1.3357,-1.3622,-1.4087,-1.425,-1.4298,-1.4298,-1.4298,-1.4298,-1.4298,-1.4298,-1.4298,-1.4298,-1.4298,-1.4298,-1.4298,-1.4298,-1.4298,-1.4298,-1.4298,-1.4298,-1.4106,-1.4106,-1.4298,-1.4771,-1.4956,-1.4854,-1.4561,-1.443,-1.4479,-1.4787,-1.5272,-1.6124,-1.7421,-1.7902,-1.8397,-1.9095,-1.9545,-1.9783,-1.9887,-2.0514,-2.0822,-2.0822,-2.0917,-2.0925,-0.7272,-0.8332,-0.9569,-0.9939,-0.8814,0.0,-0.9134,-0.8849,0.0,-0.9566,0.0,0.0,0.0,-1.165,-1.2338,-1.2344,-1.2896,-1.3621,-1.4535,-1.4438,-1.4225,-1.4225,-1.4476,-1.4901,-1.5567,-1.565,-1.5906,-1.6484,-1.6566,-1.6648,-1.6648,-1.6648,-1.673,-1.673,-1.673,-1.673,-1.673,-1.673,-1.673,-1.673,-1.6476,-1.6064,-1.5394,-1.423,-1.3404,-1.2643,-1.1283,-1.0686,-1.0686,-1.0256,-1.0086,-1.0086,-1.0086,-1.0086,-1.0086,-1.0086,-1.0071,-1.0062,-1.0062,-1.0052,-1.0038,-1.0125,-1.0727,-1.1322,-1.1408,-1.2015,-1.2813,-1.3338,-1.3501,-1.358,-1.3857,-1.4117,-1.4298,-1.4298,-1.4298,-1.4298,-1.4298,-1.4298,-1.4298,-1.4298,-1.4298,-1.4298,-1.4298,-1.4298,-1.4298,-1.4298,-1.4298,-1.4106,-1.363,-1.3539,-1.3443,-1.305,-1.3607,-1.3974,-1.3968,-1.3526,-1.3375,-1.3876,-1.5151,-1.6473,-1.7834,-1.8853,-1.975,-2.0372,-2.0181,-2.0189,-2.0411,-2.0522,-2.0522,-2.0514,-2.0822,-2.0925,-0.7687,-0.8212,-0.8711,-0.9039,-0.8332,0.0,0.0,-0.942,-0.9391,-0.979,-0.993,0.0,0.0,0.0,-1.3705,-1.3233,-1.4091,-1.4758,-1.4724,-1.493,-1.5162,-1.5162,-1.5276,-1.5522,-1.5978,-1.6002,-1.6168,-1.6632,-1.673,-1.673,-1.673,-1.673,-1.673,-1.673,-1.673,-1.6648,-1.6476,-1.6476,-1.6484,-1.6335,-1.6492,-1.6319,-1.5741,-1.421,-1.319,-1.2601,-1.0982,-1.0207,-1.0207,-1.0038,-1.0038,-1.0038,-1.0038,-1.0038,-1.0038,-1.0038,-1.0038,-1.0038,-1.0038,-1.0038,-1.0038,-1.0294,-1.0636,-1.0895,-1.1241,-1.1585,-1.1944,-1.2451,-1.2592,-1.2779,-1.3844,-1.422,-1.4298,-1.4298,-1.4298,-1.4298,-1.4298,-1.4298,-1.4298,-1.4298,-1.4298,-1.4298,-1.4298,-1.4298,-1.4298,-1.4298,-1.4016,-1.3727,-1.3539,-1.3249,-1.3141,-1.3414,-1.3409,-1.3465,-1.3613,-1.2647,-1.2329,-1.2708,-1.4253,-1.5763,-1.7319,-1.8135,-1.9029,-1.999,-2.0086,-2.0189,-2.0292,-2.0292,-2.0292,-2.03,-2.0514,-2.0514,-0.8101,-0.8233,-0.8513,-0.9155,0.0,0.0,-0.9945,-0.9932,-0.9958,-1.0606,-1.0813,-1.1182,-1.251,0.0,0.0,-1.383,-1.4661,-1.5197,-1.4736,-1.514,-1.5523,-1.5523,-1.5618,-1.5777,-1.6015,-1.6142,-1.6309,-1.6547,-1.6675,-1.673,-1.673,-1.6648,-1.6648,-1.6648,-1.6566,-1.6409,-1.6319,-1.6319,-1.6245,-1.6087,-1.6409,-1.6327,-1.5914,-1.4294,-1.336,-1.3021,-1.1235,-1.0381,-1.0381,-1.0125,-1.0038,-1.0038,-1.0038,-1.0038,-1.0038,-1.0038,-1.0038,-1.0038,-1.0038,-1.0038,-1.0038,-1.0294,-1.0463,-1.0636,-1.0982,-1.1207,-1.1526,-1.193,-1.2097,-1.2434,-1.3515,-1.3817,-1.3817,-1.3817,-1.3817,-1.3817,-1.3817,-1.3817,-1.3817,-1.3817,-1.3817,-1.3817,-1.3817,-1.3817,-1.3817,-1.3817,-1.3534,-1.3249,-1.305,-1.2764,-1.2657,-1.3017,-1.2732,-1.2536,-1.2767,-1.2067,-1.1765,-1.212,-1.3249,-1.4545,-1.6125,-1.6931,-1.7877,-1.9153,-1.925,-1.9561,-1.9983,-1.9983,-1.9983,-1.9983,-2.03,-2.03,-0.889,-0.9275,-0.9808,0.0,0.0,0.0,-1.1885,-1.0756,-1.0201,-1.2387,-1.2557,-1.2573,-1.3189,-1.3103,0.0,-1.3688,-1.4274,-1.4569,-1.4569,-1.4951,-1.5181,-1.5181,-1.5467,-1.5666,-1.5674,-1.5991,-1.6198,-1.6206,-1.6532,-1.673,-1.673,-1.6476,-1.6394,-1.6394,-1.6162,-1.6087,-1.6087,-1.6087,-1.6087,-1.6087,-1.6087,-1.5997,-1.565,-1.4559,-1.4139,-1.3971,-1.2095,-1.1327,-1.1235,-1.0381,-1.0038,-1.0038,-1.0038,-1.0038,-1.0038,-1.0038,-1.0038,-1.0038,-1.0038,-1.0038,-1.0038,-1.0038,-1.0294,-1.0549,-1.0549,-1.1061,-1.1652,-1.1882,-1.2221,-1.2468,-1.27,-1.2759,-1.2764,-1.2764,-1.2764,-1.2764,-1.2764,-1.2764,-1.2764,-1.2764,-1.2764,-1.2764,-1.2764,-1.2764,-1.2764,-1.2764,-1.2764,-1.2565,-1.2073,-1.198,-1.178,-1.1296,-1.1198,-1.1288,-1.1505,-1.1704,-1.1912,-1.2129,-1.2328,-1.298,-1.4164,-1.5334,-1.6499,-1.7989,-1.7681,-1.8318,-1.968,-1.968,-1.968,-1.968,-1.9983,-2.0078,-0.9303,-0.9824,0.0,-1.0509,0.0,0.0,0.0,-1.1708,0.0,0.0,-1.2858,-1.3314,-1.3026,-1.3616,0.0,-1.3833,-1.4274,-1.4569,-1.4569,-1.4736,-1.48,-1.48,-1.4887,-1.5046,-1.5308,-1.5634,-1.5936,-1.619,-1.6532,-1.673,-1.673,-1.6476,-1.6394,-1.6394,-1.6162,-1.5997,-1.5824,-1.5824,-1.5748,-1.5597,-1.5597,-1.5665,-1.565,-1.4734,-1.388,-1.3021,-1.1832,-1.0982,-1.0381,-1.0125,-1.0038,-1.0038,-1.0038,-1.0038,-1.0038,-1.0038,-1.0038,-1.0038,-1.0038,-1.0038,-1.0038,-1.0038,-1.0125,-1.0207,-1.0207,-1.045,-1.076,-1.0973,-1.1194,-1.1421,-1.1628,-1.1683,-1.1878,-1.2662,-1.2764,-1.2764,-1.2764,-1.2764,-1.2764,-1.2764,-1.2764,-1.2764,-1.2764,-1.2764,-1.2764,-1.2764,-1.2467,-1.2078,-1.1487,-1.1487,-1.1394,-1.1198,-1.1331,-1.1505,-1.1709,-1.1921,-1.2134,-1.2337,-1.2408,-1.298,-1.4164,-1.4487,-1.5334,-1.6499,-1.7252,-1.7793,-1.8213,-1.9056,-1.9376,-1.948,-1.968,-1.968,-1.0435,-1.0724,0.0,-1.1379,-1.1789,-1.2267,-1.276,0.0,0.0,0.0,-1.3317,-1.376,-1.3622,-1.3985,0.0,-1.4122,-1.4418,-1.4569,-1.4569,-1.4569,-1.4569,-1.4569,-1.4569,-1.4728,-1.4951,-1.5396,-1.5761,-1.5983,-1.6452,-1.6648,-1.6566,-1.6402,-1.6237,-1.6147,-1.5914,-1.5756,-1.5582,-1.5582,-1.5499,-1.5431,-1.5431,-1.5423,-1.5582,-1.5075,-1.4223,-1.319,-1.1832,-1.0809,-1.0038,-1.0038,-1.0038,-1.0038,-1.0038,-1.0038,-1.0038,-1.0038,-1.0038,-1.0038,-1.0038,-1.0038,-1.0038,-1.0038,-1.0038,-1.0038,-1.0038,-1.0159,-1.0419,-1.0537,-1.0787,-1.1042,-1.1161,-1.1194,-1.1389,-1.198,-1.2175,-1.2175,-1.2175,-1.2175,-1.2175,-1.2175,-1.2175,-1.2175,-1.2175,-1.2175,-1.2175,-1.2175,-1.1883,-1.159,-1.1194,-1.1194,-1.1194,-1.1194,-1.1387,-1.16,-1.1798,-1.2016,-1.2224,-1.2427,-1.2441,-1.2762,-1.3413,-1.3521,-1.4051,-1.5227,-1.5873,-1.6511,-1.6935,-1.8108,-1.8639,-1.8639,-1.9264,-1.948,-1.1908,-1.1883,0.0,-1.2761,-1.3149,0.0,-1.376,-1.3833,-1.3833,-1.3833,0.0,-1.4049,-1.4489,-1.4201,-1.4049,-1.4497,-1.4569,-1.4569,-1.4569,-1.4569,-1.4569,-1.4569,-1.4569,-1.4585,-1.4689,-1.5292,-1.569,-1.5721,-1.6349,-1.6566,-1.6394,-1.6162,-1.5914,-1.5733,-1.5499,-1.5431,-1.5431,-1.5431,-1.5431,-1.5431,-1.5431,-1.5431,-1.5431,-1.5431,-1.4915,-1.388,-1.2003,-1.0722,-1.0038,-1.0038,-1.0038,-1.0038,-1.0038,-1.0038,-1.0038,-1.0038,-1.0038,-1.0038,-1.0038,-1.0038,-1.0038,-1.0038,-1.0038,-1.0043,-1.0062,-1.0258,-1.0579,-1.0598,-1.0891,-1.1194,-1.1194,-1.1194,-1.1194,-1.1194,-1.1194,-1.1194,-1.1194,-1.1194,-1.1194,-1.1194,-1.1194,-1.1194,-1.1194,-1.1194,-1.1194,-1.1194,-1.1194,-1.1194,-1.1194,-1.1194,-1.1203,-1.1222,-1.1416,-1.1628,-1.1831,-1.2044,-1.2243,-1.2427,-1.2441,-1.2441,-1.2441,-1.2441,-1.2871,-1.4056,-1.4169,-1.4696,-1.5755,-1.6935,-1.7477,-1.7582,-1.8639,-1.9175,-1.1976,-1.229,0.0,0.0,-1.3732,-1.4274,-1.4281,-1.4346,-1.4274,-1.3905,-1.4122,-1.4489,-1.4569,-1.4497,-1.4497,-1.4569,-1.4569,-1.4569,-1.4569,-1.4569,-1.4569,-1.4569,-1.4569,-1.4752,-1.5038,-1.5435,-1.5793,-1.6071,-1.6322,-1.6476,-1.6394,-1.5989,-1.5741,-1.5733,-1.5499,-1.5431,-1.5431,-1.5431,-1.5431,-1.5431,-1.5431,-1.5431,-1.5431,-1.5431,-1.4482,-1.2936,-1.1063,-1.0212,-1.0038,-1.0038,-1.0038,-1.0038,-1.0038,-1.0038,-1.0038,-1.0038,-1.0038,-1.0038,-1.0038,-1.0038,-1.0038,-1.0038,-1.0038,-1.0071,-1.0154,-1.0376,-1.0608,-1.0778,-1.1005,-1.1194,-1.1194,-1.1194,-1.1194,-1.1194,-1.1194,-1.1194,-1.1194,-1.1194,-1.1194,-1.1194,-1.1194,-1.1194,-1.1194,-1.1194,-1.1194,-1.1194,-1.1194,-1.1194,-1.1194,-1.1194,-1.126,-1.143,-1.1628,-1.1841,-1.2054,-1.2257,-1.2394,-1.2436,-1.2441,-1.2441,-1.2441,-1.2441,-1.255,-1.2762,-1.3732,-1.4272,-1.4595,-1.5761,-1.6723,-1.7582,-1.7898,-1.8429,-1.3002,0.0,0.0,-1.3825,0.0,-1.4497,-1.4497,-1.4569,-1.4497,-1.4274,-1.4418,-1.4569,-1.4569,-1.4569,-1.4569,-1.4569,-1.4569,-1.4569,-1.4569,-1.4569,-1.4713,-1.5133,-1.4848,-1.4921,-1.5651,-1.5635,-1.5685,-1.6031,-1.6215,-1.6237,-1.6064,-1.5816,-1.5658,-1.5582,-1.5423,-1.5431,-1.5431,-1.5431,-1.5431,-1.5431,-1.5431,-1.5431,-1.5347,-1.4482,-1.362,-1.2589,-1.0804,-1.0038,-1.0038,-1.0038,-1.0038,-1.0038,-1.0038,-1.0038,-1.0038,-1.0038,-1.0038,-1.0038,-1.0038,-1.0038,-1.0038,-1.0038,-1.0038,-1.0081,-1.0211,-1.0414,-1.0617,-1.0834,-1.1042,-1.1194,-1.1194,-1.1194,-1.1194,-1.1194,-1.1194,-1.1194,-1.1194,-1.1194,-1.1194,-1.1194,-1.1194,-1.1194,-1.1194,-1.1194,-1.1194,-1.1194,-1.1194,-1.1194,-1.1194,-1.1194,-1.1279,-1.1496,-1.1699,-1.1902,-1.2124,-1.2323,-1.2441,-1.2441,-1.2441,-1.2441,-1.2441,-1.2441,-1.2441,-1.2441,-1.298,-1.3305,-1.3305,-1.4482,-1.5339,-1.598,-1.7047,-1.7898,-1.4313,0.0,-1.4425,-1.4569,-1.4497,0.0,-1.4569,-1.4569,-1.4569,-1.4569,-1.4569,-1.4641,-1.4776,-1.4784,-1.4848,-1.4991,-1.4919,-1.4784,-1.4784,-1.4713,-1.4856,-1.548,-1.5048,-1.509,-1.6102,-1.5799,-1.5631,-1.5966,-1.6009,-1.5914,-1.5733,-1.565,-1.5582,-1.5431,-1.5431,-1.5431,-1.5431,-1.5431,-1.5431,-1.5431,-1.5257,-1.5082,-1.4915,-1.3197,-1.2589,-1.2589,-1.0804,-1.0038,-1.0038,-1.0038,-1.0038,-1.0038,-1.0038,-1.0038,-1.0038,-1.0038,-1.0038,-1.0038,-1.0038,-1.0038,-1.0038,-1.0038,-1.0038,-1.0081,-1.0211,-1.0414,-1.0617,-1.0834,-1.1042,-1.1194,-1.1194,-1.1194,-1.1194,-1.1194,-1.1194,-1.1194,-1.1194,-1.1194,-1.1194,-1.1194,-1.1194,-1.1194,-1.1194,-1.1194,-1.1194,-1.1194,-1.1194,-1.1194,-1.1194,-1.1194,-1.1293,-1.1543,-1.1718,-1.1921,-1.2172,-1.2342,-1.2441,-1.2441,-1.2441,-1.2441,-1.2441,-1.2441,-1.2441,-1.2441,-1.2441,-1.2441,-1.2441,-1.3413,-1.3954,-1.4277,-1.6086,-1.7153,-1.513,0.0,-1.4569,0.0,-1.4569,-1.4569,0.0,0.0,-1.4569,0.0,-1.4569,-1.4776,-1.548,-1.5621,-1.5833,-1.6524,-1.6035,-1.5621,-1.5621,-1.5062,-1.4641,-1.4784,-1.4992,-1.5319,-1.5731,-1.5787,-1.5981,-1.6308,-1.5959,-1.5733,-1.5733,-1.5499,-1.5423,-1.5431,-1.5431,-1.5431,-1.5431,-1.5431,-1.5431,-1.5431,-1.4657,-1.388,-1.3021,-1.2003,-1.1912,-1.2589,-1.0804,-1.0038,-1.0038,-1.0038,-1.0038,-1.0038,-1.0038,-1.0038,-1.0038,-1.0038,-1.0038,-1.0038,-1.0038,-1.0038,-1.0038,-1.0038,-1.0038,-1.0081,-1.0211,-1.0414,-1.0617,-1.0834,-1.1042,-1.1194,-1.1194,-1.1194,-1.1194,-1.1194,-1.1194,-1.1194,-1.1194,-1.1194,-1.1194,-1.1194,-1.1194,-1.1194,-1.1194,-1.1194,-1.1194,-1.1194,-1.1194,-1.1194,-1.1194,-1.1194,-1.1345,-1.1737,-1.1803,-1.1978,-1.2365,-1.2422,-1.2441,-1.2441,-1.2441,-1.2441,-1.2441,-1.2441,-1.2441,-1.2441,-1.2441,-1.2441,-1.2441,-1.255,-1.3197,-1.4169,-1.4487,-1.5232,-1.5276,-1.4773,-1.4346,0.0,-1.4425,-1.4346,-1.4346,-1.4425,-1.4641,-1.5054,-1.5196,-1.5409,-1.5762,-1.6105,-1.6524,-1.6862,-1.6245,-1.5833,-1.5833,-1.5133,-1.4856,-1.5485,-1.5373,-1.5538,-1.6378,-1.6039,-1.5802,-1.5959,-1.5741,-1.5499,-1.5499,-1.5423,-1.5431,-1.5431,-1.5431,-1.5431,-1.5431,-1.4915,-1.4398,-1.388,-1.3535,-1.3105,-1.2674,-1.158,-1.1408,-1.1826,-1.0549,-1.0038,-0.9951,-0.9864,-0.9777,-0.9777,-0.9694,-0.9607,-0.9607,-0.9689,-0.9777,-0.9777,-0.9951,-1.0038,-1.0038,-1.0038,-1.0038,-1.0081,-1.0211,-1.0414,-1.0617,-1.0834,-1.1042,-1.1194,-1.1194,-1.1194,-1.1194,-1.1194,-1.1194,-1.1194,-1.1194,-1.1194,-1.1194,-1.1194,-1.1096,-1.1002,-1.1002,-1.0806,-1.0801,-1.0998,-1.1002,-1.0998,-1.1194,-1.1194,-1.1354,-1.1775,-1.1817,-1.1987,-1.2403,-1.2441,-1.2441,-1.2441,-1.2441,-1.2441,-1.2441,-1.2871,-1.3083,-1.3083,-1.2654,-1.2441,-1.2441,-1.2441,-1.2654,-1.2975,-1.3624,-1.4153,0.0,0.0,-1.4274,-1.4425,-1.4281,-1.4201,0.0,0.0,-1.4776,0.0,-1.5895,-1.6324,-1.6385,-1.6793,-1.7207,-1.7207,-1.6594,-1.6035,-1.5833,-1.5215,-1.509,-1.5945,-1.5699,-1.5795,-1.6624,-1.6133,-1.5723,-1.5718,-1.5499,-1.5431,-1.5431,-1.5431,-1.5431,-1.5431,-1.5431,-1.5431,-1.5431,-1.4573,-1.3542,-1.2339,-1.2339,-1.2248,-1.1997,-1.1149,-1.0809,-1.0809,-1.0207,-0.9864,-0.9864,-0.9777,-0.9689,-0.9602,-0.9432,-0.9345,-0.9345,-0.9519,-0.9519,-0.9519,-0.9781,-0.9864,-0.9864,-0.9864,-0.9951,-1.0067,-1.0145,-1.0371,-1.0608,-1.0768,-1.1,-1.1194,-1.1194,-1.1194,-1.1194,-1.1194,-1.1194,-1.1194,-1.1194,-1.1194,-1.1198,-1.1096,-1.0904,-1.0806,-1.0703,-1.0511,-1.0511,-1.0703,-1.0708,-1.0806,-1.0998,-1.0998,-1.1155,-1.1564,-1.161,-1.1777,-1.2186,-1.2223,-1.2223,-1.2223,-1.2223,-1.2223,-1.2223,-1.2866,-1.3295,-1.3619,-1.2975,-1.2649,-1.2649,-1.2649,-1.2327,-1.1896,-1.2758,-1.3078,0.0,-1.4919,0.0,-1.4569,-1.4497,-1.4361,0.0,0.0,-1.5196,-1.5463,-1.6655,-1.7628,-1.7833,-1.7901,-1.7969,-1.7969,-1.7345,-1.6585,-1.5903,-1.5437,-1.5165,-1.5255,-1.5753,-1.6095,-1.5983,-1.6044,-1.5982,-1.5733,-1.5499,-1.5431,-1.5431,-1.5431,-1.5431,-1.5431,-1.5431,-1.5431,-1.5431,-1.4573,-1.3197,-1.1408,-1.1408,-1.0982,-1.012,-1.0125,-0.9951,-0.9689,-0.9602,-0.9602,-0.9602,-0.9864,-0.9864,-0.9602,-0.9602,-0.9602,-0.9602,-0.9345,-0.9345,-0.9345,-0.9345,-0.9432,-0.9602,-0.9602,-0.9777,-1.0043,-1.0052,-1.0253,-1.0575,-1.0584,-1.0882,-1.1194,-1.1194,-1.1194,-1.1194,-1.1194,-1.1194,-1.1194,-1.1194,-1.1194,-1.1096,-1.09,-1.0806,-1.0703,-1.0507,-1.0413,-1.0413,-1.0413,-1.0408,-1.0413,-1.0413,-1.0413,-1.0558,-1.1052,-1.0988,-1.1252,-1.1647,-1.1678,-1.1678,-1.1678,-1.1678,-1.1678,-1.1678,-1.1678,-1.2214,-1.329,-1.329,-1.3295,-1.3295,-1.3295,-1.2644,-1.1568,-1.1678,-1.1678,0.0,0.0,0.0,-1.5877,-1.5745,-1.5613,-1.5613,-1.5745,-1.6026,-1.6645,-1.7148,-1.7647,-1.8192,-1.8529,-1.8721,-1.8721,-1.7687,-1.6793,-1.6515,-1.5735,-1.5268,-1.5475,-1.5772,-1.5989,-1.6052,-1.5928,-1.5748,-1.5499,-1.5423,-1.5431,-1.5431,-1.5431,-1.5431,-1.5431,-1.5431,-1.4824,-1.3704,-1.3366,-1.2254,-1.0467,-1.0467,-1.0294,-0.9951,-0.9864,-0.9777,-0.9864,-0.9519,-0.9432,-0.9432,-0.9345,-0.9257,-0.917,-0.8999,-0.8999,-0.917,-0.9087,-0.9174,-0.9262,-0.9262,-0.9345,-0.9432,-0.9515,-0.9689,-0.9777,-0.9951,-1.0154,-1.0409,-1.0537,-1.0783,-1.1033,-1.1161,-1.1194,-1.1194,-1.1194,-1.1194,-1.1194,-1.1194,-1.1096,-1.09,-1.0609,-1.0413,-1.0216,-1.0117,-1.0019,-0.992,-1.0117,-1.0117,-1.0216,-1.0413,-1.0413,-1.0514,-1.0782,-1.0918,-1.1098,-1.1366,-1.1498,-1.1568,-1.1568,-1.1568,-1.1568,-1.1568,-1.2861,-1.3717,-1.4148,-1.5435,-1.5547,-1.4369,-1.4369,-1.404,-1.3501,-1.3501,-1.3393,-1.7195,0.0,0.0,0.0,-1.6576,-1.6367,-1.6367,-1.6507,-1.6862,-1.7413,-1.7706,-1.7998,-1.8539,-1.8808,-1.8931,-1.8664,-1.7833,-1.7207,-1.6932,-1.6488,-1.6246,-1.648,-1.6488,-1.6476,-1.6542,-1.5982,-1.5658,-1.5431,-1.5431,-1.5431,-1.5431,-1.5431,-1.5431,-1.5431,-1.5431,-1.4566,-1.276,-1.2674,-1.1826,-1.0038,-1.0038,-1.0038,-0.9951,-0.9777,-0.9777,-0.9864,-0.9432,-0.9262,-0.9257,-0.9087,-0.8999,-0.8911,-0.874,-0.874,-0.8911,-0.8828,-0.8915,-0.9087,-0.9174,-0.9174,-0.917,-0.9432,-0.9515,-0.9515,-0.9777,-0.9921,-1.0116,-1.0433,-1.0585,-1.0829,-1.1061,-1.1146,-1.1194,-1.1194,-1.1194,-1.1198,-1.1096,-1.09,-1.0703,-1.0413,-1.0216,-0.992,-0.992,-0.9727,-0.9628,-0.9821,-0.9821,-0.992,-1.0117,-1.0117,-1.019,-1.0382,-1.0566,-1.0758,-1.0954,-1.1133,-1.135,-1.135,-1.135,-1.1455,-1.1887,-1.3176,-1.425,-1.5001,-1.6399,-1.6617,-1.5867,-1.5541,-1.5007,-1.4465,-1.4465,-1.4572,0.0,0.0,0.0,0.0,0.0,0.0,-1.6697,0.0,-1.7482,-1.7706,-1.8327,-1.8808,-1.8808,-1.8808,-1.8539,-1.7842,-1.7901,-1.7755,-1.7001,-1.7568,-1.8082,-1.8082,-1.7865,-1.761,-1.7342,-1.6378,-1.5658,-1.5431,-1.5431,-1.5431,-1.5431,-1.5431,-1.5431,-1.5431,-1.5431,-1.4566,-1.276,-1.2674,-1.1826,-1.0038,-1.0038,-1.0038,-1.0038,-1.0038,-0.9864,-0.9602,-0.9432,-0.9349,-0.9262,-0.9257,-0.9087,-0.8911,-0.8911,-0.8911,-0.8911,-0.8656,-0.8568,-0.8656,-0.8823,-0.8911,-0.8911,-0.9174,-0.9262,-0.9349,-0.9515,-0.9557,-0.9714,-1.0178,-1.038,-1.0596,-1.0796,-1.1047,-1.1194,-1.1194,-1.1194,-1.1096,-1.09,-1.0806,-1.0703,-1.0413,-1.0216,-0.992,-0.9628,-0.9628,-0.9628,-0.9628,-0.9628,-0.9628,-0.9628,-0.9628,-0.9693,-0.986,-1.0042,-1.0229,-1.0412,-1.0586,-1.0684,-1.0692,-1.0692,-1.1232,-1.2304,-1.2413,-1.3491,-1.5861,-1.5968,-1.6505,-1.7582,-1.6505,-1.5322,-1.4239,-1.4239,-1.4781,-1.8519,0.0,0.0,0.0,0.0,0.0,-1.8442,0.0,-1.8462,-1.8462,-1.8539,-1.8607,-1.8607,-1.8684,-1.8741,-1.8539,-1.8114,-1.7696,-1.7501,-1.7722,-1.7868,-1.771,-1.8091,-1.8006,-1.7196,-1.6772,-1.6288,0.0,-1.5431,-1.5431,-1.5431,-1.5431,-1.5431,-1.5431,-1.5431,-1.4566,-1.276,-1.2674,-1.1826,-1.0038,-1.0038,-1.0038,-1.0038,-1.0038,-0.9951,-0.9864,-0.9602,-0.9432,-0.9262,-0.8911,-0.874,-0.8652,-0.8652,-0.874,-0.8911,-0.8656,-0.8652,-0.8828,-0.874,-0.874,-0.8911,-0.8999,-0.9174,-0.9349,-0.9345,-0.9385,-0.9456,-0.9683,-0.9899,-1.0149,-1.0721,-1.1047,-1.1194,-1.1194,-1.1194,-1.1198,-1.1096,-1.0904,-1.0703,-1.0216,-0.9924,-0.9727,-0.9628,-0.9628,-0.9628,-0.9628,-0.9628,-0.9628,-0.9628,-0.9628,-0.9648,-0.9693,-0.9855,-1.0034,-1.0221,-1.0404,-1.0558,-1.0684,-1.0692,-1.1232,-1.2304,-1.3166,-1.4352,-1.5861,-1.6717,-1.7259,-1.7582,-1.7259,-1.6935,-1.6611,-1.6611,-1.6829,-1.9075,-1.9075,-1.9075,-1.9075,0.0,0.0,-1.9075,-1.9008,-1.8942,0.0,-1.8808,-1.8741,-1.8617,-1.8741,-1.8808,-1.8808,-1.8462,-1.8192,-1.8192,-1.8518,-1.8682,-1.8535,-1.847,-1.823,-1.7594,-1.678,-1.6057,-1.5423,-1.5431,-1.5431,-1.5431,-1.5431,-1.5431,-1.5431,-1.5431,-1.4566,-1.276,-1.2674,-1.1826,-1.0038,-1.0038,-1.0038,-1.0038,-1.0038,-1.0038,-0.9951,-0.9689,-0.9515,-0.9345,-0.8911,-0.8652,-0.8568,-0.8568,-0.8656,-0.874,-0.8656,-0.8656,-0.874,-0.874,-0.874,-0.8828,-0.8999,-0.8999,-0.9087,-0.9262,-0.9174,-0.9112,-0.9393,-0.966,-0.9908,-1.04,-1.0683,-1.0794,-1.0979,-1.0998,-1.1096,-1.1198,-1.09,-1.0507,-1.0216,-0.992,-0.9727,-0.9628,-0.9628,-0.9628,-0.9628,-0.9628,-0.9628,-0.9628,-0.9628,-0.9628,-0.9628,-0.9782,-0.9929,-1.0034,-1.0286,-1.0477,-1.0578,-1.108,-1.1878,-1.3063,-1.4245,-1.5429,-1.6611,-1.7259,-1.7582,-1.7582,-1.7582,-1.7582,-1.7582,-1.7582,-1.7582,-1.9075,-1.9075,-1.9075,-1.9075,-1.9075,0.0,-1.9075,-1.9075,-1.9075,0.0,-1.9075,-1.9075,-1.8875,-1.8808,-1.8808,-1.8808,-1.8808,-1.8808,-1.8808,-1.9583,-2.0011,-1.9805,-1.9019,-1.8381,-1.8141,-1.6624,-1.559,-1.5431,-1.5431,-1.5431,-1.5431,-1.5431,-1.5431,-1.5431,-1.5347,-1.4398,-1.276,-1.2589,-1.1655,-1.0038,-1.0038,-1.0038,-1.0038,-1.0038,-1.0038,-0.9951,-0.9777,-0.9602,-0.9602,-0.917,-0.8823,-0.8656,-0.8568,-0.8568,-0.8568,-0.8568,-0.8568,-0.8656,-0.8828,-0.874,-0.874,-0.9087,-0.8999,-0.8744,-0.9087,-0.8915,-0.8652,-0.9174,-0.9393,-0.9618,-0.996,-1.0079,-1.0254,-1.0626,-1.0783,-1.09,-1.1096,-1.0801,-1.0511,-1.0413,-1.0216,-0.992,-0.9628,-0.9628,-0.9628,-0.9628,-0.9628,-0.9628,-0.9628,-0.9628,-0.9628,-0.9628,-0.9766,-0.9864,-0.9884,-1.0184,-1.0391,-1.0642,-1.1751,-1.293,-1.4245,-1.5322,-1.6399,-1.7582,-1.7582,-1.7582,-1.7582,-1.7582,-1.7582,-1.7582,-1.7582,-1.7582,-1.9075,-1.9075,-1.9075,-1.9075,-1.9075,0.0,-1.9075,-1.9075,-1.9075,-1.9075,-1.9075,-1.9075,-1.9065,-1.9075,-1.9075,-1.9075,-1.9075,-1.9008,-1.8808,-1.9583,-1.9775,-1.8966,-1.9411,-1.9116,-1.7432,-1.7025,-1.646,-1.5506,-1.5431,-1.5431,-1.5431,-1.5431,-1.5431,-1.5431,-1.4741,-1.3795,-1.2674,-1.1918,-1.1063,-1.0038,-1.0038,-1.0038,-1.0038,-1.0038,-1.0038,-1.0038,-0.9951,-0.9777,-0.9602,-0.9515,-0.9257,-0.8823,-0.8652,-0.8568,-0.8568,-0.8568,-0.8568,-0.8568,-0.8656,-0.874,-0.8828,-0.8911,-0.8911,-0.8823,-0.8911,-0.8828,-0.8652,-0.8911,-0.9131,-0.9375,-0.9631,-0.9881,-1.0123,-1.0258,-1.0489,-1.0806,-1.09,-1.0998,-1.0998,-1.0801,-1.0117,-0.9628,-0.9628,-0.9628,-0.9628,-0.9628,-0.9628,-0.9628,-0.9628,-0.9628,-0.9628,-0.9628,-0.9657,-0.9734,-0.9872,-0.9949,-1.053,-1.1787,-1.2051,-1.3204,-1.5423,-1.5749,-1.6399,-1.7582,-1.7582,-1.7582,-1.7582,-1.7582,-1.7582,-1.7582,-1.7582,-1.7582,-1.9341,-1.9528,-1.9781,-1.9781,-1.9649,0.0,0.0,-1.933,-1.9075,-1.9075,-1.9075,-1.9075,-1.9075,-1.9075,-1.9075,-1.9075,-1.9075,-1.9147,-1.925,-1.9796,-1.9929,-1.935,-1.9249,-1.8868,-1.7747,-1.6862,-1.6064,-1.5423,-1.5431,-1.5431,-1.5431,-1.5431,-1.5431,-1.5431,-1.4999,-1.4307,-1.3451,-1.251,-1.1574,-1.0636,-1.0212,-1.0038,-1.0038,-1.0038,-1.0038,-1.0038,-1.0038,-0.9951,-0.9777,-0.9689,-0.9432,-0.9257,-0.8911,-0.874,-0.874,-0.8656,-0.8568,-0.8568,-0.8568,-0.874,-0.8911,-0.9087,-0.9087,-0.9087,-0.9087,-0.8828,-0.8656,-0.874,-0.8802,-0.8978,-0.9337,-0.95,-0.9783,-1.017,-1.0486,-1.0687,-1.0783,-1.09,-1.09,-1.0511,-1.0216,-0.992,-0.9821,-0.9826,-0.9916,-1.0306,-1.04,-1.0596,-1.1082,-1.1179,-1.0984,-1.04,-1.04,-1.0439,-1.0531,-1.0632,-1.1175,-1.2515,-1.3357,-1.4367,-1.5551,-1.6324,-1.7041,-1.7582,-1.7582,-1.7582,-1.7582,-1.7582,-1.7582,-1.7582,-1.7582,-1.7582,-1.9922,-2.0302,-2.0613,-2.0602,-2.0484,-2.042,0.0,0.0,0.0,-1.9518,-1.9518,-1.9462,-1.933,0.0,-1.9264,-1.9142,-1.9075,0.0,0.0,-1.9949,0.0,-1.9925,-1.9056,-1.8381,-1.823,-1.655,-1.5514,-1.5431,-1.5431,-1.5423,-1.5431,-1.5431,-1.5431,-1.5431,-1.5257,-1.4741,-1.388,-1.2936,-1.1997,-1.1068,-1.0381,-1.0038,-1.0038,-1.0038,-1.0038,-1.0038,-1.0038,-1.0038,-0.9951,-0.9777,-0.9689,-0.9602,-0.9174,-0.8911,-0.8911,-0.874,-0.8652,-0.8652,-0.8652,-0.8828,-0.8999,-0.9257,-0.9345,-0.9349,-0.9262,-0.8999,-0.8652,-0.8568,-0.8568,-0.8689,-0.9003,-0.9062,-0.9349,-1.0037,-1.036,-1.0459,-1.0715,-1.0779,-1.0703,-1.0314,-1.0605,-1.0703,-1.0117,-1.0212,-1.0596,-1.1268,-1.1463,-1.195,-1.2635,-1.2829,-1.2436,-1.156,-1.1463,-1.1463,-1.156,-1.1628,-1.2243,-1.3386,-1.4665,-1.5439,-1.57,-1.6918,-1.7522,-1.7582,-1.7582,-1.7582,-1.7582,-1.7582,-1.7582,-1.7582,-1.7582,-1.7582,-2.1175,-2.1428,-2.1479,-2.1455,-2.1467,-2.1428,-2.1428,0.0,-2.1135,-2.1135,0.0,-2.0677,-2.0096,0.0,0.0,-1.9198,-1.9075,-1.9085,-1.9137,-1.9882,-2.0215,-1.9944,-1.9465,-1.8789,-1.7853,-1.673,-1.5846,-1.5431,-1.5582,-1.5575,-1.5431,-1.5431,-1.5431,-1.5431,-1.4657,-1.3795,-1.2845,-1.1918,-1.0982,-1.012,-1.0038,-1.0038,-1.0038,-1.0038,-1.0038,-1.0038,-1.0038,-1.0038,-1.0038,-0.9951,-0.9951,-0.9951,-0.9432,-0.9087,-0.8911,-0.8911,-0.8823,-0.8823,-0.8823,-0.8999,-0.9257,-0.9515,-0.9602,-0.9515,-0.9087,-0.8911,-0.8823,-0.8652,-0.8568,-0.8572,-0.8677,-0.8796,-0.8919,-0.9232,-0.9775,-1.0218,-1.0446,-1.0877,-1.11,-1.1096,-1.177,-1.1955,-1.031,-1.0984,-1.1755,-1.1853,-1.2619,-1.3199,-1.3119,-1.3022,-1.2926,-1.2538,-1.2538,-1.263,-1.2829,-1.2856,-1.3545,-1.5151,-1.5122,-1.5668,-1.6847,-1.7143,-1.7321,-1.7582,-1.7582,-1.7582,-1.7582,-1.7582,-1.7582,-1.7582,-1.7582,-1.7582,-2.1741,-2.1741,0.0,0.0,0.0,0.0,-2.2039,0.0,-2.1502,0.0,0.0,0.0,0.0,0.0,0.0,0.0,-1.9075,-1.9235,-1.9505,0.0,-2.035,-2.0182,-1.9496,0.0,-1.6714,-1.5997,-1.5597,-1.5431,-1.5506,-1.5506,-1.5431,-1.5431,-1.5431,-1.5431,-1.5082,-1.4657,-1.4307,-1.3372,-1.2431,-1.1569,-1.0977,-1.0467,-1.0038,-1.0038,-1.0038,-1.0038,-1.0038,-1.0038,-1.0038,-1.0038,-1.0038,-0.9951,-0.9777,-0.9515,-0.9257,-0.8999,-0.8999,-0.9087,-0.8911,-0.917,-0.9519,-0.9777,-0.9689,-0.9602,-0.9345,-0.9087,-0.8911,-0.8823,-0.874,-0.8828,-0.8999,-0.9143,-0.9402,-0.9791,-1.0035,-1.0315,-1.0464,-1.124,-1.1809,-1.1643,-1.2727,-1.3301,-1.2436,-1.2721,-1.3199,-1.359,-1.407,-1.4465,-1.486,-1.4867,-1.4573,-1.3709,-1.3613,-1.3703,-1.3986,-1.3986,-1.461,-1.6088,-1.6159,-1.6484,-1.7107,-1.7136,-1.7238,-1.7328,-1.7328,-1.7415,-1.7582,-1.7582,-1.7582,-1.7582,-1.7582,-1.7582,-2.2543,0.0,0.0,0.0,0.0,0.0,0.0,0.0,0.0,0.0,0.0,0.0,0.0,0.0,-2.0172,-1.9264,0.0,-1.9189,-1.9588,-2.0069,-2.0472,-2.0596,-1.9678,0.0,0.0,-1.5906,-1.5748,-1.5824,-1.5582,-1.5423,-1.5431,-1.5431,-1.5431,-1.5431,-1.5431,-1.5264,-1.5082,-1.4398,-1.362,-1.2674,-1.2003,-1.1235,-1.0381,-1.0381,-1.0207,-1.0038,-1.0038,-1.0038,-1.0038,-1.0038,-1.0038,-1.0038,-1.0038,-0.9864,-0.9689,-0.9257,-0.9174,-0.9262,-0.9087,-0.9257,-0.9602,-0.9951,-0.9864,-0.9689,-0.9602,-0.9345,-0.9082,-0.8911,-0.8911,-0.8911,-0.9174,-0.9257,-0.9556,-0.9972,-1.014,-1.0262,-1.0743,-1.1645,-1.2436,-1.24,-1.3634,-1.4651,-1.4453,-1.4453,-1.4644,-1.5134,-1.5419,-1.5812,-1.6312,-1.6312,-1.5927,-1.4968,-1.4777,-1.4873,-1.5051,-1.5242,-1.5717,-1.6683,-1.6894,-1.7057,-1.7076,-1.6997,-1.7041,-1.713,-1.713,-1.7174,-1.7462,-1.7462,-1.7502,-1.7582,-1.7582,-1.7582,0.0,0.0,0.0,-2.4054,0.0,0.0,0.0,0.0,-2.3832,0.0,0.0,0.0,0.0,-2.1439,-2.088,-1.9539,-1.9208,0.0,0.0,-1.9862,-2.0586,-2.1041,-2.0024,-1.8868,0.0,-1.6878,-1.6542,-1.6919,-1.6214,-1.5575,-1.5431,-1.5431,-1.5431,-1.5431,-1.5431,-1.4999,-1.4139,-1.4139,-1.362,-1.2674,-1.2674,-1.2169,-1.1235,-1.1235,-1.0809,-1.0038,-1.0038,-1.0038,-1.0038,-1.0038,-1.0038,-1.0038,-1.0038,-1.0038,-0.9951,-0.9689,-0.9432,-0.9262,-0.9257,-0.9432,-0.9602,-0.9951,-0.9951,-0.9951,-0.9689,-0.9602,-0.9515,-0.8999,-0.8911,-0.8911,-0.8911,-0.8911,-0.8999,-0.9524,-0.9766,-1.0182,-1.1332,-1.1962,-1.267,-1.3602,-1.4848,-1.5798,-1.5704,-1.5704,-1.5798,-1.5798,-1.656,-1.7145,-1.6979,-1.6784,-1.6494,-1.6123,-1.613,-1.613,-1.6123,-1.6595,-1.6979,-1.6979,-1.6994,-1.7035,-1.7043,-1.678,-1.6833,-1.7134,-1.6827,-1.6867,-1.7161,-1.7161,-1.7308,-1.7582,-1.7582,-1.7582,0.0,0.0,-2.3399,-2.3982,0.0,0.0,0.0,0.0,0.0,0.0,0.0,0.0,0.0,-2.1577,-2.0944,-1.9539,-1.9208,-1.9075,0.0,-1.9851,-2.038,-2.0312,-1.9571,-1.8621,-1.7602,-1.655,-1.6221,-1.6772,-1.5982,-1.5506,-1.5431,-1.5431,-1.5431,-1.5431,-1.5431,-1.5257,-1.4999,-1.4999,-1.4482,-1.3626,-1.3626,-1.3112,-1.2254,-1.2254,-1.2083,-1.174,-1.1149,-1.0895,-1.0895,-1.0895,-1.0554,-1.0038,-1.0636,-1.0554,-0.9951,-0.9689,-0.9689,-0.9777,-0.9519,-0.9515,-0.9602,-0.9689,-0.9864,-0.9951,-0.9864,-0.9607,-0.9345,-0.9174,-0.8999,-0.8911,-0.9087,-0.9257,-0.9432,-0.9777,-1.0353,-1.0963,-1.1457,-1.2773,-1.3994,-1.4628,-1.5722,-1.6608,-1.672,-1.6756,-1.6756,-1.6756,-1.7037,-1.7239,-1.7073,-1.6885,-1.6784,-1.6494,-1.6494,-1.6501,-1.6697,-1.7066,-1.7246,-1.7246,-1.7246,-1.7109,-1.7028,-1.6749,-1.6704,-1.6819,-1.6525,-1.656,-1.6854,-1.6854,-1.7408,-1.8409,-1.8409,-1.8522,-2.4054,-2.3662,0.0,-2.3982,-2.3662,0.0,-2.3982,0.0,-2.4112,0.0,0.0,0.0,0.0,0.0,-2.0985,-1.9539,-1.9208,-1.9127,0.0,-1.982,-2.0124,-1.9919,-1.9648,-1.9027,-1.8069,-1.7188,-1.678,-1.6772,-1.6221,-1.5748,-1.5431,-1.5431,-1.5431,-1.5431,-1.5431,-1.5431,-1.5431,-1.5431,-1.509,-1.4573,-1.4573,-1.4055,-1.319,-1.319,-1.3021,-1.2674,-1.2083,-1.1832,-1.1832,-1.1832,-1.1488,-1.1063,-1.1574,-1.1488,-1.089,-1.0033,-0.9777,-0.9864,-0.9602,-0.9519,-0.9519,-0.9602,-0.9689,-0.9864,-0.9951,-1.0038,-1.0038,-0.9951,-1.0033,-1.0115,-0.9946,-1.0038,-1.012,-1.0381,-1.0895,-1.1537,-1.2296,-1.3536,-1.469,-1.5342,-1.6237,-1.6916,-1.7121,-1.7252,-1.7326,-1.7326,-1.7326,-1.7239,-1.716,-1.7066,-1.6885,-1.6784,-1.6777,-1.6878,-1.7066,-1.7153,-1.7239,-1.7326,-1.7326,-1.7239,-1.7066,-1.6878,-1.6781,-1.68,-1.6505,-1.6454,-1.6659,-1.6659,-1.7392,-1.8584,-1.8977,-1.9491]},{"header":{"parameterUnit":"m.s-1","parameterCategory":1,"la1":30.6,"la2":29.2853,"lo1":-89.7004,"lo2":-87.6739,"dy":0.0162,"dx":0.0183,"nx":112,"ny":82,"refTime":"2023-03-27T18:00:00:Z","depth":0,"parameterNumber":3,"parameterNumberName":"V-component_of_WINDS"},"data":[0.0,0.0,0.0,0.0,0.0,0.0,0.0,0.0,0.0,0.0,0.0,0.0,0.0,0.0,0.0,0.0,0.0,0.0,0.0,0.0,0.0,0.0,0.0,0.0,0.0,0.0,0.0,0.0,0.0,0.0,0.0,0.0,0.0,0.0,0.0,0.0,0.0,0.0,0.0,0.0,0.0,0.0,0.0,0.0,0.0,0.0,0.0,0.0,0.0,0.0,0.0,0.0,0.0,0.0,0.0,0.0,0.0,0.0,0.0,0.0,0.0,0.0,0.0,0.0,0.0,0.0,0.0,0.0,0.0,0.0,0.0,0.0,0.0,0.0,0.0,0.0,0.0,0.0,0.0,0.0,0.0,0.0,0.0,0.0,0.0,0.0,0.0,0.0,0.0,0.0,-4.0339,-4.2114,-4.3509,-4.4106,-4.3698,-4.3974,-4.4023,-4.367,0.0,0.0,0.0,0.0,0.0,0.0,0.0,0.0,0.0,0.0,0.0,0.0,0.0,0.0,0.0,0.0,0.0,0.0,0.0,0.0,0.0,0.0,0.0,0.0,0.0,0.0,0.0,0.0,0.0,0.0,0.0,0.0,0.0,0.0,0.0,0.0,0.0,0.0,0.0,0.0,0.0,0.0,0.0,0.0,0.0,0.0,0.0,0.0,0.0,0.0,0.0,0.0,0.0,0.0,0.0,0.0,0.0,0.0,0.0,0.0,0.0,0.0,0.0,0.0,0.0,0.0,0.0,0.0,0.0,0.0,0.0,0.0,0.0,0.0,0.0,0.0,0.0,0.0,0.0,0.0,0.0,0.0,0.0,0.0,0.0,0.0,0.0,0.0,0.0,0.0,0.0,0.0,0.0,0.0,0.0,0.0,0.0,0.0,0.0,0.0,0.0,0.0,0.0,0.0,-4.1573,-4.348,-4.4491,-4.5001,-4.4938,-4.4973,-4.4943,-4.4781,0.0,0.0,0.0,0.0,0.0,0.0,0.0,0.0,0.0,0.0,0.0,0.0,0.0,0.0,0.0,0.0,0.0,0.0,0.0,0.0,0.0,0.0,0.0,0.0,0.0,0.0,0.0,0.0,0.0,0.0,0.0,0.0,0.0,0.0,0.0,0.0,0.0,0.0,0.0,0.0,0.0,0.0,0.0,0.0,0.0,0.0,0.0,0.0,0.0,0.0,0.0,0.0,0.0,0.0,0.0,0.0,0.0,0.0,0.0,0.0,0.0,0.0,0.0,0.0,0.0,0.0,0.0,0.0,0.0,0.0,0.0,0.0,0.0,0.0,0.0,0.0,0.0,0.0,0.0,0.0,0.0,0.0,0.0,0.0,0.0,0.0,0.0,0.0,0.0,0.0,0.0,0.0,0.0,0.0,0.0,0.0,0.0,0.0,0.0,0.0,0.0,0.0,0.0,-4.159,-4.2696,-4.4011,-4.4824,-4.5246,-4.5207,-4.5206,-4.5142,-4.5007,-4.4478,0.0,0.0,0.0,0.0,0.0,0.0,0.0,0.0,0.0,0.0,0.0,0.0,0.0,0.0,0.0,0.0,0.0,0.0,0.0,0.0,0.0,0.0,0.0,0.0,0.0,0.0,0.0,0.0,0.0,0.0,0.0,0.0,0.0,0.0,0.0,0.0,0.0,0.0,0.0,0.0,0.0,0.0,0.0,0.0,0.0,0.0,0.0,0.0,0.0,0.0,0.0,0.0,0.0,0.0,0.0,0.0,0.0,0.0,0.0,0.0,0.0,0.0,0.0,0.0,0.0,0.0,0.0,0.0,0.0,0.0,0.0,0.0,0.0,0.0,0.0,0.0,0.0,0.0,0.0,0.0,0.0,0.0,0.0,0.0,0.0,0.0,0.0,0.0,0.0,0.0,0.0,0.0,0.0,0.0,0.0,0.0,0.0,0.0,0.0,0.0,0.0,0.0,-4.2734,-4.3581,-4.4578,-4.5167,-4.5451,-4.5396,-4.5378,-4.5304,-4.5204,-4.5184,0.0,0.0,0.0,0.0,0.0,0.0,0.0,0.0,0.0,0.0,0.0,0.0,0.0,0.0,0.0,0.0,0.0,0.0,0.0,0.0,0.0,0.0,0.0,0.0,0.0,0.0,0.0,0.0,0.0,0.0,0.0,0.0,0.0,0.0,0.0,0.0,0.0,0.0,0.0,0.0,0.0,0.0,0.0,0.0,0.0,0.0,0.0,0.0,0.0,0.0,0.0,0.0,0.0,0.0,0.0,0.0,0.0,0.0,0.0,0.0,0.0,0.0,0.0,0.0,0.0,0.0,0.0,0.0,0.0,0.0,0.0,0.0,0.0,0.0,0.0,0.0,0.0,0.0,0.0,0.0,0.0,0.0,0.0,0.0,0.0,0.0,0.0,0.0,0.0,0.0,0.0,0.0,0.0,0.0,0.0,0.0,0.0,0.0,0.0,0.0,0.0,0.0,-4.3199,-4.4083,-4.572,-4.591,-4.5949,-4.5949,-4.5893,-4.5822,-4.5752,-4.5752,0.0,0.0,0.0,0.0,0.0,0.0,0.0,0.0,0.0,0.0,0.0,0.0,0.0,0.0,0.0,0.0,0.0,0.0,0.0,0.0,0.0,0.0,0.0,0.0,0.0,0.0,0.0,0.0,0.0,0.0,0.0,0.0,0.0,0.0,0.0,0.0,0.0,0.0,0.0,0.0,0.0,0.0,0.0,0.0,0.0,0.0,0.0,0.0,0.0,0.0,0.0,0.0,0.0,0.0,0.0,0.0,0.0,0.0,0.0,0.0,0.0,0.0,0.0,0.0,0.0,0.0,0.0,0.0,0.0,0.0,0.0,0.0,0.0,0.0,0.0,0.0,0.0,0.0,0.0,0.0,0.0,0.0,0.0,0.0,0.0,0.0,0.0,0.0,0.0,0.0,0.0,0.0,0.0,0.0,0.0,0.0,0.0,0.0,0.0,0.0,0.0,0.0,-4.3845,-4.4805,-4.5935,-4.6063,-4.6047,-4.6003,-4.598,-4.5925,-4.5814,0.0,0.0,0.0,0.0,0.0,0.0,0.0,0.0,0.0,0.0,0.0,0.0,0.0,0.0,0.0,0.0,0.0,0.0,0.0,0.0,0.0,0.0,0.0,0.0,0.0,0.0,0.0,0.0,0.0,0.0,0.0,0.0,0.0,0.0,0.0,0.0,0.0,0.0,0.0,0.0,0.0,0.0,0.0,0.0,0.0,0.0,0.0,0.0,0.0,0.0,0.0,0.0,0.0,0.0,0.0,0.0,0.0,0.0,0.0,0.0,0.0,0.0,0.0,0.0,0.0,0.0,0.0,0.0,0.0,0.0,0.0,0.0,0.0,0.0,0.0,0.0,0.0,0.0,0.0,0.0,0.0,0.0,0.0,0.0,0.0,0.0,0.0,0.0,0.0,0.0,0.0,0.0,0.0,0.0,0.0,0.0,0.0,0.0,0.0,0.0,0.0,0.0,-4.3151,-4.4231,-4.521,-4.6039,-4.6131,-4.6112,-4.6083,-4.6054,-4.6018,-4.5902,0.0,0.0,0.0,0.0,0.0,0.0,0.0,0.0,0.0,0.0,0.0,0.0,0.0,0.0,0.0,0.0,0.0,0.0,0.0,0.0,0.0,0.0,0.0,0.0,0.0,0.0,0.0,0.0,0.0,0.0,0.0,0.0,0.0,0.0,0.0,0.0,0.0,0.0,0.0,0.0,0.0,0.0,0.0,0.0,0.0,0.0,0.0,0.0,0.0,0.0,0.0,0.0,0.0,0.0,0.0,0.0,0.0,0.0,0.0,0.0,0.0,0.0,0.0,0.0,0.0,0.0,0.0,0.0,0.0,0.0,0.0,0.0,0.0,0.0,0.0,0.0,0.0,0.0,0.0,0.0,0.0,0.0,0.0,0.0,0.0,0.0,0.0,0.0,0.0,0.0,0.0,0.0,0.0,0.0,0.0,0.0,0.0,0.0,0.0,0.0,0.0,0.0,-4.3311,-4.4286,-4.5252,-4.6108,-4.6202,-4.6202,-4.6202,-4.6202,-4.6167,0.0,0.0,0.0,0.0,0.0,0.0,0.0,0.0,0.0,0.0,0.0,0.0,0.0,0.0,0.0,0.0,0.0,0.0,0.0,0.0,0.0,0.0,0.0,0.0,0.0,0.0,0.0,0.0,0.0,0.0,0.0,0.0,0.0,0.0,0.0,0.0,0.0,0.0,0.0,0.0,0.0,0.0,0.0,0.0,0.0,0.0,0.0,0.0,0.0,0.0,0.0,0.0,0.0,0.0,0.0,0.0,0.0,0.0,0.0,0.0,0.0,0.0,0.0,0.0,0.0,0.0,0.0,0.0,0.0,0.0,0.0,0.0,0.0,0.0,0.0,0.0,0.0,0.0,0.0,0.0,0.0,0.0,0.0,0.0,0.0,0.0,0.0,0.0,0.0,0.0,0.0,0.0,0.0,0.0,0.0,0.0,0.0,0.0,0.0,0.0,0.0,0.0,0.0,-4.3509,-4.4902,-4.5971,-4.617,-4.6208,-4.6204,-4.6206,-4.6202,-4.6167,-4.6105,0.0,0.0,0.0,0.0,0.0,0.0,0.0,0.0,0.0,0.0,0.0,0.0,0.0,0.0,0.0,0.0,0.0,0.0,0.0,0.0,0.0,0.0,0.0,0.0,0.0,0.0,0.0,0.0,0.0,0.0,0.0,0.0,0.0,0.0,0.0,0.0,0.0,0.0,0.0,0.0,0.0,0.0,0.0,0.0,0.0,0.0,0.0,0.0,0.0,0.0,0.0,0.0,0.0,0.0,0.0,0.0,0.0,0.0,0.0,0.0,0.0,0.0,0.0,0.0,0.0,0.0,0.0,0.0,0.0,0.0,0.0,0.0,0.0,0.0,0.0,0.0,0.0,0.0,0.0,0.0,0.0,0.0,0.0,0.0,0.0,0.0,0.0,0.0,0.0,0.0,0.0,0.0,0.0,0.0,0.0,0.0,0.0,0.0,0.0,0.0,0.0,0.0,-4.4061,-4.5408,-4.629,-4.6245,-4.6246,-4.6248,-4.6249,-4.6249,-4.6204,-4.6136,0.0,0.0,0.0,0.0,0.0,0.0,0.0,0.0,0.0,0.0,0.0,0.0,0.0,0.0,0.0,0.0,0.0,0.0,0.0,0.0,0.0,0.0,0.0,0.0,0.0,0.0,0.0,0.0,0.0,0.0,0.0,0.0,0.0,0.0,0.0,0.0,0.0,0.0,0.0,0.0,0.0,0.0,0.0,0.0,0.0,0.0,0.0,0.0,0.0,0.0,0.0,0.0,0.0,0.0,0.0,0.0,0.0,0.0,0.0,0.0,0.0,0.0,0.0,0.0,0.0,0.0,0.0,0.0,0.0,0.0,0.0,0.0,0.0,0.0,0.0,0.0,0.0,0.0,0.0,0.0,0.0,0.0,0.0,0.0,0.0,0.0,0.0,0.0,0.0,0.0,0.0,0.0,0.0,0.0,0.0,0.0,0.0,0.0,0.0,0.0,0.0,0.0,-4.48,-4.5722,-4.63,-4.63,-4.63,-4.63,-4.63,-4.63,-4.6276,-4.6191,0.0,0.0,0.0,0.0,0.0,0.0,0.0,0.0,0.0,0.0,0.0,0.0,0.0,0.0,0.0,0.0,0.0,0.0,0.0,0.0,0.0,0.0,0.0,0.0,0.0,0.0,0.0,0.0,0.0,0.0,0.0,0.0,0.0,0.0,0.0,0.0,0.0,0.0,0.0,0.0,0.0,0.0,0.0,0.0,0.0,0.0,0.0,0.0,0.0,0.0,0.0,0.0,0.0,0.0,0.0,0.0,0.0,0.0,0.0,0.0,-4.2044,-4.1623,0.0,0.0,0.0,0.0,0.0,0.0,0.0,0.0,0.0,0.0,0.0,0.0,0.0,0.0,0.0,0.0,0.0,0.0,0.0,0.0,0.0,0.0,0.0,0.0,0.0,0.0,0.0,0.0,0.0,0.0,0.0,0.0,0.0,0.0,0.0,0.0,0.0,0.0,0.0,0.0,-4.4878,-4.5722,-4.63,-4.63,-4.63,-4.63,-4.63,-4.63,-4.6276,-4.6191,-4.6191,0.0,0.0,0.0,0.0,0.0,0.0,0.0,0.0,0.0,0.0,0.0,0.0,0.0,0.0,0.0,0.0,0.0,0.0,0.0,0.0,0.0,0.0,0.0,0.0,0.0,0.0,0.0,0.0,0.0,0.0,0.0,0.0,0.0,0.0,0.0,0.0,0.0,0.0,0.0,0.0,0.0,0.0,0.0,0.0,0.0,0.0,0.0,0.0,0.0,0.0,0.0,0.0,0.0,0.0,0.0,0.0,0.0,0.0,0.0,-4.3824,-4.3378,0.0,0.0,0.0,0.0,0.0,0.0,0.0,0.0,0.0,0.0,0.0,0.0,0.0,0.0,0.0,0.0,0.0,0.0,0.0,0.0,0.0,0.0,0.0,0.0,0.0,0.0,0.0,0.0,0.0,0.0,0.0,0.0,0.0,0.0,0.0,0.0,0.0,0.0,0.0,0.0,-4.546,-4.5975,-4.63,-4.63,-4.63,-4.63,-4.63,-4.63,-4.629,-4.6243,-4.6229,0.0,0.0,0.0,0.0,0.0,0.0,0.0,0.0,0.0,0.0,0.0,0.0,0.0,0.0,0.0,0.0,0.0,0.0,0.0,0.0,0.0,0.0,0.0,0.0,0.0,0.0,0.0,0.0,0.0,0.0,0.0,0.0,0.0,0.0,0.0,0.0,0.0,0.0,0.0,0.0,0.0,0.0,0.0,0.0,0.0,0.0,0.0,0.0,0.0,0.0,0.0,0.0,0.0,-4.272,-4.3525,-4.4279,-4.4775,-4.5207,-4.5503,-4.5447,-4.5134,-4.4699,-4.5055,0.0,0.0,0.0,0.0,0.0,0.0,0.0,0.0,0.0,0.0,0.0,0.0,0.0,0.0,0.0,0.0,0.0,0.0,0.0,0.0,0.0,0.0,-4.6219,-4.6219,-4.6229,-4.582,-4.437,0.0,0.0,0.0,0.0,0.0,0.0,0.0,0.0,0.0,0.0,0.0,-4.6114,-4.6268,-4.63,-4.63,-4.63,-4.63,-4.63,-4.63,-4.63,-4.63,-4.6243,-4.621,0.0,0.0,0.0,0.0,0.0,0.0,0.0,0.0,0.0,0.0,0.0,0.0,0.0,0.0,0.0,0.0,0.0,0.0,0.0,0.0,0.0,0.0,0.0,0.0,0.0,0.0,0.0,0.0,0.0,0.0,0.0,0.0,-3.3389,-3.4701,0.0,0.0,0.0,0.0,0.0,0.0,0.0,0.0,0.0,0.0,0.0,0.0,0.0,-3.8655,-3.999,-4.0488,-4.1743,-4.3728,-4.4283,-4.4962,-4.5725,-4.5808,-4.5871,-4.5925,-4.5914,0.0,-4.5705,-4.563,0.0,0.0,0.0,0.0,0.0,0.0,0.0,0.0,0.0,0.0,0.0,0.0,0.0,0.0,0.0,0.0,0.0,0.0,0.0,0.0,0.0,0.0,-4.6293,-4.6293,-4.629,-4.6212,-4.6,-4.5898,-4.5636,-4.4852,-4.4715,-4.4699,0.0,0.0,0.0,0.0,0.0,0.0,-4.619,-4.6262,-4.63,-4.63,-4.63,-4.63,-4.63,-4.63,-4.63,-4.63,-4.6284,-4.6258,-4.6191,-4.6191,0.0,0.0,0.0,0.0,0.0,0.0,0.0,0.0,0.0,0.0,0.0,0.0,0.0,0.0,0.0,0.0,0.0,0.0,0.0,0.0,0.0,0.0,0.0,0.0,0.0,0.0,0.0,0.0,0.0,-3.323,-3.4313,-3.5334,-3.5328,-3.5328,0.0,0.0,0.0,0.0,0.0,0.0,0.0,0.0,0.0,-3.9217,-3.9724,-4.0385,-4.1201,-4.2468,-4.3562,-4.4486,-4.5157,-4.5666,-4.5997,-4.5997,-4.5997,-4.5997,-4.5997,-4.5975,-4.596,-4.5854,-4.5771,-4.5715,0.0,0.0,0.0,0.0,-4.5852,-4.6018,-4.6097,-4.6141,-4.6205,-4.6205,0.0,0.0,0.0,0.0,0.0,0.0,0.0,-4.6192,-4.619,-4.6229,-4.6243,-4.6287,-4.63,-4.63,-4.63,-4.628,-4.6133,-4.572,-4.562,-4.5614,-4.5597,-4.5587,0.0,0.0,0.0,-4.6208,-4.6191,-4.6261,-4.63,-4.63,-4.63,-4.63,-4.63,-4.63,-4.63,-4.63,-4.63,-4.6287,-4.6261,-4.6229,-4.5819,0.0,0.0,0.0,0.0,0.0,0.0,0.0,0.0,0.0,0.0,0.0,0.0,0.0,0.0,0.0,0.0,0.0,0.0,0.0,0.0,0.0,0.0,0.0,0.0,0.0,0.0,0.0,0.0,-3.4622,-3.528,-3.5899,-3.6364,-3.6535,0.0,0.0,0.0,0.0,0.0,0.0,-3.9052,-3.9176,-3.966,-4.0608,-4.1311,-4.2002,-4.2714,-4.4101,-4.4889,-4.5103,-4.5705,-4.5997,-4.5997,-4.5997,-4.5997,-4.5997,-4.5997,-4.5997,-4.5997,-4.5949,-4.5919,-4.5893,-4.5791,-4.5805,-4.5899,-4.5911,-4.5998,-4.6142,-4.621,-4.6229,-4.6229,-4.6229,-4.621,-4.6191,-4.6202,0.0,0.0,0.0,0.0,-4.6202,-4.6211,-4.6229,-4.6246,-4.6287,-4.63,-4.63,-4.63,-4.63,-4.6287,-4.6246,-4.6229,-4.6211,-4.62,-4.6195,0.0,-4.6195,-4.6208,-4.6211,-4.6229,-4.6276,-4.63,-4.63,-4.63,-4.63,-4.63,-4.63,-4.63,-4.63,-4.63,-4.63,-4.63,-4.6243,-4.593,-4.5343,0.0,0.0,0.0,0.0,0.0,0.0,0.0,0.0,0.0,0.0,0.0,0.0,0.0,0.0,0.0,0.0,0.0,0.0,0.0,0.0,0.0,0.0,0.0,0.0,0.0,0.0,0.0,0.0,0.0,-3.7084,-3.7787,0.0,0.0,0.0,0.0,-3.8783,-3.9199,-3.964,-4.0098,-4.0114,-4.0742,-4.2053,-4.2141,-4.2976,-4.4637,-4.4753,-4.5181,-4.5938,-4.5977,-4.5997,-4.5997,-4.5997,-4.5997,-4.5997,-4.5997,-4.5997,-4.5997,-4.5997,-4.596,-4.5893,-4.5893,-4.5893,-4.5912,-4.5971,-4.6069,-4.6189,-4.6262,-4.6284,-4.6284,-4.6284,-4.6243,-4.6191,-4.6191,-4.6204,0.0,0.0,-4.6191,-4.621,-4.6273,-4.6284,-4.6303,-4.63,-4.63,-4.63,-4.63,-4.63,-4.63,-4.6303,-4.6284,-4.6273,-4.6211,0.0,-4.6191,-4.6191,-4.6191,-4.6229,-4.6287,-4.63,-4.63,-4.63,-4.63,-4.63,-4.63,-4.63,-4.63,-4.63,-4.63,-4.63,-4.63,-4.6303,-4.6284,-4.6241,-4.5421,0.0,0.0,0.0,0.0,0.0,0.0,0.0,0.0,0.0,0.0,0.0,0.0,0.0,0.0,0.0,0.0,0.0,0.0,0.0,0.0,0.0,0.0,0.0,0.0,0.0,0.0,0.0,0.0,-3.7469,-3.8464,0.0,-3.8366,-3.9127,-3.97,-3.9738,-4.0146,-4.0468,-4.0645,-4.118,-4.171,-4.217,-4.3297,-4.4171,-4.4792,-4.5357,-4.5765,-4.5997,-4.6037,-4.6047,-4.6066,-4.6017,-4.6017,-4.6066,-4.6017,-4.5997,-4.5997,-4.5997,-4.5986,-4.5953,-4.5953,-4.5997,-4.6035,-4.6103,-4.615,-4.6209,-4.6276,-4.63,-4.63,-4.63,-4.629,-4.6258,-4.6258,-4.6262,-4.6267,-4.6261,-4.6258,-4.6276,-4.6284,-4.63,-4.63,-4.63,-4.63,-4.63,-4.63,-4.63,-4.63,-4.63,-4.63,-4.6284,-4.6276,-4.6258,-4.6258,-4.6258,-4.6258,-4.6273,-4.6303,-4.63,-4.63,-4.63,-4.63,-4.63,-4.63,-4.63,-4.63,-4.63,-4.63,-4.63,-4.63,-4.63,-4.63,-4.63,-4.5987,-4.5558,0.0,0.0,0.0,0.0,0.0,0.0,0.0,0.0,0.0,0.0,0.0,0.0,0.0,0.0,0.0,0.0,0.0,0.0,0.0,0.0,0.0,0.0,0.0,0.0,0.0,-3.7729,-3.8279,-3.7751,-3.8954,-3.9621,-3.9053,-3.985,-4.0414,-4.0436,-4.0729,-4.1024,-4.1315,-4.1879,-4.2461,-4.3063,-4.421,-4.4948,-4.5239,-4.5815,-4.6084,-4.6029,-4.6084,-4.6091,-4.6111,-4.6083,-4.6084,-4.6093,-4.6074,-4.6046,-4.6036,-4.6072,-4.606,-4.608,-4.6046,-4.6068,-4.6142,-4.6189,-4.6207,-4.621,-4.6273,-4.63,-4.63,-4.63,-4.63,-4.63,-4.63,-4.63,-4.63,-4.63,-4.63,-4.63,-4.63,-4.63,-4.63,-4.63,-4.63,-4.63,-4.63,-4.63,-4.63,-4.63,-4.63,-4.63,-4.63,-4.63,-4.63,-4.63,-4.63,-4.63,-4.63,-4.63,-4.63,-4.63,-4.63,-4.63,-4.63,-4.627,-4.6273,-4.63,-4.6273,-4.6273,-4.63,-4.63,-4.63,-4.63,-4.6269,-4.5948,-4.5377,0.0,0.0,0.0,0.0,0.0,0.0,0.0,0.0,0.0,0.0,0.0,0.0,0.0,0.0,0.0,0.0,0.0,0.0,0.0,0.0,0.0,0.0,0.0,-3.7574,-3.8136,-3.8464,-3.8034,-3.9354,-4.0117,-3.9679,-4.0347,-4.0834,-4.0898,-4.0927,-4.1315,-4.2151,-4.2248,-4.3063,-4.4753,-4.4821,-4.5243,-4.6098,-4.6089,-4.6101,-4.6097,-4.6101,-4.6093,-4.6108,-4.617,-4.6162,-4.6111,-4.6164,-4.6156,-4.6112,-4.6167,-4.6202,-4.6183,-4.6131,-4.6142,-4.6209,-4.6209,-4.6191,-4.621,-4.6273,-4.63,-4.63,-4.63,-4.63,-4.63,-4.63,-4.63,-4.63,-4.63,-4.63,-4.63,-4.63,-4.63,-4.63,-4.63,-4.63,-4.63,-4.63,-4.63,-4.63,-4.63,-4.63,-4.63,-4.63,-4.63,-4.63,-4.63,-4.63,0.0,-4.63,-4.63,-4.63,-4.6303,-4.6303,-4.6303,-4.6303,-4.6246,-4.6228,-4.6303,-4.6246,-4.6228,-4.6303,-4.63,-4.63,-4.63,-4.6176,-4.6105,-4.6098,0.0,0.0,0.0,0.0,0.0,0.0,0.0,0.0,0.0,0.0,0.0,0.0,0.0,0.0,0.0,0.0,0.0,0.0,0.0,0.0,0.0,-3.8534,-3.8854,-3.8534,-3.91,-3.958,-3.9624,-4.0024,-4.0267,-4.0185,-4.0563,-4.0812,-4.0834,-4.1461,-4.1956,-4.2189,-4.3394,-4.4307,-4.4772,-4.5404,-4.5885,-4.6176,-4.6167,-4.6147,-4.6097,-4.6143,-4.6169,-4.6168,-4.6136,-4.6134,-4.6178,-4.6131,-4.6124,-4.612,-4.6163,-4.6198,-4.6208,-4.6183,-4.617,-4.6209,-4.6191,-4.6228,-4.6273,-4.6284,-4.63,-4.63,-4.63,-4.63,-4.63,-4.63,-4.63,-4.63,-4.63,-4.63,-4.63,-4.63,-4.63,-4.63,-4.63,-4.63,-4.63,-4.63,-4.63,-4.63,-4.63,-4.63,-4.63,-4.63,-4.63,-4.63,-4.63,-4.63,-4.63,-4.63,-4.63,-4.627,-4.6228,-4.6229,-4.6229,-4.6229,-4.621,-4.6228,-4.6303,-4.629,-4.627,-4.63,-4.63,-4.63,-4.63,-4.6249,-4.6206,0.0,0.0,0.0,0.0,0.0,0.0,0.0,0.0,0.0,0.0,0.0,0.0,0.0,0.0,0.0,0.0,0.0,0.0,0.0,0.0,0.0,0.0,-3.9289,-3.9615,-3.9526,-3.9844,-4.0138,-4.027,-4.0323,-4.0389,-4.0545,-4.0707,-4.0812,-4.0837,-4.1704,-4.2364,-4.2733,-4.4054,-4.4948,-4.5288,-4.5849,-4.6162,-4.6203,-4.6225,-4.6205,-4.613,-4.6172,-4.6208,-4.6204,-4.6152,-4.6152,-4.6191,-4.6191,-4.6171,-4.6149,-4.621,-4.623,-4.6246,0.0,0.0,0.0,0.0,-4.6276,-4.63,-4.63,-4.63,-4.63,-4.63,-4.63,-4.63,-4.63,-4.63,-4.63,-4.63,-4.63,-4.63,-4.63,-4.63,-4.63,-4.63,-4.63,-4.63,-4.63,-4.63,-4.63,-4.63,-4.63,0.0,-4.63,-4.63,-4.63,-4.63,-4.63,-4.63,-4.63,-4.63,-4.629,-4.6245,-4.6245,-4.6245,-4.6245,-4.6229,0.0,0.0,0.0,-4.6276,-4.63,-4.63,0.0,0.0,0.0,-4.6176,-4.6098,-4.6026,0.0,0.0,-4.5548,-4.5457,0.0,0.0,0.0,0.0,0.0,0.0,0.0,0.0,0.0,0.0,0.0,0.0,0.0,0.0,0.0,0.0,-3.991,-4.0427,-4.0419,-4.0372,-4.0341,-4.0342,-4.0372,-4.05,-4.0745,-4.0788,-4.0854,-4.1005,-4.1859,-4.2733,-4.3607,-4.4462,0.0,0.0,0.0,-4.6196,-4.6211,-4.6261,-4.6268,-4.6206,-4.6195,-4.6209,-4.6201,-4.6209,-4.6204,-4.6209,-4.6258,-4.6258,-4.6226,-4.627,-4.63,-4.6284,-4.6228,-4.6243,-4.63,-4.63,-4.63,-4.63,-4.63,0.0,0.0,-4.63,-4.63,-4.63,-4.63,-4.63,-4.63,-4.63,-4.63,-4.63,-4.63,-4.63,-4.63,-4.63,-4.63,-4.63,-4.63,-4.63,-4.63,-4.63,-4.63,-4.63,-4.63,-4.63,-4.63,-4.63,-4.63,-4.63,-4.63,-4.63,-4.6303,-4.6287,-4.6287,0.0,-4.6287,-4.6228,-4.6228,-4.6303,-4.6245,-4.6246,-4.6303,-4.63,-4.63,-4.63,-4.6181,-4.6125,-4.6098,-4.5925,-4.5822,-4.58,-4.5786,-4.5696,0.0,0.0,0.0,0.0,0.0,0.0,0.0,0.0,0.0,0.0,0.0,0.0,0.0,0.0,0.0,-3.987,-4.041,-4.0688,-4.0574,-4.0635,-4.0648,-4.0545,-4.0454,-4.0469,-4.0635,-4.0732,-4.1071,-4.1734,-4.2692,-4.3627,-4.4501,-4.5317,-4.5881,-4.6154,-4.6189,-4.6228,-4.6277,-4.6249,-4.6205,-4.62,-4.6201,0.0,-4.6196,-4.6203,-4.6201,-4.6197,-4.6216,-4.6245,-4.6277,-4.63,-4.63,-4.63,-4.6287,-4.6287,-4.63,-4.63,-4.63,-4.63,-4.63,-4.63,-4.63,-4.63,-4.63,-4.63,-4.63,-4.63,0.0,-4.63,-4.63,-4.63,-4.63,-4.63,-4.63,-4.63,-4.63,-4.63,-4.63,-4.63,-4.63,-4.63,-4.63,-4.63,-4.63,-4.63,-4.63,-4.63,-4.63,-4.63,-4.63,-4.63,-4.627,-4.6229,-4.6229,-4.6229,-4.6229,-4.6211,-4.6228,-4.6303,-4.6287,-4.6287,-4.63,-4.63,-4.63,-4.63,-4.6273,-4.6211,-4.6098,-4.6068,-4.5949,-4.58,-4.57,-4.562,0.0,0.0,0.0,0.0,0.0,0.0,0.0,0.0,0.0,0.0,0.0,-3.7803,-3.8416,0.0,-3.9589,-4.02,-4.0577,-4.0757,-4.0655,-4.0745,-4.072,-4.0515,-4.0545,-4.0621,-4.0688,-4.118,-4.1662,-4.207,-4.3373,-4.4345,-4.4773,-4.555,-4.6027,-4.6093,-4.6181,-4.6209,-4.6195,-4.6228,-4.6226,-4.6209,-4.6197,-4.6203,-4.6196,-4.6209,-4.6196,-4.6203,-4.6245,-4.6279,-4.6303,-4.6296,-4.63,-4.63,-4.63,-4.63,-4.63,-4.63,-4.63,-4.63,-4.63,-4.63,-4.63,-4.63,-4.63,-4.63,-4.63,-4.63,-4.63,-4.63,-4.63,-4.63,-4.63,-4.63,-4.63,-4.63,-4.63,-4.63,-4.63,-4.63,-4.63,-4.63,-4.63,-4.63,-4.63,-4.63,-4.63,-4.63,-4.63,-4.63,-4.63,-4.63,-4.6287,-4.6241,-4.6243,-4.6243,-4.6243,-4.6243,-4.6258,-4.6303,-4.63,-4.63,-4.63,-4.63,-4.63,-4.63,-4.63,-4.6273,-4.6206,-4.6138,-4.6016,-4.5847,-4.5737,-4.5668,0.0,0.0,0.0,0.0,0.0,0.0,0.0,-3.4284,-3.5284,-3.6405,-3.7415,-3.8209,-3.8575,-3.9276,-3.9907,-4.0334,-4.0635,-4.0769,-4.0681,-4.0769,-4.0725,-4.05,-4.0681,-4.08,-4.0823,-4.1664,-4.2267,-4.2442,-4.3918,-4.487,-4.5025,-4.5647,-4.6007,-4.6027,-4.6135,-4.6181,-4.614,-4.6228,-4.6245,-4.6206,-4.6201,-4.6201,-4.6203,-4.6196,-4.6209,-4.6215,-4.6279,-4.6308,-4.6308,-4.6296,-4.63,-4.63,-4.63,-4.63,-4.63,-4.63,-4.63,-4.63,-4.63,-4.63,-4.63,-4.63,-4.63,-4.63,-4.63,-4.63,-4.63,-4.63,-4.63,-4.63,-4.63,-4.63,-4.63,-4.63,-4.63,-4.63,-4.63,-4.63,-4.63,-4.63,-4.63,-4.63,-4.63,-4.63,-4.63,-4.63,-4.63,-4.63,-4.63,-4.63,-4.63,-4.63,-4.63,-4.63,-4.63,-4.63,-4.63,-4.63,-4.63,-4.63,-4.63,-4.63,-4.63,-4.63,-4.63,-4.63,-4.63,-4.617,-4.6041,-4.5899,-4.5829,-4.5727,-2.511,-2.7578,-2.9681,-3.0321,-3.181,-3.3479,0.0,-3.5613,-3.6325,-3.7612,-3.8355,-3.8961,-3.9458,-3.9823,-4.012,-4.0345,-4.0629,-4.0764,-4.0635,-4.0784,-4.0858,-4.0776,-4.0788,-4.0834,-4.0888,-4.1684,-4.252,-4.3297,-4.4248,-4.5103,-4.5822,-4.5938,-4.6047,-4.6162,-4.6137,-4.6163,-4.6285,-4.6221,-4.6214,-4.6206,-4.6209,-4.619,-4.6203,-4.6203,-4.624,-4.6279,-4.6292,-4.63,-4.63,-4.63,-4.63,-4.63,-4.63,-4.63,-4.63,-4.63,-4.63,-4.63,-4.63,-4.63,-4.63,-4.63,-4.63,-4.63,-4.63,-4.63,-4.63,-4.63,-4.63,-4.63,-4.63,-4.63,-4.63,-4.63,-4.63,-4.63,-4.63,-4.63,-4.63,-4.63,-4.63,-4.63,-4.63,-4.63,-4.63,-4.63,-4.63,-4.63,-4.63,-4.63,-4.63,-4.63,-4.63,-4.63,-4.63,-4.63,-4.63,-4.63,-4.63,-4.63,-4.63,-4.63,-4.63,-4.63,-4.63,-4.63,-4.63,-4.617,-4.6041,-4.5899,-4.5829,-4.5727,-2.6294,-2.8383,-2.994,-3.0837,-3.2164,-3.3375,-3.3956,-3.4948,-3.6044,-3.7157,-3.7893,-3.8499,-3.9125,-3.9543,-3.9899,-4.0175,-4.0481,-4.0688,-4.072,-4.0818,-4.0898,-4.0858,-4.0858,-4.1062,-4.1607,-4.2442,-4.3316,-4.419,-4.5025,-4.5647,-4.5977,-4.6047,-4.6074,-4.6137,-4.6143,-4.6182,-4.6249,-4.6209,-4.6197,-4.6189,-4.6196,-4.619,-4.619,-4.6209,-4.625,-4.6303,-4.6296,-4.63,-4.63,-4.63,-4.63,-4.63,-4.63,-4.63,-4.63,-4.63,-4.63,-4.63,-4.63,-4.63,-4.63,-4.63,-4.63,-4.63,-4.63,-4.63,-4.63,-4.63,-4.63,-4.63,-4.63,-4.63,-4.63,-4.63,-4.63,-4.63,-4.63,-4.63,-4.63,-4.63,-4.63,-4.63,-4.63,-4.63,-4.63,-4.63,-4.63,-4.63,-4.63,-4.63,-4.63,-4.63,-4.63,-4.63,-4.63,-4.63,-4.63,-4.63,-4.63,-4.63,-4.63,-4.63,-4.63,-4.63,-4.63,-4.63,-4.63,-4.617,-4.6041,-4.5899,-4.5829,-4.5727,-2.6902,-2.8447,-2.951,-3.0867,-3.2219,-3.3255,-3.3534,-3.47,-3.5959,-3.6741,-3.7433,-3.8114,-3.8796,-3.9298,-3.9739,-4.0081,-4.0403,-4.0648,-4.0788,-4.0858,-4.0907,-4.0907,-4.0907,-4.1335,-4.2442,-4.3122,-4.386,-4.4734,-4.5561,-4.6027,-4.6027,-4.608,-4.6131,-4.6128,-4.6173,-4.6191,-4.6198,-4.621,-4.6195,-4.6196,-4.619,-4.6196,-4.6209,-4.622,-4.626,-4.6308,-4.6296,-4.63,-4.63,-4.63,-4.63,-4.63,-4.63,-4.63,-4.63,-4.63,-4.63,-4.63,-4.63,-4.63,-4.63,-4.63,-4.63,-4.63,-4.63,-4.63,-4.63,-4.63,-4.63,-4.63,-4.63,-4.63,-4.63,-4.63,-4.63,-4.63,-4.63,-4.63,-4.63,-4.63,-4.63,-4.63,-4.63,-4.63,-4.63,-4.63,-4.63,-4.63,-4.63,-4.63,-4.63,-4.63,-4.63,-4.63,-4.63,-4.63,-4.63,-4.63,-4.63,-4.63,-4.63,-4.63,-4.63,-4.63,-4.63,-4.6277,-4.6245,-4.6105,-4.5978,-4.5875,-4.5775,-4.57,-2.6025,-2.7111,-2.8346,-3.0113,-3.186,-3.3399,-3.4496,-3.5554,-3.6409,-3.6821,-3.7433,-3.8111,-3.8849,-3.9338,-3.9762,-4.0215,-4.0473,-4.0648,-4.0788,-4.0858,-4.0907,-4.0907,-4.0907,-4.1568,-4.3297,-4.3491,-4.386,-4.4734,-4.5604,-4.6098,-4.6098,-4.6158,-4.6192,-4.6208,-4.619,-4.6198,-4.621,-4.6209,-4.6203,-4.6196,-4.6196,-4.6209,-4.6203,-4.6275,-4.6292,-4.63,-4.63,-4.63,-4.63,-4.63,-4.63,-4.63,-4.63,-4.63,-4.63,-4.63,-4.63,-4.63,-4.63,-4.63,-4.63,-4.63,-4.63,-4.63,-4.63,-4.63,-4.63,-4.63,-4.63,-4.63,-4.63,-4.63,-4.63,-4.63,-4.63,-4.63,-4.63,-4.63,-4.63,-4.63,-4.63,-4.63,-4.63,-4.63,-4.63,-4.63,-4.63,-4.63,-4.63,-4.63,-4.63,-4.63,-4.63,-4.63,-4.63,-4.63,-4.63,-4.63,-4.63,-4.63,-4.63,-4.63,-4.63,-4.63,-4.63,-4.624,-4.6105,-4.5978,-4.5863,-4.5814,-4.5668,-4.5603,-2.6761,-2.7617,-2.8438,-3.0601,-3.187,-3.2748,-3.3582,-3.4544,-3.5448,-3.5856,-3.6405,-3.7117,-3.8092,-3.8649,-3.9163,-3.9804,-4.0296,-4.0648,-4.0788,-4.0858,-4.0907,-4.0907,-4.0907,-4.1587,-4.3335,-4.351,-4.4074,-4.5491,-4.5916,-4.6098,-4.6098,-4.6156,-4.6204,-4.6191,-4.6204,-4.6202,-4.6197,-4.6196,-4.6196,-4.6196,-4.619,-4.6228,-4.6275,-4.6279,-4.6308,-4.6292,-4.6296,-4.63,-4.63,-4.63,-4.63,-4.63,-4.63,-4.63,-4.63,-4.63,-4.63,-4.63,-4.63,-4.63,-4.63,-4.63,-4.63,-4.63,-4.63,-4.63,-4.63,-4.63,-4.63,-4.63,-4.63,-4.63,-4.63,-4.63,-4.63,-4.63,-4.63,-4.63,-4.63,-4.63,-4.63,-4.63,-4.63,-4.63,-4.63,-4.63,-4.63,-4.63,-4.63,-4.63,-4.63,-4.63,-4.63,-4.63,-4.63,-4.63,-4.63,-4.63,-4.63,-4.63,-4.63,-4.63,-4.6269,-4.6176,-4.6176,-4.6098,-4.5978,-4.5883,-4.5815,-4.58,-4.5651,-4.5586,-2.7031,-2.7577,-2.8076,-3.024,-3.139,-3.2093,-3.2741,-3.3751,-3.4704,-3.5369,-3.5759,-3.6422,-3.7719,-3.8339,-3.885,-3.964,-4.0191,-4.0588,-4.0776,-4.0846,-4.0878,-4.0907,-4.0907,-4.1587,-4.3335,-4.35,-4.4208,-4.59,-4.6098,-4.6147,-4.6143,-4.6205,-4.6229,-4.6204,-4.6228,-4.6225,-4.6189,-4.6196,-4.6209,-4.6209,-4.6203,-4.6215,-4.624,-4.624,-4.6209,-4.6151,-4.6164,-4.617,-4.615,-4.6211,-4.6236,-4.6236,-4.6236,-4.6269,-4.63,-4.6245,-4.6269,-4.63,-4.63,-4.63,-4.63,-4.63,-4.63,-4.63,-4.63,-4.63,-4.63,-4.63,-4.63,-4.63,-4.63,-4.63,-4.63,-4.63,-4.63,-4.63,-4.63,-4.63,-4.63,-4.63,-4.63,-4.63,-4.63,-4.63,-4.63,-4.63,-4.63,-4.63,-4.63,-4.63,-4.63,-4.63,-4.63,-4.63,-4.63,-4.63,-4.63,-4.63,-4.63,-4.6273,-4.624,-4.6236,-4.617,-4.6041,-4.6041,-4.5969,-4.5863,-4.5815,-4.5771,-4.5731,-4.5654,-4.5586,-2.662,-2.6973,-2.7417,-2.9066,-3.0363,-3.1387,-3.2109,-3.3114,-3.4202,-3.5215,-3.5459,-3.6002,-3.7716,-3.8334,-3.8858,-3.9726,-4.0174,-4.05,-4.0776,-4.08,-4.0834,-4.0898,-4.0907,-4.1587,-4.3326,-4.3502,-4.4215,-4.5975,-4.6162,-4.6198,-4.6191,-4.6258,-4.6273,-4.6211,-4.6279,-4.627,-4.6203,-4.6196,-4.6183,-4.6183,-4.6195,-4.6157,-4.6088,-4.6088,-4.6007,-4.5899,-4.5899,-4.5899,-4.591,-4.6041,-4.6091,-4.6091,-4.6091,-4.6176,-4.6249,-4.6138,-4.6176,-4.6277,-4.6277,-4.6296,-4.63,-4.63,-4.63,-4.63,-4.63,-4.63,-4.63,-4.63,-4.63,-4.63,-4.6296,-4.63,-4.63,-4.63,-4.63,-4.63,-4.63,-4.63,-4.6296,-4.6296,-4.6277,-4.6277,-4.6277,-4.6277,-4.6277,-4.6277,-4.6277,-4.6277,-4.63,-4.63,-4.63,-4.63,-4.63,-4.63,-4.6296,-4.6296,-4.6296,-4.6277,-4.6277,-4.6216,-4.6098,-4.6091,-4.6033,-4.5899,-4.5889,-4.5852,-4.58,-4.58,-4.5712,-4.5586,-4.5586,-4.5586,-2.607,-2.6701,-2.7284,-2.8593,-2.9462,-3.0271,-3.1435,-3.2266,-3.3045,-3.4137,-3.4704,-3.5442,-3.6946,-3.7677,-3.843,-3.9444,-4.0132,-4.0629,-4.0839,-4.0878,-4.0888,-4.0907,0.0,-4.1576,-4.3335,-4.35,-4.4231,-4.6046,-4.6187,-4.619,-4.6191,-4.6258,-4.63,-4.6273,-4.6288,-4.6279,-4.627,-4.6176,-4.6127,-4.6123,-4.6026,-4.5969,-4.5949,-4.5949,-4.592,-4.5899,-4.5899,-4.5899,-4.5899,-4.593,-4.594,-4.594,-4.594,-4.5978,-4.5996,-4.5949,-4.5978,-4.5996,-4.5996,-4.6138,-4.63,-4.63,-4.63,-4.63,-4.63,-4.63,-4.6277,-4.6181,-4.6216,-4.6273,-4.6176,-4.6236,-4.63,-4.63,-4.63,-4.63,-4.63,-4.6216,-4.6144,-4.6144,-4.6064,-4.5996,-4.5996,-4.5996,-4.5996,-4.5996,-4.5996,-4.6064,-4.6273,-4.63,-4.63,-4.63,-4.63,-4.6269,-4.617,-4.6144,-4.6105,-4.6005,-4.5996,-4.5987,-4.594,-4.594,-4.5908,-4.5829,-4.5815,-4.5766,-4.5635,-4.5635,-4.5637,-4.5586,-4.5586,-4.5495,-2.6552,-2.7108,-2.7564,-2.8454,-2.9317,-3.0179,-3.1174,-3.2084,-3.2992,-3.4119,-3.4752,-3.5459,-3.6684,-3.7623,-3.8535,-3.9307,-4.0096,-4.0655,-4.0837,-4.0858,-4.0868,-4.0907,-4.0924,-4.1607,-4.3332,-4.3558,-4.4301,-4.6074,-4.6191,-4.621,-4.6245,-4.627,-4.63,-4.6292,-4.6292,-4.626,-4.6209,-4.6142,-4.6074,-4.6008,-4.5938,-4.5875,-4.5859,-4.5859,-4.5815,-4.5769,-4.5769,-4.5769,-4.5783,-4.5835,-4.5859,-4.5859,-4.5859,-4.5875,-4.5899,-4.5863,-4.5875,-4.5899,-4.5899,-4.5996,-4.6112,-4.6112,-4.6112,-4.6138,-4.6187,-4.6176,-4.6112,-4.6105,-4.6105,-4.6105,-4.6041,-4.6064,-4.6112,-4.6112,-4.6112,-4.6112,-4.6112,-4.6057,-4.6005,-4.6005,-4.594,-4.5899,-4.5899,-4.5899,-4.5899,-4.5899,-4.5899,-4.5949,-4.6105,-4.6112,-4.6112,-4.6112,-4.6112,-4.6098,-4.6013,-4.6005,-4.5987,-4.591,-4.5899,-4.5897,-4.5859,-4.5859,-4.5815,-4.5712,-4.5696,-4.5668,-4.5586,-4.5586,-4.555,-4.5419,-4.5419,-4.5263,-2.7443,-2.7776,-2.8026,-2.8509,-2.9546,-3.0674,-3.1287,-3.2314,-3.3391,-3.456,-3.5157,-3.5812,-3.6746,-3.7903,-3.8861,-3.9378,-4.0098,-4.0648,-4.0781,-4.0834,-4.0848,-4.0917,-4.096,-4.1616,-4.32,-4.3564,-4.4355,-4.5917,-4.6152,-4.6246,-4.6303,-4.63,-4.6292,-4.6279,-4.6269,-4.6206,-4.608,-4.6063,-4.5998,-4.5902,-4.5875,-4.5835,-4.5771,-4.5771,-4.5715,-4.5586,-4.5586,-4.5586,-4.5603,-4.5731,-4.5771,-4.5771,-4.5771,-4.5815,-4.5844,-4.5789,-4.5815,-4.5856,-4.5856,-4.5856,-4.5856,-4.5889,-4.5899,-4.592,-4.6041,-4.5996,-4.592,-4.6033,-4.5978,-4.5899,-4.5889,-4.5889,-4.5899,-4.5899,-4.5899,-4.5899,-4.5899,-4.5889,-4.5878,-4.5856,-4.5856,-4.5856,-4.5856,-4.5856,-4.5856,-4.5856,-4.5856,-4.5856,-4.5856,-4.5878,-4.5899,-4.5899,-4.5899,-4.5899,-4.5878,-4.5897,-4.5878,-4.5856,-4.5856,-4.5828,-4.5786,-4.5771,-4.5731,-4.5603,-4.5586,-4.5586,-4.5586,-4.5568,-4.5419,-4.5201,-4.5161,-4.5007,-2.7108,-2.7855,-2.8593,-2.8657,-2.9628,-3.0793,-3.1886,-3.2275,-3.2924,-3.4464,-3.5157,-3.5865,-3.7023,-3.798,-3.8875,-3.9671,-4.0257,-4.0655,-4.0868,-4.0932,-4.096,-4.0974,-4.0994,-4.1423,-4.2496,-4.3261,-4.4118,-4.5138,-4.588,-4.6287,-4.63,-4.63,-4.6245,-4.6138,-4.6138,-4.6064,-4.5939,-4.5891,-4.5835,-4.5808,-4.5692,-4.5651,-4.5618,-4.5618,-4.562,-4.5586,-4.5586,-4.5586,-4.5603,-4.562,-4.5618,-4.5618,-4.5618,-4.5635,-4.5648,-4.5635,-4.5635,-4.5648,-4.5648,-4.5648,-4.5677,-4.5863,-4.5899,-4.591,-4.592,-4.592,-4.5889,-4.5866,-4.5883,-4.5878,-4.5829,-4.5871,-4.5899,-4.5899,-4.5899,-4.5899,-4.5899,-4.5859,-4.578,-4.568,-4.5648,-4.5648,-4.5648,-4.5648,-4.5648,-4.5648,-4.5648,-4.5648,-4.5648,-4.579,-4.5899,-4.5899,-4.5899,-4.5886,-4.5815,-4.5822,-4.5766,-4.5648,-4.5648,-4.5651,-4.5637,-4.5618,-4.562,-4.5586,-4.5586,-4.5586,-4.5586,-4.5381,-4.5243,-4.5201,-4.4985,-4.4726,-2.8247,-2.8925,-2.9614,-2.9614,-3.0556,-3.1675,-3.2517,-3.3383,-3.4252,-3.5357,-3.6205,-3.6949,-3.7524,-3.8467,-3.9306,-3.9728,-4.0308,-4.0751,-4.082,-4.0948,-4.0998,-4.0998,-4.1035,-4.1404,-4.2305,-4.2771,-4.3562,-4.4894,-4.5382,-4.5812,-4.628,-4.6221,-4.6138,-4.5996,-4.5996,-4.5949,-4.5847,-4.5822,-4.5771,-4.57,-4.5637,-4.5586,-4.5586,-4.5586,-4.5586,-4.5586,-4.5586,-4.5586,-4.5586,-4.5586,-4.5586,-4.5586,-4.5586,-4.5586,-4.5586,-4.5586,-4.5586,-4.5586,-4.5586,-4.5586,-4.562,-4.5703,-4.5742,-4.5756,-4.5822,-4.5796,-4.5761,-4.578,-4.5761,-4.5733,-4.5696,-4.5723,-4.5742,-4.5742,-4.5742,-4.5742,-4.5742,-4.5723,-4.5684,-4.5603,-4.5586,-4.5586,-4.5586,-4.5586,-4.5586,-4.5586,-4.5586,-4.5586,-4.5586,-4.5677,-4.5742,-4.5742,-4.5742,-4.5733,-4.57,-4.57,-4.5668,-4.5603,-4.5586,-4.5586,-4.5586,-4.5586,-4.5586,-4.5586,-4.5457,-4.54,-4.54,-4.5118,-4.4919,-4.4776,-4.465,-4.4457,-2.9566,-3.03,-3.0911,-3.0911,-3.1788,-3.2801,-3.3486,-3.4589,-3.5681,-3.6374,-3.7248,-3.7943,-3.8107,-3.8976,-3.9745,-3.985,-4.0395,-4.0809,-4.0843,-4.093,-4.1013,-4.1019,-4.1073,-4.1366,-4.2026,-4.2265,-4.3006,-4.4534,-4.4982,-4.5494,-4.623,-4.6138,-4.5996,-4.5886,-4.5886,-4.5847,-4.5757,-4.5757,-4.5696,-4.5586,-4.5586,-4.5586,-4.5586,-4.5531,-4.555,-4.5586,-4.555,-4.555,-4.5586,-4.5586,-4.5586,-4.5586,-4.5586,-4.5586,-4.5586,-4.5586,-4.5586,-4.5586,-4.5586,-4.5586,-4.5586,-4.5586,-4.5586,-4.562,-4.5731,-4.5684,-4.562,-4.5727,-4.5684,-4.5586,-4.5586,-4.5586,-4.5586,-4.5586,-4.5586,-4.5586,-4.5586,-4.5586,-4.5586,-4.5532,-4.5568,-4.5568,-4.5438,-4.5513,-4.5586,-4.5513,-4.5568,-4.5586,-4.5586,-4.5586,-4.5586,-4.5586,-4.5586,-4.5586,-4.5586,-4.5586,-4.5586,-4.5586,-4.5586,-4.5586,-4.5586,-4.5531,-4.5513,-4.5513,-4.5243,-4.5118,-4.5118,-4.4849,-4.4599,-4.4402,-4.4346,-4.4192,-3.0389,-3.1217,-3.2109,-3.2109,-3.2992,-3.4103,-3.5061,-3.5397,-3.5822,-3.6985,-3.7578,-3.8107,-3.8692,-3.9306,-3.9869,-4.035,0.0,-4.0839,-4.0967,-4.0983,-4.1021,-4.1073,-4.1107,-4.1101,-4.1134,-4.1844,-4.2656,-4.3481,-4.4958,-4.5909,-4.6105,-4.5996,-4.5886,-4.5808,-4.5808,-4.5757,-4.562,-4.562,-4.5603,-4.5586,-4.5586,-4.5586,-4.5586,-4.5342,-4.5362,-4.5586,-4.5342,-4.5362,-4.5586,-4.5586,-4.5586,-4.5586,-4.5586,-4.5586,-4.5586,-4.5586,-4.5586,-4.5586,-4.5586,-4.5586,-4.5586,-4.5586,-4.5586,-4.5603,-4.562,-4.5603,-4.5603,-4.562,-4.5603,-4.5586,-4.5586,-4.5586,-4.5586,-4.5586,-4.5586,-4.5586,-4.5586,-4.5586,-4.5513,-4.5263,-4.5438,-4.5457,-4.4962,-4.5282,-4.5513,-4.5263,-4.5438,-4.5586,-4.5586,-4.5586,-4.5586,-4.5586,-4.5586,-4.5586,-4.5586,-4.5586,-4.5586,-4.5586,-4.5586,-4.5586,-4.5586,-4.5381,-4.5243,-4.5243,-4.4985,-4.4825,-4.4843,-4.4572,-4.4411,-4.4383,-4.4151,-4.4017,-3.1562,-3.2439,-3.3323,-3.3323,-3.412,-3.5061,-3.5562,-3.6342,-3.7122,-3.7718,-3.8389,-3.8961,-3.9264,-3.9764,-4.0191,0.0,0.0,0.0,-4.0935,-4.101,-4.1055,-4.1046,-4.1042,-4.1006,-4.089,-4.1194,-4.1944,-4.3297,-4.4436,-4.5316,-4.5886,-4.5879,-4.5789,-4.5684,-4.5684,-4.5651,-4.5586,-4.5586,-4.5513,-4.5362,-4.5362,-4.5263,-4.5118,-4.5007,-4.503,-4.5096,-4.5007,-4.503,-4.5118,-4.5118,-4.5118,-4.5118,-4.5118,-4.5118,-4.5159,-4.5302,-4.5362,-4.5381,-4.5531,-4.5586,-4.5586,-4.5586,-4.5586,-4.5586,-4.5586,-4.5586,-4.5586,-4.5586,-4.5586,-4.5586,-4.5586,-4.5495,-4.5322,-4.5159,-4.5118,-4.5118,-4.5118,-4.5118,-4.5074,-4.4985,-4.518,-4.5243,-4.4849,-4.5096,-4.5282,-4.5007,-4.5052,-4.5118,-4.5118,-4.5118,-4.5118,-4.5118,-4.5263,-4.5362,-4.5362,-4.5222,-4.5118,-4.5118,-4.5118,-4.5118,-4.5118,-4.503,-4.4962,-4.4962,-4.4701,-4.4546,-4.4546,-4.4289,-4.4151,-4.4151,-4.4048,-4.4283,-3.2763,-3.3531,-3.4235,-3.4235,-3.5031,-3.5891,-3.6184,-3.7201,-3.82,-3.8523,-3.913,-3.9649,-3.9846,-4.0187,-4.0482,0.0,0.0,-4.0877,-4.0953,-4.1048,-4.1087,-4.1006,-4.0994,-4.0933,-4.0801,-4.0962,-4.1598,-4.2819,-4.3866,-4.4669,-4.5202,-4.5491,-4.5613,-4.5603,-4.5513,-4.5495,-4.5495,-4.54,-4.5263,-4.5074,-4.5074,-4.4985,-4.48,-4.4726,-4.4726,-4.4819,-4.4726,-4.4726,-4.48,-4.48,-4.48,-4.48,-4.48,-4.48,-4.4825,-4.5007,-4.5074,-4.5096,-4.5302,-4.5362,-4.5362,-4.5362,-4.5208,-4.4998,-4.4998,-4.5227,-4.5476,-4.54,-4.5362,-4.5362,-4.5362,-4.5222,-4.503,-4.4849,-4.48,-4.48,-4.48,-4.48,-4.4776,-4.4701,-4.4896,-4.4985,-4.4624,-4.4849,-4.5007,-4.4726,-4.4751,-4.48,-4.48,-4.48,-4.48,-4.48,-4.4896,-4.5007,-4.5074,-4.4915,-4.48,-4.48,-4.48,-4.48,-4.48,-4.4726,-4.4676,-4.4676,-4.443,-4.426,-4.426,-4.4091,-4.4005,-4.4005,-4.4265,-4.4971,-3.3969,-3.4382,-3.4769,-3.4769,-3.5674,-3.6716,-3.7175,-3.7896,-3.8683,-3.9425,-3.9697,-3.9948,-4.04,-4.0539,-4.0655,-4.0855,-4.0955,0.0,-4.1093,-4.1094,-4.1087,-4.1006,-4.0994,-4.091,-4.0718,-4.135,-4.1797,-4.1816,-4.3355,-4.419,-4.3921,-4.4743,-4.5322,-4.5586,-4.5342,-4.5201,-4.5201,-4.4938,-4.48,-4.48,-4.48,-4.48,-4.4776,-4.4519,-4.4546,-4.4795,-4.4519,-4.4546,-4.48,-4.48,-4.48,-4.48,-4.48,-4.48,-4.48,-4.48,-4.48,-4.48,-4.48,-4.48,-4.48,-4.48,-4.4251,-4.3611,-4.3611,-4.436,-4.5159,-4.4872,-4.48,-4.48,-4.48,-4.4819,-4.48,-4.48,-4.48,-4.48,-4.48,-4.48,-4.4726,-4.4438,-4.4624,-4.4624,-4.4109,-4.4457,-4.4701,-4.4438,-4.4624,-4.48,-4.48,-4.48,-4.48,-4.48,-4.4572,-4.4519,-4.4776,-4.48,-4.48,-4.48,-4.48,-4.48,-4.48,-4.4546,-4.4383,-4.4383,-4.4151,-4.3986,-4.3986,-4.4005,-4.4005,-4.4023,-4.4878,-4.6141,-3.5617,-3.6156,-3.6728,-3.6728,-3.7327,-3.7986,-3.8334,-3.8934,-3.9585,-4.0004,-4.0273,-4.0456,-4.0616,-4.077,-4.0894,-4.0964,-4.0943,-4.0937,-4.0969,-4.0929,-4.0869,-4.0801,-4.0703,-4.0577,-4.0386,-4.0571,-4.0883,-4.1301,-4.1815,-4.2347,-4.2851,-4.3669,-4.4395,-4.5033,-4.4985,-4.4938,-4.4938,-4.4825,-4.4701,-4.4519,-4.4519,-4.443,-4.425,-4.4181,-4.4181,-4.425,-4.4151,-4.4162,-4.425,-4.425,-4.425,-4.425,-4.425,-4.425,-4.4279,-4.4457,-4.4519,-4.4546,-4.4726,-4.48,-4.48,-4.48,-4.4251,-4.3564,-4.3372,-4.3686,-4.4197,-4.4673,-4.48,-4.4751,-4.4572,-4.4519,-4.4465,-4.4308,-4.425,-4.425,-4.425,-4.425,-4.4221,-4.4151,-4.4346,-4.443,-4.4048,-4.4289,-4.4457,-4.4181,-4.421,-4.425,-4.425,-4.425,-4.425,-4.425,-4.4181,-4.4221,-4.4493,-4.4346,-4.425,-4.425,-4.425,-4.425,-4.425,-4.4181,-4.4121,-4.4121,-4.4048,-4.4005,-4.4005,-4.4599,-4.5175,-4.5732,-4.655,-4.7098,0.0,-3.7345,-3.7708,-3.782,-3.8322,-3.885,-3.9016,-3.9645,-4.0248,-4.0417,-4.0626,-4.077,-4.0811,-4.089,-4.0952,-4.0955,-4.091,-4.0832,-4.076,-4.0704,-4.0616,-4.0458,-4.0332,-4.0194,-4.0062,-4.0042,-4.0212,-4.0577,-4.0896,-4.1291,-4.1728,-4.254,-4.319,-4.357,-4.4278,-4.465,-4.465,-4.4565,-4.443,-4.425,-4.425,-4.4181,-4.4005,-4.4005,-4.4005,-4.4005,-4.4005,-4.4005,0.0,-4.4005,-4.4005,-4.4005,-4.4005,-4.4005,-4.4036,-4.421,-4.425,-4.426,-4.443,-4.4511,-4.4511,-4.4511,-4.374,-4.2754,-4.2294,-4.2667,-4.3382,-4.389,-4.4267,-4.4457,-4.4289,-4.425,-4.4192,-4.4048,-4.4005,-4.4005,-4.4005,-4.4005,-4.4005,-4.4005,-4.4121,-4.421,-4.4017,-4.4151,-4.4192,-4.4036,-4.4005,-4.4005,-4.4005,-4.4005,-4.4005,-4.4005,-4.4005,-4.4079,-4.425,-4.4109,-4.4005,-4.4005,-4.4005,-4.4005,-4.4005,-4.4005,-4.4005,-4.4005,-4.4005,-4.4153,-4.4488,-4.5342,-4.6094,-4.6771,-4.727,-4.7517,0.0,-3.8083,-3.8108,-3.8311,-3.8887,-3.9384,-3.9406,-4.0098,0.0,-4.0719,-4.0827,-4.0922,-4.0999,-4.0957,-4.0896,-4.0886,-4.0831,-4.0722,-4.05,-4.0462,-4.0333,-4.0023,-3.9867,-3.9797,-3.9775,-3.9775,-3.9775,-3.9754,-4.0492,-4.0854,-4.0603,-4.1417,-4.1753,-4.1526,-4.3259,-4.4224,-4.428,-4.4102,-4.4005,-4.4005,-4.4005,-4.4005,-4.4005,-4.4005,-4.4005,-4.4005,-4.4005,-4.4005,-4.4005,-4.4005,-4.4005,-4.4036,-4.4036,-4.4036,-4.4036,-4.4036,-4.4036,-4.4036,-4.4036,-4.4036,-4.4017,-4.3906,-4.2779,-4.1349,-4.055,-4.1386,-4.2649,-4.276,-4.3336,-4.3931,-4.3986,-4.4005,-4.4005,-4.4005,-4.4005,-4.4005,-4.4005,-4.4005,-4.4005,-4.4005,-4.4005,-4.4005,-4.4005,-4.4005,-4.4005,-4.4005,-4.4005,-4.4005,-4.4005,-4.4005,-4.4005,-4.4005,-4.4005,-4.4005,-4.4005,-4.4005,-4.4005,-4.4005,-4.4005,-4.4005,-4.4005,-4.4005,-4.4005,-4.4005,-4.4061,-4.4544,-4.5472,-4.6182,-4.6808,-4.7279,-4.7279,-4.7496,-3.9983,0.0,-3.9681,-3.9785,-4.0055,-4.0307,0.0,0.0,0.0,0.0,0.0,-4.1047,-4.1019,-4.0994,-4.0947,-4.0848,-4.0771,-4.0636,-4.0371,-4.0132,-3.9947,-3.9865,-3.9821,-3.9731,-3.9585,-3.9561,-3.9508,-3.9279,-3.9466,-3.9552,-3.949,-4.0291,-4.0747,-4.068,-4.1715,-4.2545,-4.3178,-4.372,-4.4005,-4.4005,-4.4005,-4.4005,-4.4005,-4.4005,-4.4005,-4.4005,-4.4005,-4.4005,-4.4005,-4.4005,-4.4097,-4.4226,-4.4226,-4.4296,-4.4383,-4.4383,-4.4383,-4.4354,-4.4285,-4.4296,-4.4129,-4.2772,-4.1595,-4.0513,-3.9658,-4.0141,-4.1219,-4.2445,-4.2946,-4.3225,-4.3838,-4.4005,-4.4005,-4.4005,-4.4005,-4.4005,-4.4005,-4.4005,-4.4005,-4.4005,-4.4005,-4.4005,-4.4005,-4.4005,-4.4005,-4.4005,-4.4005,-4.4005,-4.4005,-4.4005,-4.4005,-4.4005,-4.4005,-4.4005,-4.4005,-4.4005,-4.4005,-4.4005,-4.4005,-4.4005,-4.4005,-4.4005,-4.4005,-4.4005,-4.4655,-4.5695,-4.7144,-4.7052,-4.7408,-4.8107,-4.7897,-4.7729,-4.0564,-4.0492,-4.0419,-4.0586,-4.0723,-4.0847,-4.0877,0.0,0.0,0.0,0.0,-4.1022,-4.0933,-4.0771,-4.0712,-4.0759,-4.0491,-4.0189,-3.9986,-3.9671,-3.9494,-3.9494,-3.9494,-3.9439,-3.9324,-3.9324,-3.9245,-3.9129,-3.9017,-3.896,-3.896,-3.9287,-3.9497,-3.9497,-4.0271,-4.1114,-4.2069,-4.2495,-4.2636,-4.2521,-4.2521,-4.2604,-4.2736,-4.3106,-4.3336,-4.3466,-4.3838,-4.4005,-4.4005,-4.4097,-4.4207,-4.4314,-4.4373,-4.443,-4.4515,-4.4515,-4.4515,-4.443,-4.3962,-4.3559,-4.3025,-4.1642,-4.0821,-4.0234,-3.9361,-3.9435,-4.0141,-4.1794,-4.2519,-4.2983,-4.3782,-4.4005,-4.4005,-4.4005,-4.4005,-4.4005,-4.4005,-4.4005,-4.4005,-4.4005,-4.4005,-4.4005,-4.4005,-4.4005,-4.4005,-4.4005,-4.4005,-4.4005,-4.4005,-4.4005,-4.4005,-4.4005,-4.4005,-4.4005,-4.4005,-4.4005,-4.4005,-4.4005,-4.4005,-4.4005,-4.4005,-4.3892,-4.3994,-4.4364,-4.5552,-4.6588,-4.7457,-4.7537,-4.7693,-4.7955,-4.7829,-4.7578,-4.0668,-4.066,-4.0681,-4.0945,-4.1054,-4.111,-4.1082,0.0,0.0,0.0,0.0,0.0,-4.0742,-4.0417,-4.0203,-4.037,-3.9928,-3.9532,-3.9445,-3.9227,-3.9101,-3.9101,-3.9101,-3.9101,-3.9045,-3.9045,-3.9045,-3.9017,-3.8833,-3.8743,-3.8743,-3.851,-3.8382,-3.8382,-3.9071,-3.9845,-4.0685,-4.1006,-4.102,-4.0821,-4.0821,-4.0954,-4.1217,-4.1917,-4.2358,-4.2649,-4.3367,0.0,-4.3695,-4.3863,-4.397,-4.3998,-4.4093,-4.4148,-4.4175,-4.4175,-4.4175,-4.4062,-4.3329,-4.2452,-4.1502,-4.0747,-4.0375,-4.0077,-3.9333,-3.9129,-3.9454,-4.1126,-4.2092,-4.2797,-4.3615,-4.3912,-4.4005,-4.4005,-4.4005,-4.4005,-4.4005,-4.4005,-4.4005,-4.4005,-4.4005,-4.4005,-4.4005,-4.4005,-4.4005,-4.4005,-4.4005,-4.4005,-4.4005,-4.4005,-4.4005,-4.4005,-4.3955,-4.3974,-4.4005,-4.3955,-4.3974,-4.4005,-4.3974,-4.3979,-4.4027,-4.383,-4.4136,-4.5055,-4.6434,-4.7206,-4.7297,-4.7725,-4.7788,-4.7511,-4.7468,-4.7249,-4.1003,-4.0863,-4.0759,-4.1024,-4.1093,-4.1082,-4.1023,0.0,0.0,0.0,0.0,0.0,0.0,-3.992,-3.9403,-3.8994,-3.871,-3.8676,-3.9085,-3.9146,-3.9101,-3.9101,-3.9101,-3.9017,-3.8862,-3.8851,-3.8743,-3.8541,-3.8478,-3.8446,-3.8446,-3.8415,-3.8382,-3.8382,-3.851,-3.8554,-3.8482,-4.0078,-4.0854,-4.0821,-4.0821,-4.0954,-4.1199,-4.1328,-4.1527,-4.1794,0.0,-4.2146,-4.2146,-4.2285,-4.2419,-4.2523,-4.2549,-4.2624,-4.2721,-4.2721,-4.2721,-4.2702,-4.2569,-4.1838,-4.094,-4.0911,-4.0258,-3.944,-3.9309,-3.9192,-3.9454,-4.1126,-4.1683,-4.1962,-4.2779,-4.3485,-4.4005,-4.4005,-4.4005,-4.4005,-4.4005,-4.4005,-4.4005,-4.4005,-4.4005,-4.4005,-4.4005,-4.4005,-4.4005,-4.4005,-4.4005,-4.4005,-4.4005,-4.4005,-4.4005,-4.4005,-4.3795,-4.3763,-4.3974,-4.3795,-4.3763,-4.4005,-4.3795,-4.3858,-4.4236,-4.4218,-4.4875,-4.6371,-4.6645,-4.7119,-4.7889,-4.7692,-4.7554,-4.7511,-4.7205,-4.7025,-4.0992,-4.0937,-4.0875,-4.0883,-4.0834,-4.0794,0.0,0.0,0.0,0.0,0.0,0.0,0.0,0.0,-3.8624,-3.869,-3.8611,-3.8617,-3.8896,-3.8807,-3.8707,-3.8707,-3.8707,-3.8695,-3.859,-3.859,-3.851,-3.8415,-3.8252,-3.8186,-3.8186,-3.8052,-3.7949,-3.7949,-3.7949,-3.7915,-3.7792,-3.8635,-3.9066,-3.9066,-3.9066,-3.9222,-3.9542,-4.0157,-4.0628,-4.095,0.0,-4.1911,-4.1911,-4.2044,-4.2146,-4.2197,-4.2295,-4.2342,-4.2412,-4.2412,-4.2128,-4.1726,-4.1657,-4.1019,-4.0183,-4.0128,-3.972,-3.9298,-3.9219,-3.9156,-3.9361,-4.0587,-4.1256,-4.1887,-4.3132,-4.3726,-4.4005,-4.4005,-4.4005,-4.4005,-4.4005,-4.4005,-4.4005,-4.4005,-4.4005,-4.4005,-4.4005,-4.4005,-4.4005,-4.4005,-4.4005,-4.4005,-4.4005,-4.4005,-4.3923,-4.3795,-4.3646,-4.3679,-4.3873,-4.3777,-4.3744,-4.3865,-4.4173,-4.4322,-4.4252,-4.5184,-4.5986,-4.6593,-4.6948,-4.7324,-4.7747,-4.7363,-4.7249,-4.7205,-4.707,-4.6998,-4.0879,-4.0838,-4.0769,-4.0615,-4.0605,0.0,0.0,0.0,0.0,0.0,0.0,0.0,0.0,-3.7839,-3.7394,-3.7856,-3.7845,-3.7842,-3.8046,-3.8076,-3.8141,-3.8141,-3.8305,-3.8382,-3.8318,-3.8318,-3.8285,-3.8219,-3.8018,-3.7915,-3.7915,-3.7721,-3.7577,-3.7577,-3.7577,-3.7577,-3.7577,-3.7577,-3.7577,-3.7577,-3.7613,-3.7774,-3.8119,-3.9095,-3.973,-4.0077,-4.1031,-4.1443,-4.1468,-4.1612,-4.1661,-4.1661,-4.1779,-4.1825,-4.1825,-4.1825,-4.1427,-4.0874,-4.0783,-4.0306,-3.9717,-3.9502,-3.9401,-3.9324,-3.9219,-3.9156,-3.9324,-4.0383,-4.1107,-4.1924,-4.3355,-4.3856,-4.4005,-4.4005,-4.4005,-4.4005,-4.4005,-4.4005,-4.4005,-4.4005,-4.4005,-4.4005,-4.4005,-4.4005,-4.4005,-4.4005,-4.4005,-4.4005,-4.4067,-4.4067,-4.4005,-4.3828,-4.3744,-4.3758,-4.3836,-4.4085,-4.4233,-4.4193,-4.4668,-4.4908,-4.4798,-4.6036,-4.6702,-4.6675,-4.7186,-4.7468,-4.7425,-4.7178,-4.7043,-4.7043,-4.698,-4.6998,-4.0723,-4.0499,-4.0245,-4.0236,-4.0597,0.0,-4.0366,-4.033,0.0,-3.9844,0.0,0.0,0.0,-3.667,-3.5329,-3.5348,-3.5192,-3.5253,-3.5752,-3.6653,-3.7301,-3.7301,-3.7958,-3.8318,-3.8052,-3.8018,-3.7933,-3.7685,-3.7649,-3.7613,-3.7613,-3.7613,-3.7577,-3.7577,-3.7577,-3.7577,-3.7577,-3.7577,-3.7577,-3.7577,-3.7667,-3.7845,-3.8101,-3.8572,-3.8929,-3.9203,-3.9677,-3.9882,-3.9882,-4.0015,-4.0079,-4.0079,-4.0079,-4.0079,-4.0079,-4.0079,-4.0022,-3.9984,-3.9984,-3.9946,-3.9889,-3.9867,-3.9689,-3.9483,-3.9458,-3.9298,-3.9435,-4.1051,-4.1553,-4.1794,-4.2649,-4.3448,-4.4005,-4.4005,-4.4005,-4.4005,-4.4005,-4.4005,-4.4005,-4.4005,-4.4005,-4.4005,-4.4005,-4.4005,-4.4005,-4.4005,-4.4005,-4.4067,-4.4237,-4.4285,-4.4314,-4.4411,-4.4162,-4.3986,-4.3967,-4.4942,-4.5517,-4.5387,-4.4957,-4.5259,-4.646,-4.6372,-4.6529,-4.7133,-4.7258,-4.7276,-4.7223,-4.7196,-4.7196,-4.7178,-4.7043,-4.6998,-4.0488,-4.0364,-4.012,-3.9546,-3.9622,0.0,0.0,-3.9237,-3.8379,-3.8199,-3.7718,0.0,0.0,0.0,-3.5472,-3.563,-3.532,-3.5195,-3.5548,-3.5822,-3.5936,-3.5936,-3.6206,-3.6568,-3.6968,-3.7022,-3.7184,-3.7577,-3.7577,-3.7577,-3.7577,-3.7577,-3.7577,-3.7577,-3.7577,-3.7613,-3.7667,-3.7667,-3.7685,-3.7793,-3.7703,-3.7757,-3.8002,-3.8517,-3.8857,-3.9073,-3.9599,-3.9826,-3.9826,-3.9889,-3.9889,-3.9889,-3.9889,-3.9889,-3.9889,-3.9889,-3.9889,-3.9889,-3.9889,-3.9889,-3.9889,-3.9804,-3.9693,-3.9623,-3.9526,-3.9427,-3.9687,-4.137,-4.1838,-4.2128,-4.3248,-4.3763,-4.4005,-4.4005,-4.4005,-4.4005,-4.4005,-4.4005,-4.4005,-4.4005,-4.4005,-4.4005,-4.4005,-4.4005,-4.4005,-4.4005,-4.4116,-4.4207,-4.4285,-4.4373,-4.4364,-4.4221,-4.4202,-4.4389,-4.4875,-4.5603,-4.6418,-4.7428,-4.6987,-4.6771,-4.6946,-4.7244,-4.7397,-4.7381,-4.732,-4.7276,-4.7232,-4.7232,-4.7232,-4.7249,-4.7178,-4.7178,-4.0267,-4.0021,-3.9623,-3.8878,0.0,0.0,-3.8804,-3.8061,-3.7165,-3.6986,-3.6213,-3.5466,-3.5082,0.0,0.0,-3.5109,-3.4749,-3.4539,-3.4717,-3.482,-3.4865,-3.4865,-3.5079,-3.5435,-3.5971,-3.6256,-3.6631,-3.7166,-3.7452,-3.7577,-3.7577,-3.7613,-3.7613,-3.7613,-3.7649,-3.7739,-3.7757,-3.7757,-3.781,-3.7899,-3.7739,-3.7775,-3.7951,-3.8486,-3.8799,-3.8915,-3.9508,-3.9781,-3.9781,-3.9867,-3.9889,-3.9889,-3.9889,-3.9889,-3.9889,-3.9889,-3.9889,-3.9889,-3.9889,-3.9889,-3.9889,-3.9804,-3.9739,-3.9693,-3.9599,-3.9739,-4.0196,-4.1605,-4.2187,-4.2658,-4.3863,-4.4158,-4.4158,-4.4158,-4.4158,-4.4158,-4.4158,-4.4158,-4.4158,-4.4158,-4.4158,-4.4158,-4.4158,-4.4158,-4.4158,-4.4158,-4.4266,-4.4373,-4.4411,-4.4515,-4.4505,-4.4299,-4.4402,-4.4823,-4.565,-4.6244,-4.7188,-4.8609,-4.8597,-4.8327,-4.7844,-4.8145,-4.8135,-4.7705,-4.7645,-4.7518,-4.7363,-4.7363,-4.7363,-4.7363,-4.7249,-4.7249,-4.0101,-3.9391,-3.8618,0.0,0.0,0.0,-3.6307,-3.6902,-3.7099,-3.649,-3.5708,-3.5018,-3.4812,-3.4134,0.0,-3.325,-3.3024,-3.2916,-3.2916,-3.358,-3.4097,-3.4097,-3.474,-3.5186,-3.5204,-3.5917,-3.6381,-3.6399,-3.7131,-3.7577,-3.7577,-3.7667,-3.7703,-3.7703,-3.7846,-3.7899,-3.7899,-3.7899,-3.7899,-3.7899,-3.7899,-3.7916,-3.8018,-3.8428,-3.8585,-3.8646,-3.9253,-3.9502,-3.9508,-3.9781,-3.9889,-3.9889,-3.9889,-3.9889,-3.9889,-3.9889,-3.9889,-3.9889,-3.9889,-3.9889,-3.9889,-3.9889,-3.9804,-3.9717,-3.9717,-4.0226,-4.0973,-4.1781,-4.2618,-4.3482,-4.4289,-4.4496,-4.4515,-4.4515,-4.4515,-4.4515,-4.4515,-4.4515,-4.4515,-4.4515,-4.4515,-4.4515,-4.4515,-4.4515,-4.4515,-4.4515,-4.4515,-4.4551,-4.4667,-4.4712,-4.4745,-4.4889,-4.4914,-4.5274,-4.6146,-4.6942,-4.7776,-4.8647,-4.9443,-4.9741,-4.9396,-4.9005,-4.8604,-4.8114,-4.8249,-4.8032,-4.7511,-4.7511,-4.7511,-4.7511,-4.7363,-4.7302,-3.9124,-3.8331,0.0,-3.6648,0.0,0.0,0.0,-3.474,0.0,0.0,-3.4164,-3.38,-3.3933,-3.349,0.0,-3.319,-3.3024,-3.2916,-3.2916,-3.3098,-3.3241,-3.3241,-3.3437,-3.3794,-3.4383,-3.5114,-3.5792,-3.6363,-3.7131,-3.7577,-3.7577,-3.7667,-3.7703,-3.7703,-3.7846,-3.7916,-3.7967,-3.7967,-3.802,-3.8124,-3.8124,-3.8054,-3.8018,-3.8382,-3.8658,-3.8915,-3.9313,-3.9599,-3.9781,-3.9867,-3.9889,-3.9889,-3.9889,-3.9889,-3.9889,-3.9889,-3.9889,-3.9889,-3.9889,-3.9889,-3.9889,-3.9889,-3.9867,-3.9826,-3.9826,-4.0409,-4.1236,-4.2049,-4.2899,-4.3769,-4.4562,-4.477,-4.4719,-4.4524,-4.4515,-4.4515,-4.4515,-4.4515,-4.4515,-4.4515,-4.4515,-4.4515,-4.4515,-4.4515,-4.4515,-4.4515,-4.4578,-4.4685,-4.4821,-4.4821,-4.4865,-4.4914,-4.5445,-4.6146,-4.6961,-4.7813,-4.8666,-4.9481,-4.9765,-4.9741,-4.9396,-4.9302,-4.9005,-4.8604,-4.8383,-4.8229,-4.8072,-4.7765,-4.7657,-4.7615,-4.7511,-4.7511,-3.7947,-3.7094,0.0,-3.5547,-3.4981,-3.4402,-3.3679,0.0,0.0,0.0,-3.3379,-3.322,-3.3298,-3.3147,0.0,-3.3068,-3.2961,-3.2916,-3.2916,-3.2916,-3.2916,-3.2916,-3.2916,-3.308,-3.358,-3.4579,-3.54,-3.5899,-3.6952,-3.7613,-3.7649,-3.7721,-3.7792,-3.781,-3.7951,-3.8038,-3.8088,-3.8088,-3.8122,-3.8192,-3.8192,-3.8174,-3.8088,-3.8271,-3.8554,-3.8857,-3.9313,-3.9647,-3.9889,-3.9889,-3.9889,-3.9889,-3.9889,-3.9889,-3.9889,-3.9889,-3.9889,-3.9889,-3.9889,-3.9889,-3.9889,-3.9889,-3.9889,-3.9889,-3.9889,-4.0745,-4.1787,-4.2261,-4.3265,-4.4289,-4.4762,-4.4895,-4.4846,-4.4712,-4.4659,-4.4659,-4.4659,-4.4659,-4.4659,-4.4659,-4.4659,-4.4659,-4.4659,-4.4659,-4.4659,-4.4659,-4.4738,-4.4815,-4.4895,-4.4895,-4.4895,-4.4895,-4.5672,-4.6525,-4.7321,-4.8193,-4.9026,-4.9841,-4.9898,-4.9797,-4.9625,-4.9596,-4.9408,-4.9038,-4.8853,-4.8641,-4.8495,-4.8111,-4.7929,-4.7929,-4.7681,-4.7615,-3.6649,-3.5773,0.0,-3.4825,-3.4032,0.0,-3.322,-3.319,-3.319,-3.319,0.0,-3.3099,-3.293,-3.3055,-3.3099,-3.2948,-3.2916,-3.2916,-3.2916,-3.2916,-3.2916,-3.2916,-3.2916,-3.2952,-3.2991,-3.4347,-3.5239,-3.5311,-3.672,-3.7649,-3.7703,-3.7846,-3.7951,-3.7984,-3.8122,-3.8192,-3.8192,-3.8192,-3.8192,-3.8192,-3.8192,-3.8192,-3.8192,-3.8192,-3.8354,-3.8658,-3.9261,-3.967,-3.9889,-3.9889,-3.9889,-3.9889,-3.9889,-3.9889,-3.9889,-3.9889,-3.9889,-3.9889,-3.9889,-3.9889,-3.9889,-3.9889,-3.9889,-3.9908,-3.9984,-4.1143,-4.2431,-4.2507,-4.3682,-4.4895,-4.4895,-4.4895,-4.4895,-4.4895,-4.4895,-4.4895,-4.4895,-4.4895,-4.4895,-4.4895,-4.4895,-4.4895,-4.4895,-4.4895,-4.4895,-4.4895,-4.4895,-4.4895,-4.4895,-4.4895,-4.4933,-4.5009,-4.5786,-4.6639,-4.7453,-4.8306,-4.9102,-4.9841,-4.9898,-4.9898,-4.9898,-4.9898,-4.9769,-4.9427,-4.9415,-4.922,-4.885,-4.8495,-4.8344,-4.8306,-4.7929,-4.7759,-3.5536,-3.4705,0.0,0.0,-3.3358,-3.3024,-3.3042,-3.2993,-3.3024,-3.316,-3.3068,-3.293,-3.2916,-3.2948,-3.2948,-3.2916,-3.2916,-3.2916,-3.2916,-3.2916,-3.2916,-3.2916,-3.2916,-3.3134,-3.3776,-3.4668,-3.5471,-3.6096,-3.7095,-3.7667,-3.7703,-3.7898,-3.8002,-3.7984,-3.8122,-3.8192,-3.8192,-3.8192,-3.8192,-3.8192,-3.8192,-3.8192,-3.8192,-3.8192,-3.8478,-3.8943,-3.9556,-3.9845,-3.9889,-3.9889,-3.9889,-3.9889,-3.9889,-3.9889,-3.9889,-3.9889,-3.9889,-3.9889,-3.9889,-3.9889,-3.9889,-3.9889,-3.9889,-4.0022,-4.0726,-4.1616,-4.2545,-4.3227,-4.4137,-4.4895,-4.4895,-4.4895,-4.4895,-4.4895,-4.4895,-4.4895,-4.4895,-4.4895,-4.4895,-4.4895,-4.4895,-4.4895,-4.4895,-4.4895,-4.4895,-4.4895,-4.4895,-4.4895,-4.4895,-4.4895,-4.516,-4.5843,-4.6639,-4.7491,-4.8344,-4.9159,-4.9709,-4.9879,-4.9898,-4.9898,-4.9898,-4.9898,-4.9871,-4.9797,-4.9518,-4.9365,-4.927,-4.8869,-4.8569,-4.8306,-4.819,-4.801,-3.4319,0.0,0.0,-3.3172,0.0,-3.2948,-3.2948,-3.2916,-3.2948,-3.3024,-3.2961,-3.2916,-3.2916,-3.2916,-3.2916,-3.2916,-3.2916,-3.2916,-3.2916,-3.2916,-3.2852,-3.2639,-3.277,-3.3123,-3.3755,-3.4707,-3.5647,-3.6434,-3.7291,-3.7792,-3.7845,-3.7949,-3.8036,-3.8088,-3.8174,-3.8192,-3.8192,-3.8192,-3.8192,-3.8192,-3.8192,-3.8192,-3.8225,-3.8478,-3.873,-3.9036,-3.9628,-3.9889,-3.9889,-3.9889,-3.9889,-3.9889,-3.9889,-3.9889,-3.9889,-3.9889,-3.9889,-3.9889,-3.9889,-3.9889,-3.9889,-3.9889,-3.9889,-4.006,-4.0953,-4.1768,-4.2583,-4.3455,-4.4289,-4.4895,-4.4895,-4.4895,-4.4895,-4.4895,-4.4895,-4.4895,-4.4895,-4.4895,-4.4895,-4.4895,-4.4895,-4.4895,-4.4895,-4.4895,-4.4895,-4.4895,-4.4895,-4.4895,-4.4895,-4.4895,-4.5236,-4.6108,-4.6923,-4.7738,-4.8628,-4.9424,-4.9898,-4.9898,-4.9898,-4.9898,-4.9898,-4.9898,-4.9898,-4.9898,-4.9741,-4.9655,-4.9655,-4.9283,-4.9023,-4.8818,-4.8476,-4.819,-3.3517,0.0,-3.2979,-3.2916,-3.2948,0.0,-3.2916,-3.2916,-3.2916,-3.2916,-3.2916,-3.2884,-3.2802,-3.282,-3.277,-3.2705,-3.2737,-3.282,-3.282,-3.2852,-3.2787,-3.2454,-3.2829,-3.3303,-3.3759,-3.4869,-3.5948,-3.6718,-3.7486,-3.7951,-3.7984,-3.8018,-3.8088,-3.8192,-3.8192,-3.8192,-3.8192,-3.8192,-3.8192,-3.8192,-3.8241,-3.8289,-3.8354,-3.8876,-3.9036,-3.9036,-3.9628,-3.9889,-3.9889,-3.9889,-3.9889,-3.9889,-3.9889,-3.9889,-3.9889,-3.9889,-3.9889,-3.9889,-3.9889,-3.9889,-3.9889,-3.9889,-3.9889,-4.006,-4.0953,-4.1768,-4.2583,-4.3455,-4.4289,-4.4895,-4.4895,-4.4895,-4.4895,-4.4895,-4.4895,-4.4895,-4.4895,-4.4895,-4.4895,-4.4895,-4.4895,-4.4895,-4.4895,-4.4895,-4.4895,-4.4895,-4.4895,-4.4895,-4.4895,-4.4895,-4.5293,-4.6297,-4.6999,-4.7813,-4.8818,-4.95,-4.9898,-4.9898,-4.9898,-4.9898,-4.9898,-4.9898,-4.9898,-4.9898,-4.9898,-4.9898,-4.9898,-4.9625,-4.9476,-4.9384,-4.8783,-4.8439,-3.4184,0.0,-3.2916,0.0,-3.2916,-3.2916,0.0,0.0,-3.2916,0.0,-3.2916,-3.2802,-3.2454,-3.2386,-3.2283,-3.1913,-3.2162,-3.2386,-3.2386,-3.2672,-3.2884,-3.282,-3.3476,-3.4207,-3.4921,-3.5879,-3.6754,-3.7506,-3.7826,-3.7984,-3.7984,-3.8122,-3.8174,-3.8192,-3.8192,-3.8192,-3.8192,-3.8192,-3.8192,-3.8192,-3.8433,-3.8658,-3.8915,-3.9261,-3.9268,-3.9036,-3.9628,-3.9889,-3.9889,-3.9889,-3.9889,-3.9889,-3.9889,-3.9889,-3.9889,-3.9889,-3.9889,-3.9889,-3.9889,-3.9889,-3.9889,-3.9889,-3.9889,-4.006,-4.0953,-4.1768,-4.2583,-4.3455,-4.4289,-4.4895,-4.4895,-4.4895,-4.4895,-4.4895,-4.4895,-4.4895,-4.4895,-4.4895,-4.4895,-4.4895,-4.4895,-4.4895,-4.4895,-4.4895,-4.4895,-4.4895,-4.4895,-4.4895,-4.4895,-4.4895,-4.5501,-4.7074,-4.734,-4.8041,-4.9595,-4.9822,-4.9898,-4.9898,-4.9898,-4.9898,-4.9898,-4.9898,-4.9898,-4.9898,-4.9898,-4.9898,-4.9898,-4.9871,-4.9683,-4.9415,-4.9302,-4.9057,-3.4311,-3.3573,-3.2993,0.0,-3.2979,-3.2993,-3.2993,-3.2979,-3.2884,-3.2654,-3.2588,-3.2488,-3.2318,-3.2127,-3.1913,-3.1714,-3.2056,-3.2283,-3.2283,-3.2639,-3.298,-3.3208,-3.3732,-3.4494,-3.5527,-3.6238,-3.7001,-3.7826,-3.8002,-3.8122,-3.8122,-3.8174,-3.8192,-3.8192,-3.8192,-3.8192,-3.8192,-3.8354,-3.851,-3.8658,-3.8759,-3.8886,-3.9008,-3.9408,-3.9458,-3.9294,-3.9717,-3.9889,-3.9911,-3.9933,-3.9954,-3.9954,-3.9994,-4.0015,-4.0015,-3.9975,-3.9954,-3.9954,-3.9911,-3.9889,-3.9889,-3.9889,-3.9889,-4.006,-4.0953,-4.1768,-4.2583,-4.3455,-4.4289,-4.4895,-4.4895,-4.4895,-4.4895,-4.4895,-4.4895,-4.4895,-4.4895,-4.4895,-4.4895,-4.4895,-4.4919,-4.4962,-4.4962,-4.501,-4.4991,-4.4943,-4.4962,-4.4943,-4.4895,-4.4895,-4.5539,-4.7226,-4.7397,-4.8079,-4.9746,-4.9898,-4.9898,-4.9898,-4.9898,-4.9898,-4.9898,-4.9769,-4.9693,-4.9693,-4.9824,-4.9898,-4.9898,-4.9898,-4.9824,-4.9722,-4.9548,-4.9358,0.0,0.0,-3.3024,-3.2979,-3.3042,-3.3055,0.0,0.0,-3.2802,0.0,-3.2231,-3.2038,-3.1985,-3.175,-3.1528,-3.1528,-3.1877,-3.2162,-3.2283,-3.2816,-3.3303,-3.3617,-3.4249,-3.5064,-3.606,-3.6666,-3.7268,-3.7948,-3.8122,-3.8192,-3.8192,-3.8192,-3.8192,-3.8192,-3.8192,-3.8192,-3.8192,-3.8465,-3.8778,-3.9136,-3.9136,-3.9144,-3.9242,-3.9532,-3.9647,-3.9647,-3.9826,-3.9933,-3.9933,-3.9954,-3.9975,-3.9996,-4.0057,-4.0077,-4.0077,-4.0036,-4.0036,-4.0036,-3.9973,-3.9933,-3.9933,-3.9933,-3.9911,-4.0003,-4.0688,-4.1598,-4.2545,-4.3189,-4.4118,-4.4895,-4.4895,-4.4895,-4.4895,-4.4895,-4.4895,-4.4895,-4.4895,-4.4895,-4.4914,-4.4919,-4.4986,-4.501,-4.5014,-4.508,-4.508,-4.5014,-4.5033,-4.501,-4.4943,-4.4943,-4.5588,-4.7258,-4.7448,-4.8131,-4.98,-4.9952,-4.9952,-4.9952,-4.9952,-4.9952,-4.9952,-4.975,-4.9617,-4.9529,-4.9722,-4.9805,-4.9805,-4.9805,-4.9906,-5.0031,-4.9778,-4.9674,0.0,-3.3508,0.0,-3.2916,-3.2948,-3.3028,0.0,0.0,-3.2588,-3.2419,-3.1823,-3.1317,-3.1201,-3.1162,-3.1123,-3.1123,-3.1452,-3.186,-3.2249,-3.3294,-3.4062,-3.4064,-3.5382,-3.6363,-3.654,-3.7344,-3.788,-3.7984,-3.8122,-3.8192,-3.8192,-3.8192,-3.8192,-3.8192,-3.8192,-3.8192,-3.8192,-3.8465,-3.8876,-3.9458,-3.9458,-3.9599,-3.9848,-3.9867,-3.9911,-3.9975,-3.9996,-3.9996,-3.9996,-3.9933,-3.9933,-3.9996,-3.9996,-3.9996,-3.9996,-4.0077,-4.0077,-4.0077,-4.0077,-4.0057,-3.9996,-3.9996,-3.9954,-3.9908,-3.9946,-4.1124,-4.2412,-4.245,-4.3644,-4.4895,-4.4895,-4.4895,-4.4895,-4.4895,-4.4895,-4.4895,-4.4895,-4.4895,-4.4919,-4.4967,-4.501,-4.5014,-4.5061,-4.5103,-4.5103,-4.5103,-4.5084,-4.5103,-4.5103,-4.5103,-4.5731,-4.74,-4.7596,-4.8256,-4.9949,-5.0082,-5.0082,-5.0082,-5.0082,-5.0082,-5.0082,-5.0082,-4.9914,-4.9598,-4.9598,-4.9617,-4.9617,-4.9617,-4.9787,-5.0108,-5.0082,-5.0082,0.0,0.0,0.0,-3.2196,-3.2283,-3.2369,-3.2369,-3.2283,-3.2144,-3.1806,-3.1582,-3.1351,-3.1038,-3.0838,-3.0699,-3.0699,-3.1261,-3.175,-3.1896,-3.3176,-3.4294,-3.4757,-3.5844,-3.6772,-3.7362,-3.7754,-3.802,-3.8122,-3.8174,-3.8192,-3.8192,-3.8192,-3.8192,-3.8192,-3.8192,-3.8368,-3.87,-3.8818,-3.9163,-3.9758,-3.9758,-3.9804,-3.9911,-3.9933,-3.9954,-3.9933,-4.0036,-4.0057,-4.0057,-4.0077,-4.0098,-4.0118,-4.0176,-4.0176,-4.0118,-4.0157,-4.0137,-4.0117,-4.0117,-4.0077,-4.0057,-4.0017,-3.9975,-3.9954,-3.9911,-4.0726,-4.1749,-4.2261,-4.3246,-4.4251,-4.4762,-4.4895,-4.4895,-4.4895,-4.4895,-4.4895,-4.4895,-4.4919,-4.4967,-4.5057,-4.5103,-4.5148,-4.517,-4.5192,-4.5213,-4.517,-4.517,-4.5148,-4.5103,-4.5103,-4.554,-4.6701,-4.7291,-4.8071,-4.9232,-4.9803,-5.0108,-5.0108,-5.0108,-5.0108,-5.0108,-4.9731,-4.9461,-4.934,-4.8952,-4.8937,-4.9296,-4.9296,-4.937,-4.9521,-4.9521,-4.955,-3.251,0.0,0.0,0.0,-3.1842,-3.195,-3.195,-3.1878,-3.1714,-3.1414,-3.1295,-3.1173,-3.0855,-3.0692,-3.0593,-3.0757,-3.1201,-3.1528,-3.1677,-3.3071,-3.4253,-3.4747,-3.5971,-3.7006,-3.7596,-3.788,-3.8036,-3.8192,-3.8192,-3.8192,-3.8192,-3.8192,-3.8192,-3.8192,-3.8192,-3.8446,-3.898,-3.9008,-3.9294,-3.9889,-3.9889,-3.9889,-3.9911,-3.9954,-3.9954,-3.9933,-4.0057,-4.0117,-4.0098,-4.0157,-4.0176,-4.0196,-4.0253,-4.0253,-4.0196,-4.0234,-4.0215,-4.0157,-4.0137,-4.0137,-4.0118,-4.0057,-4.0017,-4.0017,-3.9954,-4.0542,-4.1339,-4.1844,-4.2853,-4.3839,-4.4364,-4.4706,-4.4895,-4.4895,-4.4895,-4.4914,-4.4919,-4.4967,-4.5014,-4.5103,-4.5148,-4.5213,-4.5213,-4.5275,-4.5297,-4.5235,-4.5235,-4.5213,-4.517,-4.517,-4.5494,-4.6351,-4.7171,-4.8029,-4.8905,-4.9706,-5.0158,-5.0158,-5.0158,-5.0114,-4.9993,-4.9608,-4.929,-4.9067,-4.8658,-4.8605,-4.8834,-4.8919,-4.9085,-4.9227,-4.9227,-4.9196,0.0,0.0,0.0,0.0,0.0,0.0,-3.1735,0.0,-3.1376,-3.1295,-3.0958,-3.0692,-3.0692,-3.0692,-3.0855,-3.1218,-3.1162,-3.1223,-3.164,-3.3041,-3.4007,-3.4007,-3.5832,-3.7129,-3.719,-3.7667,-3.8036,-3.8192,-3.8192,-3.8192,-3.8192,-3.8192,-3.8192,-3.8192,-3.8192,-3.8446,-3.898,-3.9008,-3.9294,-3.9889,-3.9889,-3.9889,-3.9889,-3.9889,-3.9933,-3.9996,-4.0057,-4.0096,-4.0117,-4.0098,-4.0157,-4.0196,-4.0196,-4.0196,-4.0196,-4.0291,-4.031,-4.0291,-4.0215,-4.0196,-4.0196,-4.0137,-4.0117,-4.0096,-4.0017,-4.0589,-4.1254,-4.1203,-4.242,-4.3715,-4.3706,-4.4308,-4.4895,-4.4895,-4.4895,-4.4919,-4.4967,-4.501,-4.5014,-4.5103,-4.5148,-4.5213,-4.5297,-4.5297,-4.5297,-4.5297,-4.5297,-4.5297,-4.5297,-4.5297,-4.5602,-4.6385,-4.7245,-4.8124,-4.8984,-4.9805,-5.0264,-5.0302,-5.0302,-5.0144,-4.9811,-4.9784,-4.9483,-4.8816,-4.8781,-4.8623,-4.8306,-4.8623,-4.8967,-4.9252,-4.9252,-4.9113,-3.0821,0.0,0.0,0.0,0.0,0.0,-3.0845,0.0,-3.0878,-3.0878,-3.0855,-3.0814,-3.0814,-3.079,-3.0733,-3.0855,-3.1061,-3.1278,-3.1411,-3.2982,-3.4142,-3.4202,-3.5697,-3.6917,-3.7301,-3.7451,-3.7685,0.0,-3.8192,-3.8192,-3.8192,-3.8192,-3.8192,-3.8192,-3.8192,-3.8446,-3.898,-3.9008,-3.9294,-3.9889,-3.9889,-3.9889,-3.9889,-3.9889,-3.9911,-3.9933,-3.9996,-4.0057,-4.0117,-4.0196,-4.0253,-4.0272,-4.0272,-4.0253,-4.0196,-4.0291,-4.0272,-4.0234,-4.0253,-4.0253,-4.0196,-4.0176,-4.0137,-4.0096,-4.0077,-4.0248,-4.0553,-4.1121,-4.1632,-4.2275,-4.3402,-4.4308,-4.4895,-4.4895,-4.4895,-4.4914,-4.4919,-4.4986,-4.5014,-4.5148,-4.5233,-4.5275,-4.5297,-4.5297,-4.5297,-4.5297,-4.5297,-4.5297,-4.5297,-4.5297,-4.5392,-4.5602,-4.6366,-4.7207,-4.8086,-4.8945,-4.9671,-5.0264,-5.0302,-5.0144,-4.9811,-4.957,-4.924,-4.8816,-4.855,-4.8402,-4.8306,-4.8402,-4.8495,-4.8586,-4.8586,-4.8532,-3.0526,-3.0526,-3.0526,-3.0526,0.0,0.0,-3.0526,-3.0568,-3.0609,0.0,-3.0692,-3.0733,-3.0831,-3.0733,-3.0692,-3.0692,-3.0878,-3.1038,-3.1038,-3.2564,-3.3704,-3.3785,-3.548,-3.6764,-3.7094,-3.7469,-3.7827,-3.8174,-3.8192,-3.8192,-3.8192,-3.8192,-3.8192,-3.8192,-3.8192,-3.8446,-3.898,-3.9008,-3.9294,-3.9889,-3.9889,-3.9889,-3.9889,-3.9889,-3.9889,-3.9911,-3.9975,-4.0017,-4.0077,-4.0196,-4.0272,-4.031,-4.031,-4.0291,-4.0253,-4.0291,-4.0291,-4.0253,-4.0253,-4.0253,-4.0234,-4.0176,-4.0176,-4.0157,-4.0117,-4.0137,-4.0271,-4.0687,-4.1026,-4.167,-4.332,-4.4075,-4.4531,-4.4868,-4.4943,-4.4919,-4.4914,-4.4967,-4.5061,-4.5148,-4.5213,-4.5275,-4.5297,-4.5297,-4.5297,-4.5297,-4.5297,-4.5297,-4.5297,-4.5297,-4.5297,-4.5297,-4.6023,-4.671,-4.7207,-4.8391,-4.9289,-4.9767,-4.9978,-4.9955,-4.9618,-4.9271,-4.8934,-4.8586,-4.8402,-4.8306,-4.8306,-4.8306,-4.8306,-4.8306,-4.8306,-4.8306,-3.0526,-3.0526,-3.0526,-3.0526,-3.0526,0.0,-3.0526,-3.0526,-3.0526,0.0,-3.0526,-3.0526,-3.0651,-3.0692,-3.0692,-3.0692,-3.0692,-3.0692,-3.0692,-3.1957,-3.2977,-3.3125,-3.5211,-3.6666,-3.6786,-3.7559,-3.8106,-3.8192,-3.8192,-3.8192,-3.8192,-3.8192,-3.8192,-3.8192,-3.8225,-3.851,-3.898,-3.9036,-3.9345,-3.9889,-3.9889,-3.9889,-3.9889,-3.9889,-3.9889,-3.9911,-3.9954,-3.9996,-3.9996,-4.0118,-4.0215,-4.0291,-4.031,-4.031,-4.031,-4.031,-4.031,-4.0291,-4.0234,-4.0253,-4.0253,-4.0157,-4.0176,-4.0273,-4.0157,-4.0215,-4.0272,-4.0137,-4.0687,-4.1658,-4.3142,-4.3656,-4.3977,-4.4691,-4.4915,-4.4967,-4.4919,-4.4991,-4.508,-4.5103,-4.5148,-4.5213,-4.5297,-4.5297,-4.5297,-4.5297,-4.5297,-4.5297,-4.5297,-4.5297,-4.5297,-4.5297,-4.5946,-4.6405,-4.65,-4.7914,-4.8888,-4.9014,-4.9423,-4.9552,-4.9271,-4.8967,-4.8658,-4.8306,-4.8306,-4.8306,-4.8306,-4.8306,-4.8306,-4.8306,-4.8306,-4.8306,-3.0526,-3.0526,-3.0526,-3.0526,-3.0526,0.0,-3.0526,-3.0526,-3.0526,-3.0526,-3.0526,-3.0526,-3.051,-3.0526,-3.0526,-3.0526,-3.0526,-3.0568,-3.0692,-3.1957,-3.3074,-3.3522,-3.5019,-3.6333,-3.717,-3.7358,-3.7632,-3.814,-3.8192,-3.8192,-3.8192,-3.8192,-3.8192,-3.8192,-3.8401,-3.8688,-3.9008,-3.9287,-3.9556,-3.9889,-3.9889,-3.9889,-3.9889,-3.9889,-3.9889,-3.9889,-3.9911,-3.9954,-3.9996,-4.0017,-4.0098,-4.0215,-4.0272,-4.031,-4.031,-4.031,-4.031,-4.031,-4.0291,-4.0253,-4.0234,-4.0196,-4.0196,-4.0215,-4.0196,-4.0234,-4.0272,-4.0196,-4.0767,-4.1433,-4.1715,-4.28,-4.3847,-4.3996,-4.4543,-4.501,-4.4967,-4.4943,-4.4943,-4.4991,-4.517,-4.5297,-4.5297,-4.5297,-4.5297,-4.5297,-4.5297,-4.5297,-4.5297,-4.5297,-4.5297,-4.5297,-4.543,-4.5793,-4.6443,-4.6806,-4.7499,-4.8631,-4.8787,-4.8852,-4.8915,-4.8832,-4.8658,-4.8306,-4.8306,-4.8306,-4.8306,-4.8306,-4.8306,-4.8306,-4.8306,-4.8306,-3.0359,-3.0215,-3.0027,-3.0027,-3.0113,0.0,0.0,-3.0342,-3.0526,-3.0526,-3.0526,-3.0526,-3.0526,-3.0526,-3.0526,-3.0526,-3.0526,-3.0642,-3.1108,-3.2147,-3.3004,-3.3347,-3.5086,-3.644,-3.6999,-3.7432,-3.7845,-3.8174,-3.8192,-3.8192,-3.8192,-3.8192,-3.8192,-3.8192,-3.8322,-3.8523,-3.8789,-3.9082,-3.9389,-3.9693,-3.9845,-3.9889,-3.9889,-3.9889,-3.9889,-3.9889,-3.9889,-3.9911,-3.9954,-3.9975,-4.0057,-4.0098,-4.0196,-4.0253,-4.0253,-4.0291,-4.031,-4.031,-4.031,-4.0253,-4.0196,-4.0157,-4.0157,-4.0157,-4.0157,-4.0234,-4.0291,-4.0253,-4.054,-4.0921,-4.1261,-4.1985,-4.2802,-4.3615,-4.4102,-4.4516,-4.4915,-4.4967,-4.4967,-4.508,-4.5148,-4.5213,-4.5235,-4.5254,-4.5194,-4.5087,-4.5045,-4.5,-4.4862,-4.4838,-4.4887,-4.5045,-4.5045,-4.5217,-4.5616,-4.6054,-4.6548,-4.7116,-4.7757,-4.8116,-4.8218,-4.8436,-4.8458,-4.8306,-4.8306,-4.8306,-4.8306,-4.8306,-4.8306,-4.8306,-4.8306,-4.8306,-2.9957,-2.9677,-2.9438,-2.9422,-2.9528,-2.9572,0.0,0.0,0.0,-3.0199,-3.0199,-3.0258,-3.0342,0.0,-3.0384,-3.0485,-3.0526,0.0,0.0,-3.2237,0.0,-3.3326,-3.528,-3.6666,-3.6764,-3.7613,-3.8158,-3.8192,-3.8192,-3.8174,-3.8192,-3.8192,-3.8192,-3.8192,-3.8241,-3.8401,-3.8658,-3.8943,-3.9242,-3.9575,-3.9781,-3.9889,-3.9889,-3.9889,-3.9889,-3.9889,-3.9889,-3.9889,-3.9911,-3.9954,-3.9975,-3.9996,-4.0137,-4.0196,-4.0196,-4.0253,-4.0272,-4.0272,-4.0272,-4.0234,-4.0176,-4.0098,-4.0077,-4.0096,-4.0117,-4.0176,-4.0272,-4.031,-4.031,-4.0444,-4.1036,-4.1303,-4.1739,-4.3045,-4.357,-4.3988,-4.463,-4.4896,-4.5014,-4.5125,-4.5038,-4.5014,-4.517,-4.5129,-4.5,-4.4776,-4.4726,-4.4599,-4.443,-4.4374,-4.4465,-4.4701,-4.4726,-4.4726,-4.4701,-4.5369,-4.5693,-4.5554,-4.6512,-4.7166,-4.7265,-4.7776,-4.8141,-4.8306,-4.8306,-4.8306,-4.8306,-4.8306,-4.8306,-4.8306,-4.8306,-4.8306,-2.9012,-2.8826,-2.8764,-2.8732,-2.8748,-2.8826,-2.8826,0.0,-2.909,-2.909,0.0,-2.9393,-2.9793,0.0,0.0,-3.0426,-3.0526,-3.0543,-3.0626,-3.1818,-3.3151,-3.4199,-3.548,-3.6481,-3.7013,-3.7577,-3.8021,-3.8192,-3.8088,-3.807,-3.8192,-3.8192,-3.8192,-3.8192,-3.8433,-3.8688,-3.8952,-3.9287,-3.9599,-3.9848,-3.9889,-3.9889,-3.9889,-3.9889,-3.9889,-3.9889,-3.9889,-3.9889,-3.9889,-3.9911,-3.9911,-3.9911,-4.0057,-4.0157,-4.0196,-4.0196,-4.0215,-4.0215,-4.0215,-4.0176,-4.0098,-4.0017,-3.9996,-4.0017,-4.0157,-4.0196,-4.0215,-4.0272,-4.031,-4.0329,-4.0387,-4.0941,-4.1514,-4.1645,-4.2764,-4.3824,-4.3931,-4.445,-4.4938,-4.4919,-4.4707,-4.4617,-4.5106,-4.4887,-4.465,-4.4624,-4.4373,-4.4204,-4.4289,-4.4318,-4.4346,-4.4457,-4.4457,-4.4411,-4.4374,-4.4468,-4.4651,-4.4957,-4.5193,-4.5503,-4.5975,-4.6782,-4.759,-4.8306,-4.8306,-4.8306,-4.8306,-4.8306,-4.8306,-4.8306,-4.8306,-4.8306,-2.8591,-2.8591,0.0,0.0,0.0,0.0,-2.8336,0.0,-2.8795,0.0,0.0,0.0,0.0,0.0,0.0,0.0,-3.0526,-3.0634,-3.1064,0.0,-3.2885,-3.3422,-3.5173,0.0,-3.7541,-3.7916,-3.8124,-3.8192,-3.814,-3.814,-3.8192,-3.8192,-3.8192,-3.8192,-3.8289,-3.8433,-3.8523,-3.8836,-3.9127,-3.9371,-3.958,-3.9758,-3.9889,-3.9889,-3.9889,-3.9889,-3.9889,-3.9889,-3.9889,-3.9889,-3.9889,-3.9911,-3.9954,-4.0017,-4.0098,-4.0176,-4.0176,-4.0157,-4.0196,-4.0118,-4.0036,-3.9954,-3.9975,-3.9996,-4.0077,-4.0157,-4.0196,-4.0215,-4.0253,-4.0234,-4.0176,-4.0404,-4.0726,-4.1176,-4.18,-4.2557,-4.3586,-4.3856,-4.407,-4.4619,-4.4383,-4.4194,-4.4465,-4.4364,-4.4204,-4.4106,-4.3955,-4.3868,-4.3777,-4.3795,-4.3873,-4.4151,-4.4181,-4.4132,-4.4023,-4.4023,-4.3984,-4.3903,-4.4397,-4.4985,-4.5754,-4.6139,-4.6726,-4.7609,-4.7609,-4.7847,-4.8306,-4.8306,-4.8306,-4.8306,-4.8306,-4.8306,-2.7963,0.0,0.0,0.0,0.0,0.0,0.0,0.0,0.0,0.0,0.0,0.0,0.0,0.0,-2.9766,-3.0384,0.0,-3.0709,-3.1196,-3.2116,-3.2762,-3.2961,-3.4959,0.0,0.0,-3.7933,-3.802,-3.7967,-3.8088,-3.8174,-3.8192,-3.8192,-3.8192,-3.8192,-3.8192,-3.8259,-3.8289,-3.851,-3.873,-3.9008,-3.9261,-3.9508,-3.9781,-3.9781,-3.9826,-3.9889,-3.9889,-3.9889,-3.9889,-3.9889,-3.9889,-3.9889,-3.9889,-3.9933,-3.9975,-4.0098,-4.0137,-4.0117,-4.0157,-4.0098,-3.9996,-3.9911,-3.9933,-3.9975,-3.9996,-4.0077,-4.0138,-4.0196,-4.0196,-4.0196,-4.0137,-4.0098,-4.0188,-4.0751,-4.1051,-4.1544,-4.2692,-4.3083,-4.3369,-4.3968,-4.3908,-4.3786,-4.3831,-4.3831,-4.3767,-4.3642,-4.3542,-4.3442,-4.334,-4.334,-4.3463,-4.3781,-4.3846,-4.3814,-4.3712,-4.3646,-4.3477,-4.3178,-4.3725,-4.4436,-4.5369,-4.5461,-4.5883,-4.6745,-4.6745,-4.7186,-4.7976,-4.7976,-4.8086,-4.8306,-4.8306,-4.8306,0.0,0.0,0.0,-2.6832,0.0,0.0,0.0,0.0,-2.7055,0.0,0.0,0.0,0.0,-2.8842,-2.9273,-3.0231,-3.0443,0.0,0.0,-3.1785,-3.2945,-3.3673,-3.5213,-3.644,0.0,-3.7468,-3.7596,-3.7342,-3.7739,-3.807,-3.8192,-3.8192,-3.8192,-3.8192,-3.8192,-3.8322,-3.8585,-3.8585,-3.873,-3.9008,-3.9008,-3.9189,-3.9508,-3.9508,-3.9647,-3.9889,-3.9889,-3.9889,-3.9889,-3.9889,-3.9889,-3.9889,-3.9889,-3.9889,-3.9911,-3.9975,-4.0057,-4.0117,-4.0098,-4.0057,-3.9996,-3.9911,-3.9911,-3.9911,-3.9975,-3.9996,-4.0017,-4.0176,-4.0196,-4.0196,-4.0196,-4.0196,-4.0176,-4.0055,-4.068,-4.1222,-4.086,-4.2063,-4.3118,-4.2813,-4.3121,-4.3406,-4.344,-4.344,-4.3406,-4.3406,-4.3142,-4.2975,-4.3104,-4.316,-4.3251,-4.3411,-4.3429,-4.3429,-4.3411,-4.3233,-4.3104,-4.3104,-4.3141,-4.3523,-4.44,-4.4583,-4.5022,-4.5827,-4.592,-4.6342,-4.715,-4.715,-4.7553,-4.8306,-4.8306,-4.8306,0.0,0.0,-2.7276,-2.687,0.0,0.0,0.0,0.0,0.0,0.0,0.0,0.0,0.0,-2.8764,-2.9227,-3.0231,-3.0443,-3.0526,0.0,-3.1769,-3.3095,-3.4141,-3.5489,-3.6545,-3.7111,-3.7613,-3.7756,-3.7451,-3.788,-3.814,-3.8192,-3.8192,-3.8192,-3.8192,-3.8192,-3.8241,-3.8322,-3.8322,-3.8478,-3.8748,-3.8748,-3.8905,-3.9163,-3.9163,-3.9216,-3.932,-3.9532,-3.9623,-3.9623,-3.9623,-3.9735,-3.9889,-3.9693,-3.9735,-3.9911,-3.9975,-3.9975,-3.9954,-4.0036,-4.0017,-3.9996,-3.9975,-3.9933,-3.9911,-3.9933,-4.0015,-4.0077,-4.0137,-4.0176,-4.0196,-4.0157,-4.0098,-4.0057,-3.9954,-4.0031,-4.0212,-4.0622,-4.0822,-4.1225,-4.2184,-4.2331,-4.2432,-4.2996,-4.3087,-4.3087,-4.3087,-4.2976,-4.2938,-4.3067,-4.3141,-4.316,-4.3251,-4.3251,-4.3269,-4.3215,-4.3049,-4.2956,-4.2956,-4.2956,-4.3158,-4.3505,-4.3634,-4.409,-4.4986,-4.5095,-4.5498,-4.6305,-4.6305,-4.6559,-4.7034,-4.7034,-4.7325,-2.6832,-2.71,0.0,-2.687,-2.71,0.0,-2.687,0.0,-2.6779,0.0,0.0,0.0,0.0,0.0,-2.915,-3.0231,-3.0443,-3.0609,0.0,-3.1719,-3.284,-3.4327,-3.5446,-3.6357,-3.6843,-3.7283,-3.7469,-3.7451,-3.7756,-3.802,-3.8192,-3.8192,-3.8192,-3.8192,-3.8192,-3.8192,-3.8192,-3.8192,-3.8307,-3.8465,-3.8465,-3.8615,-3.8857,-3.8857,-3.8915,-3.9008,-3.9216,-3.9313,-3.9313,-3.9313,-3.9414,-3.9556,-3.9389,-3.9414,-3.9604,-3.987,-3.9954,-3.9933,-3.9996,-4.0036,-4.0036,-3.9996,-3.9975,-3.9933,-3.9911,-3.9889,-3.9889,-3.9911,-3.987,-3.9829,-3.9892,-3.9889,-3.9848,-3.9781,-3.9623,-3.9583,-3.9906,-3.9875,-4.0088,-4.1034,-4.1486,-4.1868,-4.2375,-4.2701,-4.2882,-4.2882,-4.2882,-4.2938,-4.3012,-4.3049,-4.3141,-4.316,-4.3142,-4.3123,-4.3049,-4.2994,-4.2938,-4.2882,-4.2882,-4.2938,-4.3049,-4.3123,-4.3433,-4.4054,-4.4144,-4.4601,-4.5462,-4.5462,-4.5605,-4.5997,-4.5815,-4.5917]}]]